GFSSGP_prec_cloud_003.txt.gz
Cloud_Cover
5 6 88 74 100 100 99 100 100 100 100 100 92 100 100 86 100 83 59 64 100 99 100 100 22 12 98 100 92 98 100 99 92 7 84 10 77 12 5 3 0 0 0 0 5 5 5 0 0
5 29 100 79 100 100 100 100 100 100 100 100 67 100 93 97 43 56 98 100 82 96 99 38 60 38 83 21 50 88 70 3 5 1 41 70 0 0 0 0 0 0 0 0 5 27 5 5 0
5 19 85 50 35 99 81 89 42 6 74 100 71 96 61 93 42 49 39 43 100 92 83 35 88 100 100 98 48 42 14 5 2 79 86 0 0 0 0 0 0 0 0 0 5 12 26 36 4
0 48 17 99 25 98 91 100 14 7 16 58 87 66 46 8 44 29 51 100 99 100 90 100 100 100 63 99 34 5 5 0 42 0 0 0 0 0 0 4 5 0 3 12 5 5 18 5 3
2 70 76 88 48 34 99 91 100 99 92 91 54 96 37 100 81 61 95 100 100 100 100 100 85 90 98 81 17 3 0 3 0 0 0 0 0 0 5 5 5 31 100 100 24 5 18 5 3
84 69 80 86 100 26 11 63 100 100 70 8 21 25 88 54 56 93 100 77 97 91 93 26 42 5 3 0 5 0 0 0 0 0 0 0 0 0 74 90 8 5 67 100 29 51 4 5 5
100 76 100 38 15 2 34 5 92 27 9 77 7 64 37 51 62 100 99 98 100 56 78 53 5 5 3 0 0 0 0 0 0 0 0 0 0 0 2 5 4 5 6 69 32 51 100 77 5
100 92 75 65 100 0 0 5 5 5 60 2 60 3 5 24 26 92 90 75 100 23 100 100 44 36 8 0 0 0 0 0 0 0 0 0 0 0 0 0 0 0 0 0 4 8 5 5 58
6 18 92 100 60 22 0 4 2 2 0 0 68 5 0 0 21 26 82 99 95 37 9 84 80 51 95 36 10 0 0 0 0 0 0 0 53 72 30 14 0 0 0 0 0 0 0 0 4
53 90 100 88 100 58 3 4 1 1 0 0 0 10 0 0 6 22 11 59 14 85 70 47 75 14 65 42 0 0 0 0 4 4 1 1 87 70 38 8 0 0 0 0 0 0 0 31 61
83 100 84 43 20 97 5 5 3 5 0 0 0 0 0 0 3 12 17 15 6 5 28 68 93 48 14 47 12 29 31 73 8 4 8 53 93 85 89 36 80 50 0 89 29 87 100 12 2
10 93 85 89 9 95 9 5 5 1 17 0 0 0 0 0 0 0 6 11 16 1 1 8 99 68 41 88 84 94 48 33 45 5 0 28 6 98 14 99 100 67 100 52 92 96 3 69 26
1 36 25 53 5 22 68 8 5 2 0 0 0 0 0 0 0 0 0 0 0 0 0 5 4 1 50 2 9 40 47 15 76 17 14 12 93 92 66 14 3 19 47 100 86 100 74 74 95
19 13 5 5 7 5 48 9 5 2 0 0 4 2 3 11 5 3 0 0 0 0 0 0 0 14 45 30 36 22 23 94 14 32 44 5 36 93 22 100 100 100 52 100 36 56 8 66 92
5 4 5 2 2 4 4 3 2 2 0 0 3 1 1 2 1 0 0 0 0 0 0 0 0 5 9 55 49 10 73 19 100 97 30 0 2 14 5 49 81 96 8 1 50 96 100 9 0
1 2 7 21 2 3 0 4 0 0 0 1 0 0 0 0 0 0 0 0 0 0 2 0 0 0 15 42 31 9 58 100 100 90 100 10 4 13 31 38 83 100 81 100 92 20 100 32 0
5 5 5 100 2 3 0 87 5 0 0 0 0 0 0 0 0 0 0 0 0 0 3 5 0 1 12 0 24 13 89 95 85 100 77 100 28 94 56 58 100 96 31 88 56 2 90 0 0
5 5 85 94 16 2 0 86 41 0 0 0 0 0 0 0 0 0 0 0 0 0 1 3 0 2 13 59 8 62 94 33 100 100 78 50 58 26 31 80 32 0 89 36 71 79 0 0 6
5 100 79 100 85 0 5 22 5 0 0 0 0 0 0 0 0 0 0 0 0 0 3 0 0 0 2 26 14 10 26 57 19 19 98 58 6 16 8 0 100 13 12 100 17 0 0 0 42
4 20 94 100 59 58 35 82 99 10 0 0 0 0 0 0 0 0 0 0 0 0 3 0 0 0 0 26 2 32 98 32 34 29 63 33 100 99 28 10 5 7 76 0 7 0 0 1 22
0 5 73 97 48 100 85 100 76 83 2 0 0 0 0 0 0 0 0 0 0 0 0 0 0 0 0 0 45 11 28 0 58 40 86 20 7 36 10 18 2 23 0 0 0 0 3 4 41
0 4 64 66 100 100 19 87 99 52 40 0 0 0 0 0 0 0 0 0 0 0 0 0 0 0 0 0 13 7 0 1 0 0 5 2 63 26 28 16 34 27 0 0 0 0 5 1 11
0 1 5 73 100 98 100 86 99 99 24 5 0 0 0 0 0 0 0 0 0 0 0 0 0 0 1 0 0 1 0 0 0 0 4 0 11 9 1 4 24 9 0 1 5 0 0 14 0
0 0 5 28 100 99 100 81 14 100 100 77 25 0 0 0 0 0 0 0 0 0 0 0 0 0 0 0 0 0 0 0 0 0 9 0 0 0 0 0 37 0 17 31 5 6 0 5 3
0 0 5 76 98 37 98 93 97 91 18 35 10 98 5 0 0 0 0 0 0 0 0 0 0 0 0 0 0 0 0 0 0 38 1 0 0 0 0 0 11 4 30 69 65 1 24 5 14
0 0 0 5 19 86 25 86 77 82 41 95 100 8 90 1 0 0 0 0 0 0 0 0 0 0 0 0 0 0 0 0 0 0 3 5 0 0 0 1 5 98 95 26 5 5 100 96 84
0 0 0 5 57 58 90 35 38 100 68 27 5 3 84 5 0 0 0 0 0 0 0 0 0 0 0 0 0 0 0 0 0 0 2 11 0 0 0 0 4 50 10 97 96 31 18 100 100
0 0 0 0 16 93 97 85 99 55 1 4 5 5 5 5 0 0 0 0 0 0 0 0 0 0 0 0 0 0 0 1 0 0 12 2 1 2 1 3 55 16 5 100 81 95 37 61 93
2 0 0 1 4 6 71 93 100 94 96 1 5 13 79 5 0 0 0 0 0 0 0 0 0 0 0 0 0 0 0 0 0 0 0 0 0 0 3 5 79 84 29 74 52 14 29 100 100
0 0 0 3 0 4 25 98 100 61 2 4 8 99 100 41 0 0 0 0 0 0 0 0 0 0 0 0 0 0 0 0 0 0 0 0 0 3 5 5 26 6 57 5 18 46 37 76 47

GFSSGP_prec_cloud_006.txt.gz
Cloud_Cover
2 5 44 100 100 100 100 97 100 99 100 100 100 96 100 78 100 92 37 22 62 73 100 98 100 73 46 10 89 76 100 93 5 5 1 0 8 0 0 0 0 0 0 2 6 5 5 5 0
0 37 100 100 100 100 100 100 99 81 90 76 100 100 100 100 92 94 91 96 11 8 88 11 9 28 33 75 100 97 57 11 5 0 0 0 0 0 0 0 0 0 0 0 5 5 38 5 5
4 88 94 100 100 100 100 100 100 100 100 100 100 97 100 99 67 80 52 55 89 67 34 48 72 70 100 100 100 26 6 5 1 0 0 0 0 0 0 3 1 0 1 4 2 44 3 6 4
3 60 99 100 100 100 100 95 47 27 100 73 49 21 94 11 32 90 100 100 100 96 11 5 61 100 100 100 100 100 72 0 0 0 0 0 0 0 2 2 2 5 35 5 4 4 0 5 2
22 30 68 19 62 82 45 67 95 82 68 20 5 30 34 72 17 88 78 88 84 96 100 37 93 100 100 100 46 2 0 0 0 0 0 0 0 5 7 5 1 4 14 5 5 5 4 0 2
100 88 42 100 100 59 49 4 24 100 37 90 9 54 63 60 54 15 93 100 94 96 99 100 70 64 19 2 0 0 0 0 0 0 0 0 0 0 1 0 0 5 5 5 1 2 22 16 0
100 100 98 49 100 6 10 46 100 18 61 100 1 100 100 100 76 66 62 100 88 65 11 49 100 73 0 0 0 0 0 0 0 0 0 0 0 0 0 0 0 0 5 0 0 0 0 0 3
100 100 100 100 74 3 1 82 98 5 96 44 34 22 95 99 93 81 47 49 100 67 10 26 1 10 0 0 0 0 0 0 0 0 0 0 0 0 0 0 0 0 0 0 0 0 0 0 0
100 98 100 100 99 20 1 2 3 81 25 5 85 0 7 63 3 100 89 98 50 80 16 0 0 0 0 0 0 0 0 0 0 0 0 0 66 15 16 3 0 0 0 0 0 0 0 0 0
85 22 85 95 31 84 2 2 3 1 0 85 8 14 0 50 3 100 70 51 100 76 50 90 61 61 0 0 0 0 0 0 0 0 0 0 92 7 30 100 100 6 2 25 1 0 1 1 32
94 100 94 52 28 48 82 1 0 7 3 3 24 10 0 57 0 0 5 0 82 94 80 63 0 32 61 82 0 0 0 0 0 1 8 39 62 46 99 100 100 99 100 89 0 7 42 1 0
91 81 92 100 22 15 54 13 4 6 75 2 0 0 0 0 42 20 0 0 86 56 8 32 0 0 56 6 17 0 0 1 33 0 0 0 0 32 86 100 26 80 48 94 44 4 100 57 12
34 82 44 99 5 10 100 6 7 8 72 3 0 0 0 0 2 5 0 3 20 0 86 0 17 10 22 58 19 80 94 36 81 59 0 5 15 71 73 4 16 6 88 3 0 58 100 31 37
85 47 56 33 6 15 79 41 1 2 4 1 1 0 0 0 0 0 4 2 48 0 2 0 0 0 54 0 14 62 20 98 17 62 33 2 5 5 87 4 49 85 36 0 67 0 4 95 100
35 99 33 2 3 7 13 95 0 2 2 5 5 0 5 2 4 5 0 0 3 0 1 0 3 0 0 0 0 0 78 6 18 14 89 64 4 6 4 0 0 80 42 25 72 78 9 100 71
0 20 34 36 17 0 0 81 0 4 0 1 0 4 0 0 0 0 0 0 0 0 0 0 0 0 0 1 0 0 0 88 43 5 99 96 1 0 1 8 14 100 100 15 94 50 1 20 12
0 3 5 100 92 56 0 92 100 25 1 2 0 0 0 0 0 0 0 0 0 0 0 0 0 24 0 0 9 0 1 82 100 41 2 88 88 5 100 22 3 84 16 1 67 48 94 5 0
0 5 16 68 40 97 100 100 100 32 42 1 0 0 0 0 0 0 0 0 0 0 0 0 0 0 19 5 4 0 0 98 66 67 96 20 0 12 5 9 43 0 0 0 2 80 5 2 0
0 64 14 100 77 100 100 100 100 10 8 6 0 0 0 0 0 0 0 0 0 0 0 0 0 0 2 0 0 0 0 45 82 4 86 3 12 0 0 0 2 66 0 86 100 0 0 3 2
0 16 27 100 98 100 100 8 0 36 2 0 0 0 0 0 0 0 0 0 0 0 0 0 0 0 0 0 0 0 14 0 0 15 46 0 0 0 80 0 0 92 98 0 0 0 0 22 17
0 0 21 86 100 68 99 31 100 100 7 0 0 0 0 0 0 0 0 0 0 0 0 0 0 0 0 0 0 0 1 33 99 34 40 0 21 0 49 0 0 0 14 2 0 0 0 4 5
0 0 3 24 100 62 91 29 40 97 70 0 0 0 0 0 0 0 0 0 0 0 0 0 0 0 0 0 0 0 0 0 3 0 54 0 0 0 0 0 0 0 0 0 0 0 0 0 26
0 0 0 5 98 41 42 11 77 100 98 42 2 0 0 0 0 0 0 0 0 0 0 0 0 0 0 0 0 0 0 0 0 0 1 46 0 0 7 0 0 0 0 0 5 5 0 0 0
0 0 0 2 19 89 100 26 100 98 100 100 98 5 0 0 0 0 0 0 0 0 0 0 0 0 0 0 0 0 0 0 41 62 36 0 0 0 0 8 0 0 0 0 5 5 4 2 1
0 0 0 0 3 1 90 57 95 76 94 82 96 100 36 0 0 0 0 0 0 0 0 0 0 0 0 0 0 0 0 0 0 0 0 0 0 0 0 0 0 0 5 5 5 4 5 4 4
1 0 0 0 0 2 0 42 52 100 24 61 95 91 99 0 1 0 0 0 0 0 0 0 0 0 0 0 0 0 0 0 0 0 0 0 0 0 0 0 1 5 5 5 5 64 5 5 5
0 0 0 0 0 3 30 61 7 15 88 74 78 93 100 99 5 0 0 0 0 0 0 0 0 0 0 0 0 0 0 0 0 0 0 0 0 0 0 0 0 5 45 8 2 5 85 17 5
0 0 0 0 0 0 2 6 99 10 2 6 28 100 100 77 0 4 0 0 0 0 0 0 0 0 0 0 0 0 0 0 0 0 0 0 0 0 4 2 0 19 14 1 0 2 1 4 90
0 0 0 0 0 0 0 4 2 68 80 73 1 68 94 12 14 3 0 0 0 0 0 0 0 0 0 0 0 0 0 0 0 0 0 0 0 0 0 0 0 0 0 0 0 0 0 0 1
0 0 0 0 0 0 0 0 5 100 100 100 64 0 0 0 82 42 1 0 0 0 0 0 0 0 0 0 0 0 0 0 0 0 0 0 0 0 0 0 0 0 0 0 0 1 0 0 0

GFSSGP_prec_cloud_009.txt.gz
Cloud_Cover
5 15 36 78 100 100 100 100 100 100 100 100 100 100 98 100 80 56 71 70 5 11 10 34 34 75 100 100 82 40 8 28 38 5 2 0 0 0 0 0 0 0 0 2 5 0 0 0 0
5 25 100 100 74 100 100 99 100 100 100 66 96 98 100 100 100 100 100 56 59 63 62 80 89 100 100 100 31 98 23 19 5 5 0 0 0 0 0 0 0 0 0 5 7 30 0 0 0
46 99 99 100 99 90 99 100 100 100 100 100 62 34 95 100 100 60 21 53 29 55 7 28 99 80 5 14 94 90 100 97 49 0 0 0 0 0 0 0 0 4 10 5 12 9 3 0 0
65 100 100 100 100 75 91 100 100 100 100 100 100 100 46 72 23 5 5 5 6 30 64 87 36 5 5 5 100 100 100 1 0 0 0 0 0 0 0 0 0 3 1 4 4 5 0 0 0
91 100 100 100 100 100 100 91 99 100 99 7 4 12 11 4 0 5 5 5 4 5 11 90 71 100 100 100 100 53 0 0 0 0 0 0 0 1 2 0 5 5 2 0 0 2 39 3 0
63 100 100 100 100 100 100 51 44 66 11 2 5 2 10 1 1 45 49 3 0 0 2 74 43 100 100 96 0 0 0 0 0 0 0 0 0 0 0 0 4 5 5 5 0 0 0 2 0
78 100 100 100 99 16 4 7 100 28 4 0 0 1 43 0 1 97 50 6 0 4 4 2 30 99 4 0 0 0 0 0 0 0 0 0 3 2 0 0 0 0 1 0 0 0 0 0 0
70 93 96 100 100 66 6 36 0 88 5 1 0 0 9 2 1 68 95 50 0 0 0 0 0 0 0 0 0 0 0 0 0 0 0 0 1 14 100 44 1 0 0 0 0 0 0 0 0
23 90 100 52 93 100 64 5 80 66 31 0 94 44 12 0 1 4 47 30 0 0 0 0 0 0 0 0 0 0 0 0 0 0 0 0 100 100 100 100 100 2 0 0 0 0 0 0 0
51 100 97 81 31 66 24 4 0 0 1 23 1 1 0 4 74 80 1 54 55 0 0 0 0 0 0 0 0 0 0 0 0 0 0 63 100 86 100 18 23 4 1 0 0 0 2 1 0
98 84 82 96 23 96 84 5 0 0 0 0 0 0 0 0 0 38 0 0 0 35 0 0 0 0 0 0 0 0 0 0 0 0 0 100 100 100 92 52 6 4 2 0 20 47 20 55 35
41 38 69 100 51 8 98 78 1 0 2 2 0 0 0 0 0 0 0 2 0 0 0 0 0 0 3 3 0 0 0 0 0 0 0 5 33 10 94 57 5 4 0 14 9 93 55 61 82
5 54 100 86 100 64 81 94 5 2 0 1 0 0 0 0 0 0 0 0 0 0 29 37 0 0 19 4 0 0 0 6 19 66 0 0 4 30 4 5 31 5 21 1 22 85 97 9 91
0 32 92 96 58 87 2 65 100 5 0 0 0 0 1 0 0 0 0 0 80 4 0 0 0 0 0 0 0 61 89 99 39 100 52 0 5 4 3 11 28 89 33 100 21 34 87 53 30
0 5 44 100 83 51 92 37 100 10 0 0 0 0 0 54 0 0 4 0 0 0 0 0 0 0 0 0 0 0 42 6 95 10 96 100 88 4 5 7 4 18 2 6 0 36 0 6 7
0 1 5 77 4 34 4 0 68 52 0 0 5 0 0 0 7 0 0 0 0 0 0 0 0 0 0 0 0 0 0 0 0 4 0 0 15 15 6 58 3 2 76 12 37 0 35 45 0
0 0 1 3 100 5 100 7 3 99 4 0 0 0 0 0 0 0 0 0 0 0 0 0 0 0 2 2 1 5 0 0 0 0 0 32 22 19 4 2 3 10 30 19 0 12 71 72 0
0 0 0 5 16 53 25 21 5 70 46 0 0 0 0 0 0 0 0 0 0 0 0 0 0 5 22 1 1 0 0 0 0 24 0 1 0 0 0 0 1 16 6 0 0 58 0 0 0
0 0 0 5 90 99 94 46 21 88 0 0 0 0 0 0 0 0 0 0 0 0 0 0 0 0 0 0 0 1 5 0 0 0 0 0 0 0 0 0 0 0 60 0 0 0 0 0 0
0 0 0 39 100 100 60 50 89 24 1 0 0 0 0 0 0 0 0 0 0 0 0 0 0 0 0 0 0 0 0 0 0 0 0 0 0 0 0 0 0 0 78 66 0 0 0 0 0
0 0 0 32 68 100 82 28 2 60 22 48 0 0 0 0 0 0 0 0 0 0 0 0 0 0 0 0 0 0 0 0 0 0 0 91 3 0 0 0 0 0 0 0 0 0 0 0 0
0 0 0 5 80 74 94 55 75 100 20 20 72 8 0 0 0 0 0 0 0 0 0 0 0 0 0 0 0 0 0 0 0 0 0 0 0 0 0 0 0 0 0 0 0 0 0 0 0
0 0 0 3 89 61 53 99 5 100 59 100 5 16 2 0 0 0 0 0 0 0 0 0 0 0 0 0 0 0 0 0 0 0 0 0 0 0 0 0 0 0 0 0 0 0 0 0 0
0 0 0 0 73 74 5 60 4 82 11 43 6 5 5 1 0 0 0 0 0 0 0 0 0 0 0 0 0 0 0 0 0 0 0 0 0 0 0 0 0 0 0 0 3 2 1 5 2
0 0 0 0 0 0 4 5 0 98 100 17 5 10 5 5 20 0 0 0 0 0 0 0 0 0 0 0 0 0 0 0 0 0 0 0 0 0 0 0 0 2 5 5 5 5 0 0 5
0 0 0 0 0 0 0 0 0 4 84 85 19 89 18 59 100 4 2 0 0 0 0 0 0 0 0 0 0 0 0 0 0 0 0 0 0 0 0 0 0 3 21 1 0 0 0 0 1
0 0 0 0 0 0 0 0 0 9 64 45 72 30 3 94 100 14 7 11 0 0 0 0 0 0 0 0 0 0 0 0 0 0 0 0 0 0 0 0 0 2 0 0 0 3 5 5 0
0 0 0 0 0 0 0 0 0 0 4 4 0 63 48 42 65 13 5 4 0 0 0 0 0 0 0 0 0 0 0 0 0 0 0 0 0 0 0 0 0 0 0 3 0 5 5 5 0
0 0 0 0 0 0 1 0 0 0 58 90 27 5 31 94 74 17 0 3 0 0 0 0 0 0 0 0 0 0 0 0 0 0 0 0 0 0 0 0 0 0 0 11 15 4 5 3 2
0 0 0 0 0 0 0 1 0 8 34 91 10 100 100 4 0 0 1 0 0 0 0 0 0 0 0 0 0 0 0 0 0 0 0 0 0 0 0 0 0 0 0 0 5 5 5 5 1

GFSSGP_prec_cloud_012.txt.gz
Cloud_Cover
100 100 93 85 100 100 100 98 100 94 100 100 100 100 75 96 76 13 100 100 100 100 95 59 32 42 100 98 82 98 100 97 13 88 89 0 0 0 0 0 5 0 2 5 98 99 29 0 0
100 100 100 99 100 100 96 95 98 100 81 82 100 100 100 100 100 37 85 84 81 86 100 28 5 5 6 15 90 24 94 56 100 81 0 3 0 0 1 6 0 4 10 5 3 6 8 0 0
100 100 100 100 87 100 100 98 100 73 97 36 92 100 100 100 100 89 83 99 99 13 5 5 19 5 5 2 1 82 83 90 30 0 4 0 0 0 0 0 0 1 0 9 6 4 2 1 0
98 100 100 100 100 96 100 100 100 60 80 52 84 100 90 92 100 23 5 5 4 3 5 5 48 5 5 65 84 100 70 2 0 0 0 0 0 0 0 0 0 0 0 0 0 5 13 0 0
99 100 100 100 100 100 100 100 100 100 88 82 40 68 98 6 0 4 1 3 0 0 0 2 5 20 56 78 14 0 0 0 0 0 0 0 0 0 0 0 0 0 0 0 0 2 21 3 0
96 100 100 100 100 100 100 100 100 100 100 100 48 6 2 0 4 0 3 0 0 1 0 0 4 5 5 2 0 0 0 0 0 0 0 0 3 1 0 0 2 0 0 0 0 0 0 5 0
100 98 100 100 100 100 100 100 100 100 100 15 0 0 3 0 0 0 0 0 1 3 0 0 0 0 0 0 0 0 0 0 0 0 0 8 5 5 3 4 0 0 0 0 0 0 0 0 1
98 100 100 100 100 100 100 100 100 100 10 0 0 0 16 0 0 0 0 0 0 0 0 0 0 0 0 0 0 0 0 0 0 0 62 86 67 97 99 4 0 0 0 0 0 0 0 0 2
92 5 50 95 100 100 100 100 100 51 22 0 27 0 4 0 0 0 0 0 0 0 0 0 0 0 0 0 0 0 0 0 0 51 100 82 86 20 87 26 0 0 0 0 0 0 0 0 0
100 5 6 83 68 68 100 100 3 0 0 0 0 0 0 0 0 0 0 0 0 0 0 0 0 0 0 0 0 0 0 0 0 71 100 38 82 44 84 5 0 0 2 0 2 0 0 0 0
3 7 20 96 8 63 5 5 3 0 0 0 0 0 0 0 0 0 0 0 0 0 0 0 0 0 0 0 0 3 0 0 0 4 100 47 100 84 50 25 2 0 3 0 5 0 68 48 2
4 3 73 98 100 98 40 3 5 0 0 0 0 0 0 0 0 0 0 0 0 0 0 0 0 0 0 0 0 0 0 0 0 0 0 6 56 25 37 4 0 0 0 0 0 48 98 5 100
0 5 62 100 100 90 76 16 17 5 0 0 0 0 0 0 0 0 0 0 0 0 0 0 0 0 0 0 0 0 0 0 0 0 0 0 0 0 1 4 0 3 1 1 21 99 52 84 3
6 2 24 24 65 99 89 97 11 85 0 0 0 0 0 0 0 0 0 0 0 0 0 0 0 0 0 0 0 0 0 0 0 13 14 0 0 0 0 5 1 5 2 45 81 0 99 34 67
0 0 0 4 34 91 34 10 3 17 9 0 0 0 0 0 0 0 0 0 0 0 0 0 0 0 0 0 0 0 0 13 0 17 1 100 7 12 5 2 0 0 2 4 28 10 6 27 10
0 0 0 0 8 4 81 18 60 1 59 2 0 0 0 0 0 0 2 5 0 0 0 0 0 0 0 0 0 0 1 18 40 1 0 0 0 2 0 1 5 0 0 3 0 0 10 100 83
0 0 0 0 17 98 10 61 0 0 24 0 0 0 0 0 1 0 0 0 0 0 0 0 0 0 0 2 0 0 0 0 3 0 0 0 0 0 0 0 0 0 47 0 0 0 7 53 0
0 0 0 0 2 53 3 60 5 1 4 5 0 0 0 0 0 0 0 0 0 0 0 0 2 5 5 0 0 0 0 0 0 0 0 0 0 0 0 0 0 0 0 0 0 57 0 0 0
0 0 0 0 64 23 12 5 100 5 5 11 0 0 0 0 0 0 0 0 0 0 0 0 5 0 0 0 2 4 5 0 0 0 0 0 0 0 0 0 0 0 0 0 0 0 0 0 0
0 0 0 0 4 5 88 12 62 5 51 5 2 0 0 0 0 0 0 0 0 0 0 0 0 0 0 0 0 0 0 0 0 0 0 0 0 0 0 0 0 0 0 0 0 0 0 0 0
0 0 0 0 5 4 8 98 58 45 26 5 0 1 0 0 0 0 0 0 0 0 0 0 0 0 0 0 0 0 0 0 0 0 0 0 0 0 0 0 0 0 0 0 0 0 0 0 0
0 0 0 4 4 5 51 95 58 62 20 12 1 0 0 0 0 0 0 0 0 0 0 0 0 0 0 0 0 0 0 0 0 0 0 0 73 14 0 0 0 0 0 0 0 0 0 0 0
0 0 0 3 34 51 10 51 1 99 4 5 2 1 32 0 0 0 0 0 0 0 0 0 0 0 0 0 0 0 0 0 0 0 0 0 0 0 0 0 0 0 0 0 0 0 0 0 4
0 0 0 3 59 38 1 3 0 0 2 4 5 5 5 1 0 0 0 0 0 0 0 0 0 0 0 0 0 0 0 0 0 0 0 0 0 0 0 0 0 0 0 0 0 0 0 0 0
0 0 0 0 2 5 0 0 0 0 2 2 65 100 62 8 67 0 2 0 0 0 0 0 0 0 0 0 0 0 0 0 0 0 0 0 0 7 0 0 0 0 0 0 0 0 1 3 0
0 0 0 0 0 0 0 0 0 0 0 5 4 5 4 2 24 4 5 2 0 0 0 0 0 0 0 0 0 0 0 0 0 0 0 0 0 0 0 0 0 0 0 0 0 0 3 0 0
0 0 0 0 0 0 0 0 0 0 5 5 3 5 1 0 22 69 98 6 0 0 0 0 0 0 0 0 0 0 0 0 0 0 0 0 0 0 0 0 0 0 0 0 0 2 5 3 0
0 0 0 0 0 0 0 0 4 0 0 5 5 0 0 3 1 71 78 99 95 5 0 0 0 0 0 0 0 0 0 0 0 0 0 0 0 0 0 0 0 0 0 0 0 5 5 5 5
0 0 0 0 0 0 0 0 0 0 0 0 0 5 5 0 0 2 73 95 61 49 0 0 0 0 0 0 0 0 0 0 0 0 0 0 0 0 0 0 0 0 0 0 0 5 5 5 5
0 0 0 0 0 0 0 0 0 0 0 3 34 5 5 82 12 5 3 91 4 5 1 0 0 0 0 0 0 0 0 0 0 0 0 0 0 0 0 0 0 0 0 0 0 5 5 5 5

GFSSGP_prec_cloud_015.txt.gz
Cloud_Cover
100 24 31 97 86 85 99 99 83 98 62 99 100 82 85 100 100 100 100 100 100 98 100 100 12 5 5 5 5 5 58 52 11 42 0 0 0 0 1 0 1 3 5 5 25 24 7 4 5
100 98 19 40 74 92 93 84 88 70 87 37 88 100 100 100 100 100 100 100 100 34 7 5 3 4 4 5 4 0 5 40 65 0 0 0 0 4 1 0 0 0 2 11 6 10 6 3 63
100 97 74 88 78 93 58 47 76 40 69 29 61 100 100 100 100 94 81 100 100 25 5 5 5 5 6 5 6 94 100 16 0 0 0 0 0 0 0 0 1 13 4 3 5 2 5 42 40
100 93 96 100 100 100 92 58 95 100 94 100 50 76 100 100 100 82 7 5 2 1 0 0 0 0 2 2 35 5 0 0 0 0 0 0 0 0 0 0 1 0 0 0 4 2 0 5 27
71 100 100 100 100 100 71 100 100 98 89 100 55 91 100 100 18 4 5 0 0 0 0 0 0 0 0 3 0 0 0 0 0 0 0 1 4 4 0 0 0 0 0 0 0 0 2 4 65
8 57 100 100 100 100 79 100 78 100 5 81 95 100 97 74 8 2 0 0 0 0 0 2 0 0 0 0 0 0 0 0 0 0 8 5 5 0 0 0 3 0 0 0 0 0 4 5 65
30 35 96 100 78 100 100 100 100 100 99 96 95 98 50 15 5 0 0 0 0 0 0 0 0 0 0 0 0 0 0 0 0 31 7 0 7 5 5 0 0 0 0 0 0 0 1 89 93
68 12 100 100 100 97 100 96 70 98 100 100 100 100 65 5 5 0 0 0 0 0 0 0 0 0 0 0 0 0 0 0 36 31 4 6 84 16 8 5 0 0 0 0 0 0 0 4 5
34 15 100 100 100 100 100 100 100 100 100 100 100 6 0 0 0 0 1 14 25 21 1 0 0 0 0 0 0 0 0 1 100 100 46 18 21 36 58 5 4 0 0 0 0 0 0 1 2
29 10 72 100 100 100 100 100 100 100 100 100 100 7 0 0 0 0 26 60 45 34 44 7 6 1 12 0 0 0 0 9 100 100 70 94 85 33 10 62 4 0 0 0 0 1 0 0 0
78 31 2 9 27 5 5 7 34 80 86 76 22 0 0 0 0 0 0 7 6 8 29 37 11 11 4 0 6 25 8 5 60 99 100 100 100 14 5 5 5 1 0 0 0 0 68 3 0
0 7 50 48 99 72 26 4 4 4 0 0 0 0 0 0 0 0 0 0 0 8 0 12 12 17 10 0 16 16 5 13 23 12 0 1 11 5 5 5 15 6 0 0 0 22 100 66 86
6 5 16 5 30 27 58 5 5 48 2 0 0 0 0 0 0 0 0 0 0 0 0 0 2 1 1 0 13 28 13 2 0 0 2 3 2 3 5 5 7 4 6 2 70 80 100 100 100
61 6 5 5 77 57 17 14 8 17 32 5 0 0 0 0 0 0 0 0 0 0 0 0 0 0 0 0 0 3 0 0 0 0 0 0 0 3 2 0 0 0 3 45 58 38 90 100 65
5 5 5 5 56 5 12 4 24 28 95 100 0 0 0 0 0 0 0 0 2 0 0 0 0 0 0 0 0 0 0 0 0 17 95 17 24 0 4 0 0 0 0 0 0 79 2 57 59
1 4 5 4 3 5 0 0 0 13 18 5 6 0 0 0 0 0 0 0 1 0 0 0 0 0 0 0 0 0 0 0 0 5 0 41 0 0 0 0 0 0 0 0 0 0 0 61 100
0 0 0 2 0 0 0 0 2 9 31 25 0 0 0 0 0 0 0 0 0 0 0 0 0 0 0 0 0 0 0 0 0 0 0 0 0 0 0 0 0 0 0 0 0 0 0 0 1
0 0 5 4 0 0 6 1 21 78 100 69 0 0 0 0 0 0 0 0 0 0 0 0 0 0 3 0 0 0 1 0 0 0 0 0 0 0 0 0 0 0 0 0 0 0 0 0 0
0 0 0 0 2 0 45 0 0 64 100 99 5 0 0 0 0 0 0 0 0 0 0 0 3 5 0 0 0 0 0 0 0 0 0 0 0 0 0 0 0 0 0 0 0 0 0 0 0
0 0 0 3 6 0 1 4 1 5 100 90 5 2 0 0 0 0 0 0 0 0 0 0 3 0 0 0 0 0 0 0 0 0 0 0 0 0 0 0 0 0 0 0 0 0 0 0 0
0 0 0 0 5 3 5 2 2 1 64 20 5 33 0 0 0 0 0 0 0 0 0 0 0 0 0 0 0 1 0 0 1 0 0 0 0 0 0 0 0 0 0 0 0 0 0 0 1
0 0 0 3 24 41 0 0 0 2 5 0 5 3 0 0 0 0 0 0 0 0 0 0 0 0 0 0 0 0 0 0 0 0 0 0 0 0 23 0 0 0 8 0 0 0 0 0 5
0 0 0 0 5 5 0 0 0 0 0 3 5 5 100 7 0 0 0 0 0 0 0 0 0 0 0 0 0 0 0 0 0 0 0 0 0 0 16 0 0 0 2 0 0 0 0 0 0
0 0 0 0 5 2 0 0 0 0 0 0 0 0 5 44 5 0 0 0 0 0 0 0 0 0 0 0 0 0 0 0 2 0 0 0 7 3 0 0 0 0 0 0 0 0 0 0 0
0 0 0 0 0 8 0 0 0 0 0 0 0 5 1 4 7 51 4 25 0 0 0 0 0 0 0 0 0 0 0 0 0 0 0 0 11 21 2 0 0 0 0 0 0 0 0 0 0
0 0 0 0 0 0 0 1 0 0 0 0 4 21 5 39 5 12 68 5 4 0 0 0 0 0 0 0 0 0 0 0 0 0 0 0 0 0 0 0 0 0 0 0 0 0 0 3 1
0 0 0 0 0 0 0 2 0 0 0 0 5 5 79 100 60 94 5 5 5 2 4 0 0 0 0 0 0 0 0 0 0 0 0 0 0 0 0 0 0 0 0 0 0 4 1 5 5
0 0 0 0 0 0 0 0 0 0 0 0 2 0 0 1 3 5 5 5 5 11 2 0 0 0 0 0 0 0 0 0 0 0 0 0 0 0 0 0 0 0 0 0 0 0 2 5 6
0 0 0 0 0 0 0 0 0 0 0 0 0 0 0 0 0 0 5 83 85 45 76 1 0 0 0 0 0 0 0 0 0 0 0 0 0 0 0 0 0 0 0 0 1 0 4 48 91
0 0 0 0 0 0 0 0 0 0 0 0 0 0 0 0 0 0 63 43 5 17 43 5 70 63 0 0 0 0 0 0 0 0 0 0 0 0 0 0 0 0 0 0 0 0 96 100 92

GFSSGP_prec_cloud_018.txt.gz
Cloud_Cover
48 81 45 57 75 100 100 96 100 62 71 29 27 66 94 100 100 97 100 100 100 100 100 100 100 82 4 0 5 2 2 8 18 4 0 0 28 0 0 4 0 0 4 5 4 8 2 4 4
80 74 50 63 93 99 68 76 87 89 15 31 100 100 86 98 100 100 100 100 72 59 9 15 6 3 5 5 36 28 95 55 0 0 0 0 0 0 3 0 0 0 0 1 6 1 25 38 84
75 78 53 39 96 40 27 93 95 14 5 85 38 60 5 56 100 100 100 77 42 5 0 1 0 0 0 2 12 4 1 0 0 0 2 0 5 9 0 0 9 0 0 0 0 6 20 20 35
98 87 89 92 98 96 69 15 19 39 94 46 6 35 77 91 76 100 8 6 0 0 0 0 0 0 0 4 0 0 0 0 0 0 0 0 2 0 0 20 20 18 0 2 1 2 5 100 100
85 63 100 100 97 83 49 39 98 26 71 97 100 100 46 25 19 61 8 13 0 2 0 1 0 0 0 1 0 0 0 0 0 0 0 0 0 0 3 0 0 0 5 0 1 4 0 5 97
98 100 85 100 98 81 6 37 65 14 8 12 33 41 63 7 82 100 47 0 0 0 0 0 0 0 0 0 2 1 0 0 0 0 2 0 0 0 0 0 0 3 0 0 0 5 1 5 91
92 100 99 73 99 34 30 36 18 10 61 81 92 52 94 86 100 15 0 0 0 0 0 0 0 0 0 0 0 0 0 0 0 0 3 5 1 1 0 0 0 0 0 1 2 2 5 0 3
97 8 86 5 16 5 22 44 100 100 96 84 100 100 100 100 100 3 0 0 0 0 0 0 0 0 0 0 0 0 0 0 5 5 5 5 0 5 4 4 0 0 0 0 2 27 0 0 0
5 82 47 3 43 17 68 99 100 100 100 100 100 100 100 100 100 30 12 16 5 15 6 0 0 0 0 0 0 0 4 43 81 5 5 5 22 5 5 5 0 0 0 0 1 0 0 0 0
19 94 78 3 0 0 93 100 84 78 100 100 100 100 100 100 100 54 53 79 49 36 35 3 0 0 4 0 0 0 5 99 82 4 5 5 5 5 5 9 4 0 0 0 0 0 0 0 0
5 5 5 5 1 5 22 100 61 10 7 1 4 76 99 100 93 20 35 50 35 25 29 19 4 6 6 0 4 12 4 12 15 5 25 23 7 5 5 14 27 2 0 0 3 0 94 19 3
5 5 5 4 7 5 4 5 89 72 3 1 0 0 0 0 0 5 12 23 24 22 16 19 13 17 21 15 15 14 14 8 12 5 0 0 1 5 4 0 0 37 0 0 0 25 98 100 88
3 9 62 5 18 18 0 3 5 8 5 5 3 0 0 0 0 0 0 0 0 12 20 32 34 34 37 16 30 28 26 11 2 1 0 0 5 4 0 0 0 0 0 1 95 77 100 100 83
0 5 14 5 25 95 0 0 0 3 5 71 86 0 0 0 0 0 0 0 0 0 0 8 37 34 30 17 25 18 24 8 0 0 0 0 0 0 2 0 0 3 0 43 81 75 68 94 80
4 2 5 5 88 99 3 0 0 4 5 69 84 0 0 0 0 0 0 0 0 0 0 0 6 18 14 4 2 21 7 1 0 0 0 0 1 0 0 0 0 0 0 0 11 41 0 98 8
4 0 2 57 86 24 0 0 0 4 5 7 5 5 0 0 0 0 0 0 0 0 0 0 0 0 0 0 0 0 0 0 0 0 1 100 91 0 0 1 2 0 0 0 7 1 0 31 18
0 0 4 2 3 2 0 0 5 5 9 21 4 0 0 0 0 0 0 0 0 0 0 0 0 0 0 0 0 0 0 0 0 0 58 0 0 4 37 0 0 0 0 0 0 0 0 0 0
0 0 0 0 0 0 0 0 5 32 6 29 78 2 0 0 0 0 0 0 0 0 0 0 0 0 0 0 0 0 0 0 0 0 0 0 0 0 0 0 0 0 0 0 0 0 0 0 0
0 0 0 0 4 0 0 80 0 14 42 33 79 5 1 0 0 0 0 0 0 0 0 0 0 0 0 0 8 6 0 0 0 0 0 0 0 0 0 0 0 0 0 0 0 0 0 0 0
0 0 0 0 1 0 0 17 5 1 18 13 100 6 85 0 0 0 0 0 0 0 0 0 0 0 0 0 0 0 0 0 0 0 0 0 0 0 0 0 0 0 0 0 0 0 0 0 0
0 0 0 0 5 3 0 0 5 5 72 8 16 100 8 0 0 0 0 0 0 0 0 0 0 0 0 0 0 6 2 2 1 0 0 0 0 0 0 0 0 0 0 0 0 0 0 1 4
0 0 0 0 3 5 3 0 0 4 3 5 8 73 1 0 0 0 0 0 0 0 0 0 0 0 0 0 0 0 0 0 0 0 0 0 0 0 0 0 0 0 0 0 0 0 0 0 0
0 0 0 0 0 2 4 0 0 0 0 2 5 0 2 0 0 0 0 0 0 0 0 0 0 0 0 0 0 0 0 0 0 0 0 0 0 0 0 0 0 0 0 0 0 0 0 0 0
0 0 0 0 0 4 0 0 0 0 7 14 5 2 45 2 0 0 0 0 0 0 0 0 0 0 0 0 0 0 0 0 0 0 0 0 0 0 0 0 0 0 0 0 0 0 0 0 5
0 0 0 0 0 10 0 1 0 0 55 20 1 0 3 4 0 0 0 4 3 1 0 0 0 0 0 0 0 0 0 0 0 0 0 0 0 9 0 0 0 0 0 0 0 0 0 0 5
0 0 0 0 0 0 0 65 0 0 10 7 0 5 5 5 0 0 5 18 5 1 4 1 0 0 0 0 0 0 0 0 0 0 0 0 0 0 0 0 0 0 0 0 0 0 0 1 3
0 0 0 0 0 0 0 1 7 1 0 5 4 7 4 0 4 5 5 5 100 21 4 0 0 0 0 0 0 0 0 0 0 0 0 0 0 0 0 0 0 0 0 0 0 0 0 0 5
0 0 0 0 0 0 0 0 6 5 1 0 4 8 1 0 5 26 32 2 9 44 4 1 2 3 0 0 0 0 0 0 0 0 0 0 0 0 0 0 0 0 0 0 0 0 0 0 8
0 0 0 0 0 0 0 0 0 0 0 0 0 4 39 4 1 9 100 92 5 91 10 4 5 1 0 0 0 0 0 0 0 0 0 0 0 0 0 0 0 0 0 0 0 0 0 0 31
0 0 0 0 0 0 0 0 0 0 0 0 0 0 2 83 1 0 3 30 5 5 5 5 2 5 3 0 0 0 1 0 0 0 0 0 0 0 0 0 0 0 0 0 0 0 0 0 46

GFSSGP_prec_cloud_021.txt.gz
Cloud_Cover
78 80 60 78 100 100 94 91 84 100 97 100 32 56 100 100 100 99 100 100 100 100 84 70 12 100 95 5 2 25 5 95 1 0 0 1 3 1 0 1 0 0 0 4 6 5 3 70 99
67 58 51 42 89 94 100 98 88 98 98 41 23 77 98 99 90 100 100 99 97 100 15 5 48 50 0 0 3 9 0 0 0 0 1 6 3 0 5 2 0 2 2 4 3 0 0 51 100
55 44 82 60 6 19 56 90 99 88 47 6 5 89 34 69 65 100 82 100 100 34 3 4 0 0 0 0 0 0 0 0 0 4 0 0 6 4 0 0 0 64 5 0 5 32 4 19 100
68 59 100 80 44 5 58 100 100 100 100 9 5 18 27 71 58 77 68 100 40 0 0 0 1 0 0 0 0 1 0 0 0 0 1 3 2 1 0 0 0 0 0 0 2 97 98 87 92
17 92 93 92 6 5 5 5 5 5 5 34 5 39 93 97 97 85 91 64 0 5 2 1 0 0 0 0 0 0 0 0 0 0 0 0 4 5 0 0 0 0 0 0 0 2 5 5 58
5 61 98 95 26 5 5 4 0 0 5 5 4 19 94 64 55 92 100 100 2 10 30 25 0 0 0 2 0 0 0 0 0 0 3 0 0 2 4 11 0 1 0 1 0 0 0 5 4
5 13 51 8 75 5 4 5 5 5 13 5 4 50 93 97 99 98 100 100 4 19 19 12 0 0 0 1 0 0 0 0 0 0 0 12 5 1 0 0 0 0 0 0 0 0 0 0 0
94 78 38 5 27 87 5 12 6 4 5 33 96 80 100 99 93 100 100 100 20 24 1 30 0 0 0 0 0 0 0 0 0 3 2 83 5 5 0 0 0 1 0 0 0 0 0 0 0
52 88 4 4 5 2 2 4 4 16 32 66 50 72 99 100 100 100 100 100 14 24 9 1 0 0 0 0 0 2 4 4 0 0 0 5 96 0 5 0 0 2 0 0 0 0 0 0 0
5 5 5 3 0 1 4 2 1 2 9 48 14 5 3 9 56 82 100 77 0 0 0 0 0 0 0 0 0 4 5 3 0 1 5 2 1 0 0 0 0 0 0 0 0 0 0 5 5
56 5 5 1 0 5 5 5 5 5 3 28 4 0 0 0 0 0 0 0 0 0 0 0 0 0 0 0 0 29 5 2 0 0 0 0 0 0 0 0 5 0 0 0 0 0 95 90 2
50 14 5 2 2 0 5 5 5 6 5 0 0 0 0 0 0 0 0 0 0 0 0 0 0 0 0 0 4 0 1 0 0 0 0 0 0 0 0 0 0 0 0 0 0 27 31 94 89
5 5 4 0 0 0 5 2 3 26 72 5 0 0 0 0 0 0 0 0 0 0 0 0 0 0 0 4 0 0 0 0 0 0 0 0 0 0 0 0 0 0 0 4 79 57 33 87 55
4 5 0 3 2 5 4 0 0 1 6 65 5 0 0 0 0 0 0 0 0 0 0 0 0 0 0 0 1 0 0 0 0 0 0 0 0 0 0 0 0 0 0 55 83 100 90 100 73
0 4 2 3 5 5 3 0 5 0 0 5 69 5 8 5 0 0 0 0 0 0 0 1 10 6 7 0 2 0 0 0 0 0 0 0 0 0 0 0 0 0 0 6 3 58 20 77 0
0 0 0 3 73 24 6 0 5 5 5 3 12 6 4 0 0 0 0 0 0 0 0 0 0 5 9 3 3 0 0 0 0 0 0 0 1 0 0 0 0 0 0 0 0 0 0 23 0
0 0 0 4 6 92 81 3 5 5 5 0 0 0 0 0 0 0 0 0 0 0 0 0 0 1 0 5 0 0 0 0 0 0 0 0 3 14 0 0 0 0 0 0 0 0 0 0 0
0 0 0 0 5 99 13 1 5 5 5 5 5 3 0 0 0 0 0 0 0 0 0 0 0 0 2 0 1 0 0 0 0 0 0 0 0 0 0 0 0 0 0 0 0 0 0 0 0
0 0 0 5 18 26 5 0 5 5 5 5 5 87 62 0 0 0 0 0 0 0 0 0 0 0 0 0 0 0 0 0 0 0 0 0 0 0 0 0 0 0 0 0 0 0 0 0 2
0 0 0 3 0 0 0 1 5 2 5 25 5 24 99 5 0 0 0 0 0 0 0 0 0 0 0 0 0 0 0 0 0 0 0 0 0 0 0 0 0 0 0 0 0 0 0 0 0
0 0 0 0 0 0 0 0 5 1 5 5 56 6 51 11 0 0 0 0 0 0 0 0 0 0 0 0 0 0 0 0 0 0 0 0 0 0 0 0 0 0 0 0 0 0 0 0 0
0 0 0 0 0 0 0 0 0 5 5 1 82 0 3 4 0 0 0 0 0 0 0 0 0 0 0 0 0 0 0 0 0 0 0 0 0 0 0 0 0 0 0 0 0 0 0 0 0
0 0 0 0 0 1 0 0 0 0 4 0 5 0 0 0 0 0 0 0 0 0 0 0 0 0 0 0 0 0 0 0 0 0 0 0 0 0 0 0 0 0 0 0 5 0 0 0 0
0 0 0 0 0 1 0 0 0 0 2 5 5 4 0 0 0 0 0 0 0 0 0 0 0 0 0 0 0 0 0 0 0 0 0 0 0 0 0 0 0 0 0 0 2 0 0 0 0
0 0 0 0 0 0 0 0 0 0 1 4 5 0 2 0 0 0 0 0 0 0 0 0 0 0 0 0 0 0 0 0 0 0 0 0 0 0 0 0 0 0 0 0 0 0 0 0 0
0 0 0 0 0 0 0 0 0 0 3 5 36 16 1 0 0 0 0 0 0 0 0 0 0 0 0 0 0 0 0 0 0 0 0 0 0 0 0 0 0 0 0 0 0 0 0 0 0
0 0 0 0 0 0 0 0 0 0 0 44 5 5 0 0 0 0 0 0 0 0 0 0 0 0 0 0 0 0 0 0 0 0 0 0 0 0 0 0 0 0 0 0 0 0 0 0 0
0 0 0 0 0 0 0 0 0 0 0 2 5 1 1 0 0 4 5 5 5 5 5 1 0 0 0 0 0 0 0 0 0 0 0 0 0 0 0 0 0 0 0 0 0 0 0 0 0
0 0 0 0 0 0 0 0 0 0 0 0 0 1 5 4 2 4 5 24 90 97 5 4 0 1 0 0 0 0 0 0 0 0 0 0 0 0 0 0 0 0 0 0 0 0 0 0 0
0 0 0 0 0 0 0 0 0 0 0 0 2 41 80 7 99 100 92 82 100 63 93 5 2 0 0 0 0 0 0 0 0 0 2 0 0 0 0 0 0 0 0 0 0 0 0 0 0

GFSSGP_prec_cloud_024.txt.gz
Cloud_Cover
35 40 87 99 100 81 73 69 76 92 87 32 89 58 46 98 63 100 97 100 100 100 100 9 56 100 100 12 0 0 2 0 0 0 0 0 1 0 0 0 1 0 0 2 5 6 39 15 32
44 67 76 70 86 62 75 89 100 79 15 21 24 19 40 99 24 95 83 73 100 86 47 12 16 4 1 2 0 0 0 0 0 0 1 1 4 0 0 0 0 0 0 2 3 5 100 87 5
68 93 95 100 95 82 47 84 88 97 61 40 39 53 74 91 95 76 86 100 100 100 100 16 0 0 0 5 0 0 0 0 0 0 0 0 2 0 4 0 0 0 4 5 4 0 0 5 82
68 100 82 94 100 5 9 13 13 44 87 94 42 18 17 100 96 93 100 100 100 100 96 0 0 0 0 0 0 0 0 1 2 0 0 0 8 7 0 0 0 0 0 5 5 5 8 91 100
100 93 81 92 50 5 73 53 100 100 91 5 6 31 49 100 99 64 100 100 100 100 66 0 0 0 0 0 0 0 0 0 1 0 0 5 3 3 0 0 0 0 0 0 5 5 84 78 53
100 84 92 100 39 5 5 4 37 89 23 5 3 24 69 98 100 68 99 100 100 100 71 0 0 0 0 0 0 0 0 0 0 0 4 4 1 0 0 4 6 0 0 0 0 0 0 0 0
16 12 67 100 40 9 5 0 15 34 5 1 1 14 97 100 95 40 95 100 100 100 83 0 0 0 0 0 0 0 0 0 5 3 98 5 0 0 0 0 0 0 0 0 0 0 0 0 0
7 5 77 55 96 98 77 6 5 33 7 0 0 0 36 90 63 58 100 100 100 100 20 0 0 0 1 0 1 0 0 4 3 68 12 61 0 0 0 0 0 0 0 0 0 0 0 0 0
52 39 100 66 94 4 43 58 90 86 25 3 4 1 18 25 84 74 86 100 100 99 30 0 0 0 1 0 0 0 4 5 4 5 4 0 70 88 87 8 0 0 0 0 0 0 0 0 0
98 35 82 49 4 2 0 0 1 0 0 0 0 0 8 91 25 41 42 39 45 23 40 3 0 0 0 0 0 3 7 0 4 2 2 61 13 38 53 6 0 0 0 0 0 2 6 51 89
33 38 14 1 38 3 4 5 3 0 0 0 0 0 0 0 10 22 9 13 0 3 7 4 0 0 0 0 3 77 5 0 0 0 0 27 39 16 64 60 79 5 6 98 96 100 72 99 93
5 5 4 0 1 2 1 4 5 2 1 0 0 0 0 0 0 0 0 0 0 1 0 0 2 0 0 1 6 0 0 0 0 0 0 4 18 6 4 43 2 0 36 33 19 57 22 37 85
6 5 5 0 0 2 1 0 5 5 4 2 0 0 0 0 0 0 1 0 0 0 0 0 1 1 0 0 0 0 0 0 0 0 0 0 39 14 18 0 4 9 22 96 38 6 7 63 51
5 5 5 2 0 5 0 0 1 2 5 4 2 0 0 0 0 0 0 0 0 0 0 0 0 0 0 0 0 0 0 0 0 0 0 0 14 2 48 26 32 96 88 94 0 1 52 96 72
0 0 5 1 0 0 0 3 5 0 0 5 5 0 0 0 0 0 0 0 0 0 0 0 0 2 9 8 1 0 0 0 0 0 0 0 0 0 4 56 21 80 18 2 6 6 56 15 7
0 0 0 0 5 3 6 82 8 5 2 5 5 3 0 0 0 0 0 0 0 1 1 4 1 2 5 2 2 0 0 0 0 0 1 0 0 1 4 14 3 51 0 1 43 10 1 10 7
0 0 0 3 63 57 38 25 10 5 4 0 1 4 0 0 0 0 0 0 0 11 16 16 4 6 10 16 1 0 0 0 0 0 0 0 0 0 4 8 27 0 56 2 10 9 3 5 5
0 0 0 0 5 70 7 4 28 5 5 0 0 4 0 0 0 0 0 0 0 6 14 18 4 11 9 8 4 0 0 0 0 0 0 0 0 0 0 85 0 0 62 31 19 4 1 4 5
0 0 0 0 1 11 6 5 5 5 5 3 0 5 0 4 0 0 0 0 0 0 5 6 0 11 1 1 0 0 0 0 0 0 0 0 0 7 0 59 0 0 12 20 7 5 4 0 1
0 0 0 0 5 4 7 5 5 5 4 5 0 40 15 6 2 0 0 0 0 0 0 1 0 1 7 0 0 0 0 0 0 0 0 0 0 0 0 77 0 1 20 1 4 0 28 0 0
0 0 0 0 3 1 5 4 5 5 0 5 5 9 27 1 15 0 0 0 0 0 0 0 0 0 1 0 0 0 0 0 0 0 0 0 0 0 0 1 0 9 3 25 8 3 1 18 0
0 0 0 0 2 3 3 7 59 3 5 2 5 3 4 5 0 0 0 0 0 0 0 0 0 2 5 0 0 0 0 0 0 0 0 0 0 0 0 0 0 0 2 13 8 17 3 0 0
0 0 0 0 0 2 0 0 0 1 0 0 2 5 1 0 0 0 0 0 4 0 0 0 0 0 0 0 0 0 0 0 0 0 0 0 0 0 0 0 0 0 0 8 8 11 0 1 0
0 0 0 0 0 0 0 0 0 0 0 0 0 3 4 1 0 0 0 0 0 0 0 0 0 0 0 0 0 0 0 0 0 0 0 0 0 0 0 0 0 0 0 2 24 45 13 0 0
0 0 0 0 0 0 0 0 0 0 0 0 0 5 0 4 0 0 0 0 0 0 0 0 0 0 0 0 0 0 0 0 0 0 0 0 0 0 0 0 0 0 0 0 8 41 17 4 0
0 0 0 0 0 0 0 0 0 0 0 0 5 5 0 0 0 0 0 0 0 0 0 0 4 0 0 0 0 0 0 0 0 0 0 0 0 0 0 0 0 0 0 0 6 20 9 2 0
0 0 0 0 0 0 0 0 0 0 0 0 5 2 0 0 0 0 0 0 0 0 0 0 1 3 0 0 0 0 0 0 0 0 0 0 0 0 0 0 0 0 0 0 2 0 13 0 0
0 0 0 0 0 0 0 0 0 0 0 0 2 0 0 0 0 0 0 0 0 0 0 0 0 0 0 0 0 0 0 0 0 0 0 0 0 0 0 0 0 0 0 0 0 1 5 6 0
0 0 0 0 0 0 0 0 0 0 0 0 0 0 0 0 0 0 0 0 0 0 1 0 0 0 0 0 0 0 0 0 0 0 0 0 0 0 0 0 0 0 0 0 0 0 0 2 0
0 0 0 0 0 0 0 0 0 0 0 0 0 0 0 5 1 1 2 0 0 0 3 5 0 0 0 0 5 0 0 0 0 0 0 0 0 0 4 0 0 0 0 0 0 0 0 0 0

GFSSGP_prec_cloud_027.txt.gz
Cloud_Cover
6 58 84 99 100 97 100 100 100 99 75 82 53 100 89 20 20 84 38 100 100 100 100 99 5 1 34 72 0 0 0 0 0 6 0 1 5 0 0 0 0 3 6 2 2 1 4 5 5
44 98 92 75 99 100 98 92 100 100 96 27 40 79 9 91 48 60 76 100 100 100 100 55 0 0 0 1 0 1 1 0 1 4 0 0 0 0 0 0 3 1 0 4 5 100 71 5 82
100 98 67 100 96 100 94 100 100 62 71 100 55 54 100 97 96 52 70 49 98 84 100 89 0 0 0 0 0 0 0 0 4 0 0 3 1 0 0 16 0 3 0 0 1 25 6 57 78
100 69 56 96 100 82 100 100 100 98 100 100 76 91 25 100 100 100 73 99 98 100 100 100 0 0 0 0 0 0 0 0 4 0 0 0 10 0 1 0 0 5 0 16 31 36 77 99 100
89 53 95 100 100 92 100 82 88 84 94 86 100 83 62 82 100 91 93 99 99 100 100 100 0 0 1 0 0 0 0 2 0 0 0 0 3 0 2 1 0 0 0 0 0 0 0 0 0
100 72 85 100 78 100 94 100 12 94 96 43 61 46 64 100 100 96 95 93 82 84 95 100 0 0 0 0 0 0 0 0 5 3 0 0 1 4 4 1 0 0 0 0 0 0 0 0 0
41 97 100 86 100 84 55 96 100 100 68 38 23 54 84 100 96 98 97 100 69 100 5 97 0 0 0 0 0 0 0 0 5 5 0 0 0 0 0 0 0 0 0 0 0 0 0 0 0
80 96 86 86 98 98 87 86 80 38 67 5 4 6 87 63 99 100 98 100 100 68 0 0 0 0 0 0 0 0 0 0 5 3 0 0 0 0 0 0 0 0 0 0 0 0 0 0 0
0 100 98 100 69 95 94 57 71 48 5 59 74 33 8 33 100 100 100 100 100 100 1 0 0 0 0 0 3 0 0 3 5 0 0 4 100 21 31 0 0 0 0 0 0 0 0 1 8
0 100 99 100 86 61 35 98 5 22 15 19 9 5 9 15 100 100 96 100 91 89 34 12 0 0 0 0 0 0 0 3 22 55 0 100 44 12 38 0 0 0 0 3 41 7 98 96 100
0 93 100 43 91 58 78 97 31 20 18 0 0 0 0 13 21 75 84 96 94 87 19 5 1 0 0 23 5 4 0 30 34 19 25 92 85 35 68 44 78 11 57 9 65 45 62 5 18
5 95 100 99 25 4 62 97 100 68 91 0 0 0 0 0 2 14 17 75 68 34 29 0 0 0 0 15 5 0 23 67 71 0 0 35 75 22 94 100 76 68 93 99 99 100 90 84 2
0 65 43 30 5 5 4 36 100 93 1 0 0 0 0 0 8 26 44 65 58 13 8 3 0 0 5 7 0 21 25 10 84 20 0 26 88 16 82 21 94 66 95 96 0 14 5 0 100
7 5 55 4 5 5 4 5 5 90 27 0 0 0 0 0 0 16 29 17 31 1 2 5 0 0 0 0 4 3 0 25 11 22 0 0 65 24 100 68 99 99 62 53 19 21 94 26 83
8 37 6 5 0 3 1 5 5 86 3 5 0 0 0 0 3 0 1 2 0 0 0 0 0 0 0 0 0 0 0 2 6 4 0 0 0 1 70 88 66 100 24 15 65 24 99 12 61
0 5 20 5 2 5 0 100 99 4 0 4 5 0 0 0 0 0 0 15 8 2 0 0 4 1 1 0 0 0 0 0 1 0 0 0 0 7 2 68 27 100 4 95 100 96 16 84 69
0 0 2 76 6 12 6 42 100 27 0 23 1 0 0 0 0 0 0 0 3 0 8 0 0 5 3 1 0 0 0 0 0 0 0 0 4 5 10 27 92 0 95 47 56 86 18 9 8
0 0 3 4 83 68 86 31 91 39 53 57 0 0 0 0 0 0 0 0 0 4 1 0 6 26 1 16 0 0 0 0 0 0 0 0 1 6 0 48 0 0 100 15 61 24 3 0 5
0 0 0 11 69 24 91 99 100 73 74 100 42 0 0 0 0 0 0 0 0 0 0 0 1 7 24 27 6 0 0 0 0 0 0 0 0 10 17 25 88 0 81 3 0 14 2 19 0
0 0 0 4 7 62 98 100 100 100 68 75 83 0 0 0 0 0 0 0 0 0 0 0 0 0 0 6 0 0 0 0 0 0 0 0 0 1 100 1 1 28 13 10 1 0 62 0 0
0 0 0 4 5 5 95 85 92 99 96 78 56 3 2 0 0 0 0 0 0 0 0 0 0 0 0 1 2 0 0 0 0 0 0 0 0 0 89 11 0 16 4 82 10 0 6 98 0
0 0 0 0 5 5 4 77 94 67 76 34 1 5 0 0 0 0 0 0 0 0 0 0 0 0 0 0 0 0 0 0 0 0 0 0 0 0 0 2 0 0 0 0 4 0 14 4 6
0 0 0 0 0 5 5 18 40 51 10 51 5 2 3 0 0 0 0 0 0 0 0 0 0 0 0 0 0 0 0 0 0 0 0 0 0 0 0 0 2 1 0 0 0 1 0 4 0
0 0 0 0 0 0 0 4 2 84 76 99 46 5 2 0 0 0 0 0 0 0 0 0 0 0 0 0 0 0 0 0 0 0 0 0 0 0 0 0 0 0 0 2 0 0 2 0 0
0 0 0 0 0 0 0 0 0 5 21 5 5 5 5 0 0 0 0 0 0 0 0 0 0 0 0 0 0 0 0 0 0 0 0 0 0 0 0 0 0 0 0 0 1 0 0 0 0
0 0 0 0 0 0 0 0 0 1 5 5 5 5 57 0 0 0 0 0 0 0 0 0 0 0 3 0 0 0 0 0 0 0 0 0 0 0 0 0 0 0 0 0 0 0 8 0 0
0 0 0 0 0 0 0 0 0 0 0 1 4 5 38 8 0 0 0 0 0 0 0 0 0 0 5 0 0 0 0 0 0 0 0 0 0 0 0 0 0 0 0 0 0 0 0 0 0
0 0 0 0 0 0 0 0 0 0 0 0 0 0 0 5 1 0 0 0 0 0 0 0 0 5 5 0 0 0 0 0 0 0 0 0 0 0 0 0 0 0 0 0 0 0 0 0 0
0 0 0 0 0 0 0 0 0 0 0 0 0 0 0 0 0 0 0 0 0 0 0 0 0 0 1 0 0 0 0 0 0 0 0 0 0 0 0 0 0 1 0 0 0 0 0 0 0
0 0 0 0 0 0 0 0 0 0 0 0 0 0 0 0 0 0 0 0 0 0 0 0 0 0 0 0 0 0 0 0 0 0 0 0 0 0 0 0 6 68 0 0 0 0 0 0 0

GFSSGP_prec_cloud_030.txt.gz
Cloud_Cover
12 34 86 63 99 100 100 100 100 100 100 99 42 15 73 57 71 88 16 98 91 100 100 100 100 1 0 0 0 0 0 0 0 0 0 0 0 0 0 0 0 4 6 1 3 6 5 5 5
41 94 74 95 99 100 100 100 100 99 91 70 7 16 6 47 19 5 16 100 82 100 100 100 100 0 0 0 0 0 0 0 0 0 0 0 0 0 0 6 2 0 2 7 98 58 6 5 17
97 63 100 96 100 100 100 100 100 81 15 90 40 15 38 74 5 5 5 50 100 100 97 20 99 0 0 0 0 0 0 0 4 0 0 0 1 0 5 0 0 0 0 4 7 31 100 98 36
98 100 67 100 100 84 100 97 100 6 26 10 31 32 72 43 18 5 12 6 91 72 95 11 82 0 0 0 0 0 0 0 0 0 1 1 0 6 0 0 0 0 1 4 3 1 0 22 0
95 100 86 100 98 100 62 14 16 100 100 100 7 78 93 100 8 5 5 5 5 91 38 0 5 0 0 0 0 0 0 0 0 0 4 2 3 0 0 0 0 0 0 0 0 0 0 0 0
43 59 96 100 100 100 59 52 36 33 30 63 0 11 83 95 4 2 0 2 4 54 3 0 0 2 0 0 0 0 0 0 4 3 2 17 11 0 0 0 0 0 0 0 0 0 0 0 0
95 100 100 100 100 100 89 13 51 57 51 33 3 44 92 100 60 22 27 34 63 37 0 0 9 1 0 0 0 0 0 9 9 0 0 0 0 0 0 0 0 0 0 0 0 0 0 0 0
87 100 100 100 100 90 97 38 5 100 91 2 5 28 92 100 74 28 100 78 11 6 0 0 0 2 0 0 2 0 0 0 0 0 0 4 1 1 0 0 0 0 0 0 0 0 0 0 0
42 100 93 73 97 100 69 44 15 100 5 51 0 0 33 99 100 100 31 87 0 61 0 0 0 0 0 0 0 0 0 0 2 100 100 100 100 100 0 0 0 0 0 0 0 1 19 74 11
50 87 83 88 83 86 10 100 4 2 7 26 6 47 61 99 100 87 100 3 100 93 0 0 0 0 0 0 0 0 0 0 87 100 100 82 3 2 0 0 0 0 18 0 2 3 12 99 4
88 99 100 76 55 91 98 78 93 49 29 32 0 10 37 76 40 99 100 94 20 95 0 0 0 0 0 0 0 0 0 0 100 100 100 100 40 98 32 52 25 31 98 86 97 2 52 94 0
85 92 100 100 51 71 100 100 100 88 100 3 0 0 8 78 100 100 100 100 100 0 84 1 0 5 4 8 0 0 0 77 1 88 2 54 19 100 49 78 98 100 100 52 7 19 12 5 5
62 73 100 88 100 22 67 83 96 47 87 0 0 5 40 30 0 29 48 67 0 0 96 20 0 0 42 93 0 1 100 0 85 3 0 72 8 76 67 78 85 100 100 78 79 25 10 5 91
59 84 100 100 100 8 5 13 0 39 26 0 0 0 8 28 49 41 9 0 23 28 88 0 0 0 9 26 17 100 19 51 96 92 0 0 82 7 6 23 96 26 24 19 34 33 57 79 46
96 100 75 70 56 52 38 80 2 90 41 0 0 0 0 2 3 3 72 48 17 6 59 17 0 0 0 0 0 4 0 73 1 100 0 0 6 18 69 32 33 34 30 28 42 21 96 97 84
17 59 67 23 20 5 8 13 100 27 88 0 0 0 0 0 0 1 34 0 38 2 0 0 0 0 0 0 0 0 0 1 100 12 0 0 0 0 0 78 61 24 100 78 0 5 100 5 100
4 5 1 54 19 8 4 25 100 5 99 1 0 0 0 0 0 0 0 0 0 0 0 0 0 0 0 0 0 0 0 0 1 24 0 0 0 0 0 5 64 0 89 36 46 2 75 80 37
3 5 4 5 99 5 5 40 5 75 72 53 0 0 0 0 0 0 0 0 0 0 0 0 0 0 0 0 0 2 0 0 0 0 0 0 0 0 0 0 12 0 70 0 37 9 0 0 0
4 5 0 5 2 93 6 84 0 15 77 100 44 5 0 0 0 0 0 0 40 0 0 0 0 0 5 0 0 0 0 2 0 0 0 0 1 12 2 0 46 3 20 3 0 0 0 0 0
0 2 3 4 94 59 81 2 26 77 100 100 4 98 2 0 0 0 0 0 0 0 0 0 0 0 0 0 0 0 0 0 0 0 0 0 99 86 0 0 32 59 73 1 0 0 30 2 0
0 0 0 5 11 100 100 83 55 18 60 83 44 6 62 0 0 0 0 0 0 0 0 0 0 0 0 0 0 0 0 0 0 0 0 0 7 100 99 0 0 30 50 19 0 0 0 0 0
0 0 0 5 74 5 33 98 2 4 86 11 35 60 98 0 0 0 0 0 0 0 0 0 0 0 0 0 0 0 0 0 0 0 0 0 0 7 42 0 0 0 4 2 0 0 0 6 5
0 0 0 0 5 84 63 52 87 6 2 22 1 0 81 11 0 0 0 0 0 0 0 0 0 0 0 0 0 0 0 0 0 0 0 0 0 0 0 10 0 0 0 0 0 0 0 0 0
0 0 0 0 0 2 1 34 16 68 1 43 4 5 4 9 21 0 0 0 0 0 0 0 0 0 0 0 0 0 0 0 0 0 0 0 0 0 0 0 0 0 0 0 0 0 0 0 0
0 0 0 0 0 0 0 3 0 13 67 98 89 11 59 1 40 0 0 0 0 0 0 0 0 0 0 0 0 0 0 0 0 0 0 0 0 0 0 0 0 0 0 0 0 0 0 0 0
0 0 0 0 0 0 0 0 0 1 95 62 100 91 65 5 15 3 0 0 0 0 0 0 0 0 0 0 0 0 0 0 0 0 0 0 0 0 0 0 0 0 0 0 0 0 0 0 0
0 0 0 0 0 0 0 0 0 0 0 75 99 100 97 5 97 2 0 0 0 0 0 0 0 0 0 4 4 0 0 0 0 0 0 0 0 0 0 0 0 0 0 0 0 0 0 0 0
0 0 0 0 0 0 0 0 0 0 0 2 2 66 82 5 5 5 0 0 0 0 0 0 0 0 0 5 2 0 0 0 0 0 0 0 0 0 0 0 0 0 2 4 0 0 0 0 0
0 0 0 0 0 0 1 0 0 0 0 0 0 0 5 8 22 5 0 0 0 0 0 0 0 0 0 0 0 0 0 0 0 0 0 0 0 0 0 0 0 0 1 61 22 2 0 0 0
0 0 0 0 0 0 6 93 3 0 0 0 0 0 2 23 97 6 0 0 0 0 0 0 0 0 0 1 5 1 0 0 0 0 0 0 0 0 0 0 0 0 0 0 0 0 0 0 0

GFSSGP_prec_cloud_033.txt.gz
Cloud_Cover
9 6 81 100 100 91 100 100 100 100 89 100 41 46 80 23 73 78 64 96 94 81 59 77 54 99 0 0 0 4 0 0 0 0 0 0 0 0 0 4 4 4 0 1 8 6 5 4 2
73 89 83 100 86 100 100 100 100 100 100 100 80 99 91 6 41 100 55 36 27 5 8 77 55 79 0 0 0 0 0 0 0 0 0 0 0 0 0 1 3 7 9 100 100 5 46 45 5
18 77 66 100 100 100 100 100 99 100 100 76 5 4 5 20 66 74 43 4 0 0 1 41 2 47 0 0 0 0 0 0 0 0 0 0 0 0 5 3 2 0 24 5 13 94 19 5 1
90 100 100 100 96 75 100 97 99 100 49 30 2 3 4 3 5 98 5 3 0 0 0 4 0 1 0 0 0 0 0 0 0 0 0 1 0 8 0 0 1 3 2 4 0 0 0 0 0
86 68 98 100 100 100 100 100 100 99 100 9 2 0 4 1 0 5 5 0 0 0 0 0 0 0 0 0 0 0 0 1 0 0 0 0 0 0 1 0 0 0 0 0 0 0 0 0 0
95 81 100 100 100 100 78 100 100 95 31 5 3 4 36 4 4 5 1 0 0 0 0 0 0 0 0 0 0 0 0 0 0 0 0 0 0 0 0 0 0 0 0 0 0 0 0 0 0
71 42 100 100 100 100 99 100 100 99 4 5 0 18 40 3 0 0 0 0 67 0 0 0 0 0 0 0 0 2 0 0 0 3 4 15 1 0 0 0 0 0 0 0 0 0 0 0 0
72 100 100 100 100 100 100 53 100 42 95 5 1 44 74 0 0 0 0 0 0 0 0 0 0 0 0 0 0 0 0 96 100 100 100 34 79 0 0 0 0 0 0 0 0 1 0 0 0
77 92 100 100 100 100 96 78 92 12 19 0 0 0 0 0 0 0 0 30 0 0 0 0 0 0 0 0 0 0 1 100 94 100 55 5 0 0 0 0 0 0 0 0 0 4 66 30 1
28 67 100 100 100 100 100 100 52 1 21 1 3 3 0 0 0 0 0 97 0 0 0 0 0 0 0 0 0 0 4 96 91 100 100 53 2 88 63 0 9 8 0 48 0 0 1 0 0
22 92 94 100 100 88 86 40 92 89 0 0 0 2 83 1 24 84 0 0 0 0 0 0 0 0 0 0 0 0 99 85 57 100 100 4 32 39 100 75 55 4 10 8 3 2 12 5 4
75 80 100 84 82 77 94 100 100 90 54 1 0 0 20 98 100 42 22 1 0 0 0 0 0 0 0 0 0 0 79 35 15 100 88 4 8 1 96 80 73 58 84 5 0 3 4 10 21
88 8 88 87 49 22 21 29 100 49 3 4 1 0 1 85 99 67 2 6 0 0 0 0 0 0 0 0 0 0 1 2 98 17 11 0 0 2 5 92 38 28 5 21 6 5 5 32 89
1 5 38 91 72 87 34 23 2 17 20 0 0 0 0 0 0 48 2 0 19 0 0 0 0 0 0 0 0 0 53 40 5 25 0 0 64 10 10 68 8 22 2 6 15 5 5 64 28
5 100 100 89 100 100 90 93 5 0 5 2 0 0 0 0 0 0 0 0 0 0 11 0 0 0 0 34 0 0 2 46 59 93 10 0 3 0 0 28 32 0 0 0 0 13 34 99 100
5 90 98 12 12 8 100 74 16 5 5 90 0 0 0 0 0 0 0 0 0 0 0 0 0 0 0 0 0 0 0 31 0 3 23 0 0 3 1 15 41 0 57 0 0 98 42 37 41
4 5 43 75 18 90 27 29 89 100 27 51 60 1 0 0 0 0 0 0 0 0 0 0 0 0 0 0 0 0 0 0 92 66 0 0 0 3 2 8 29 1 16 12 24 6 79 32 2
0 5 4 2 6 70 5 22 8 97 68 96 100 100 73 2 16 0 0 1 0 0 0 0 0 0 0 0 0 0 0 0 4 98 3 0 0 0 5 4 4 1 27 0 19 11 0 0 0
0 0 0 0 2 81 0 1 8 36 2 96 100 100 100 8 1 7 0 22 0 0 0 0 0 0 0 0 0 0 0 0 0 0 0 7 8 5 5 5 36 12 0 0 0 0 0 0 0
0 0 0 2 0 67 26 99 100 90 7 100 100 100 99 100 62 0 0 0 0 0 0 0 0 0 0 0 0 0 0 0 0 0 1 100 25 4 2 61 67 100 32 0 0 0 0 0 0
0 0 0 0 0 10 97 95 100 100 51 100 100 100 76 100 34 0 0 0 0 0 0 0 0 0 0 0 0 0 0 0 0 0 1 95 60 78 4 23 34 4 3 0 0 0 0 0 0
0 0 0 0 2 39 100 94 100 100 93 100 100 100 87 80 42 94 2 0 0 0 0 0 0 0 0 0 0 0 0 0 0 0 0 1 86 100 44 0 0 0 1 0 0 0 0 0 0
0 0 0 0 0 5 74 98 33 100 99 66 98 100 100 43 74 100 0 0 0 0 0 0 0 0 0 0 0 0 0 0 0 0 0 0 0 0 0 1 0 0 0 0 0 0 0 0 0
0 0 0 0 0 2 1 56 40 2 1 5 5 2 0 73 100 100 0 0 0 0 0 0 0 0 0 0 0 0 0 0 0 0 0 0 0 0 0 0 0 0 0 0 0 0 0 0 0
0 0 0 0 0 0 0 1 0 4 0 3 14 29 15 100 100 100 100 0 0 0 0 0 0 0 0 0 0 0 0 0 0 0 0 0 0 0 0 0 0 1 0 0 0 0 0 0 0
0 0 0 0 0 0 0 0 0 0 13 98 94 38 91 28 54 54 94 0 0 0 0 0 0 0 0 0 0 0 0 0 0 0 0 0 0 0 0 0 0 0 0 0 0 0 0 0 0
0 0 0 0 0 0 0 0 0 0 0 5 47 98 99 5 4 0 0 0 0 0 0 0 0 0 0 0 0 0 0 0 0 0 0 0 0 0 0 0 0 0 0 0 5 4 0 0 0
0 0 0 0 0 0 0 0 0 0 0 0 0 95 80 17 4 0 0 0 0 0 0 0 0 0 0 0 0 0 0 0 0 0 0 0 0 0 0 0 0 0 0 0 0 3 1 0 1
0 0 0 0 0 0 0 0 0 0 0 0 0 3 10 12 5 0 0 0 5 0 0 0 0 0 0 0 0 0 0 0 0 0 0 0 0 0 0 0 0 0 0 0 0 0 0 0 0
0 0 0 0 0 0 0 0 0 0 0 0 0 0 5 7 5 0 0 0 5 0 0 0 0 0 0 0 0 0 0 0 0 0 0 0 0 0 0 0 0 0 0 0 0 0 0 0 0

GFSSGP_prec_cloud_036.txt.gz
Cloud_Cover
91 51 33 83 100 91 97 100 100 100 100 100 70 100 100 94 65 24 29 95 24 3 0 0 3 3 0 0 0 0 0 0 0 0 0 0 0 0 0 6 7 4 0 15 9 4 1 5 5
18 97 61 100 97 100 76 100 100 100 59 85 100 100 68 33 69 79 34 4 0 0 0 0 0 0 0 0 0 0 0 0 0 0 0 4 1 0 0 4 0 3 13 78 87 7 83 62 3
62 43 100 98 98 100 100 100 100 96 100 100 100 100 19 80 86 30 4 1 0 0 0 0 0 0 0 0 0 0 0 0 0 2 0 0 0 0 3 0 0 1 4 5 0 0 0 0 0
5 72 57 52 23 100 100 99 100 100 100 100 35 91 5 62 6 2 3 0 0 0 0 0 0 0 0 0 2 0 0 0 0 0 0 1 0 0 0 0 0 0 2 0 0 0 0 2 6
60 79 100 100 100 65 100 92 100 100 100 100 96 83 72 5 1 0 1 0 0 0 0 0 0 0 0 0 0 0 0 0 4 2 13 4 0 2 0 0 2 0 0 0 0 0 0 0 5
19 51 94 100 82 100 100 100 100 100 100 80 4 0 35 0 0 1 0 0 0 0 0 3 0 0 0 3 0 0 5 29 44 98 60 0 0 0 0 0 0 0 0 0 0 0 0 0 5
77 6 66 100 52 88 100 100 100 100 100 100 5 22 50 20 0 0 0 0 0 0 0 0 0 0 0 0 0 0 10 73 11 94 84 0 0 0 0 0 0 2 0 0 0 0 0 0 0
57 31 41 92 100 100 100 100 100 82 86 79 3 14 37 0 0 1 0 0 0 0 0 0 0 0 0 0 0 0 100 97 5 22 58 0 0 0 0 0 0 0 0 0 0 0 0 0 0
5 5 62 98 100 100 100 100 100 100 73 38 5 1 1 0 0 5 40 26 0 2 10 0 0 0 0 0 0 61 100 18 13 2 3 0 0 0 0 0 0 0 0 0 0 0 0 1 5
66 36 80 100 100 100 100 100 100 100 90 5 3 0 0 0 0 0 38 7 0 10 34 0 0 0 0 0 0 59 72 5 5 4 47 71 4 0 0 0 0 0 0 0 0 2 1 4 5
9 5 83 100 99 100 100 91 100 75 98 4 0 1 0 0 0 0 14 0 0 0 0 0 0 0 0 0 0 20 26 3 5 0 0 71 23 5 4 1 5 0 0 0 0 4 5 5 5
6 5 21 59 100 100 100 100 100 86 50 4 0 0 0 0 0 0 0 0 0 0 0 0 0 0 0 0 0 57 31 24 5 4 0 1 5 25 5 0 0 9 5 5 5 6 42 5 1
4 6 5 95 100 52 6 61 5 54 88 4 4 0 0 0 0 0 0 0 0 0 0 0 0 0 0 0 0 50 46 56 2 0 0 1 2 0 0 0 2 3 5 56 5 5 16 5 4
0 2 19 99 40 23 18 32 34 90 84 92 20 0 0 0 0 0 0 0 0 0 0 0 0 0 0 0 0 10 40 39 4 21 0 0 1 0 0 0 0 10 1 16 24 5 5 5 5
4 3 3 62 100 57 78 9 0 25 14 7 5 0 0 0 0 0 0 0 0 0 0 0 0 0 0 0 0 0 8 5 0 31 0 0 4 0 0 0 0 0 0 0 0 43 2 23 47
4 0 0 3 24 80 73 28 56 4 26 7 5 0 0 0 0 0 0 0 0 0 0 0 0 0 0 0 0 0 0 0 1 43 0 0 0 0 0 0 0 0 0 12 0 21 3 31 65
4 0 0 5 5 100 56 86 10 0 1 5 5 45 63 4 4 0 0 0 0 0 0 0 0 0 0 0 0 0 0 0 0 0 0 4 2 1 0 0 1 0 0 0 1 9 0 0 47
0 0 4 3 5 100 100 59 15 0 0 1 6 100 90 27 12 8 0 0 0 0 0 0 0 0 0 0 0 0 0 0 0 13 2 5 13 37 5 1 0 0 0 0 0 0 0 0 0
0 0 0 0 0 5 94 100 61 1 0 0 92 100 16 17 1 12 2 0 0 0 0 0 0 0 0 0 0 0 0 0 0 0 26 5 52 40 53 4 5 4 0 0 0 0 0 0 0
0 0 0 0 3 6 19 94 53 1 0 2 60 100 100 68 5 0 0 0 0 0 0 0 0 0 0 0 0 0 0 0 0 0 3 63 6 3 7 33 26 7 5 2 0 0 0 0 0
0 0 0 0 2 5 86 100 100 5 5 6 87 100 75 100 94 2 97 19 0 0 0 0 0 0 0 0 0 0 0 0 2 0 90 17 38 34 5 74 38 0 0 0 0 0 0 0 0
0 0 0 0 0 0 69 100 76 96 5 5 34 100 93 98 98 42 20 5 0 0 0 0 0 0 0 0 0 0 0 0 0 0 12 48 33 58 8 3 0 0 3 0 0 0 0 0 0
0 0 0 0 0 0 5 53 9 5 1 0 6 100 100 100 5 69 18 12 0 0 0 0 0 0 0 0 0 0 0 0 0 0 0 1 6 73 41 4 0 0 0 0 0 0 0 0 0
0 0 0 0 0 5 4 4 4 2 0 0 93 100 100 100 98 82 99 50 4 0 0 0 0 0 0 0 0 0 0 0 0 0 0 0 2 0 0 3 0 0 0 0 0 0 0 0 0
0 0 0 0 0 0 0 4 0 0 3 3 4 99 100 100 99 100 74 31 4 0 0 0 0 0 0 0 0 0 0 0 0 0 0 0 0 0 0 0 0 0 0 0 0 0 0 0 0
0 0 0 0 0 0 0 0 0 3 5 2 0 0 17 32 58 89 100 5 35 1 0 0 0 0 0 0 0 0 0 0 0 0 0 0 0 0 0 0 0 0 0 0 0 0 0 0 0
0 0 0 0 0 0 0 0 0 0 0 0 3 5 5 0 0 38 3 100 14 79 0 0 0 0 0 0 0 0 0 0 0 0 0 0 0 0 0 0 0 0 0 0 0 0 0 0 0
0 0 0 0 0 0 0 0 0 0 0 0 0 0 0 3 4 5 3 91 66 17 0 0 0 0 0 0 0 0 0 0 0 0 0 0 0 0 0 0 0 0 0 0 0 0 0 0 4
0 0 0 0 0 0 0 0 0 0 0 0 0 0 0 0 5 4 0 4 2 0 0 0 0 0 0 0 0 0 0 0 0 0 0 0 0 0 0 0 0 0 0 0 0 0 0 0 0
2 0 0 0 0 0 0 0 0 0 0 0 0 0 0 0 1 2 0 4 0 0 0 0 0 0 0 0 0 0 0 0 0 0 0 0 0 0 0 0 0 0 0 0 0 0 0 0 0

GFSSGP_prec_cloud_039.txt.gz
Cloud_Cover
99 82 70 92 100 99 100 80 100 100 100 100 99 100 100 100 90 26 32 2 2 0 0 10 0 0 38 0 6 0 3 0 0 9 0 0 0 0 0 2 14 0 2 4 7 71 5 3 16
63 87 99 100 93 92 100 100 100 100 100 100 100 100 100 100 99 98 69 4 0 0 0 0 0 0 4 0 0 0 0 1 0 5 1 0 1 0 6 3 1 1 1 13 75 17 3 10 0
94 100 100 100 100 100 100 100 100 89 100 100 100 100 100 100 96 54 11 11 8 3 0 0 0 0 0 0 0 0 6 0 2 2 6 0 0 6 2 3 0 1 0 2 9 0 0 1 10
47 40 100 98 96 100 100 100 97 100 100 100 100 100 100 100 26 8 16 23 3 4 0 0 0 0 0 0 0 0 0 0 5 5 3 0 0 0 0 0 0 19 10 5 0 0 0 20 5
96 86 100 96 100 94 72 96 100 100 100 100 100 100 100 96 0 9 28 4 5 0 0 0 0 0 0 0 0 0 0 6 97 85 0 15 1 41 0 1 14 1 0 0 0 0 1 5 3
65 24 100 88 55 100 100 100 100 100 100 100 100 100 93 30 14 1 1 0 0 1 0 0 0 0 3 0 2 4 18 19 100 68 0 0 12 1 3 0 5 0 0 0 0 0 0 5 5
42 46 85 8 57 100 100 100 100 100 100 100 100 100 100 93 0 0 0 0 0 0 0 0 0 0 0 0 1 23 32 46 100 100 0 0 0 0 0 0 4 0 0 0 0 0 0 0 0
37 5 6 5 48 100 100 100 100 100 100 94 100 100 98 52 4 0 0 0 0 12 0 1 0 0 0 0 2 42 74 40 23 3 0 0 0 0 0 0 0 0 0 2 0 2 0 1 0
99 25 24 98 100 100 100 100 100 100 100 99 82 22 22 2 2 0 1 34 20 52 22 12 2 0 0 0 30 19 100 7 3 2 0 0 0 0 0 0 0 0 1 4 3 5 5 5 3
7 5 35 85 79 100 100 100 100 100 100 96 100 5 14 0 0 1 40 99 37 80 75 16 12 10 0 0 50 81 39 5 36 78 2 3 4 4 0 0 0 0 4 5 5 5 5 5 1
13 21 98 99 98 100 100 100 100 100 100 100 61 22 5 0 0 2 52 61 8 36 79 22 7 4 1 0 27 56 10 5 2 14 7 16 0 1 0 1 0 5 8 5 5 3 5 3 0
7 70 86 100 100 96 100 94 89 52 100 76 5 57 49 0 0 2 21 18 2 24 33 6 0 2 0 0 27 30 5 1 0 0 3 5 0 0 4 0 5 2 5 5 5 5 5 0 0
8 100 89 99 100 100 97 100 100 100 100 37 18 2 4 0 0 0 0 0 0 0 0 0 0 0 0 2 11 66 2 0 0 4 1 0 0 1 1 0 0 0 0 5 5 5 5 0 30
98 100 67 46 100 100 100 100 100 99 42 17 8 9 5 0 0 0 0 0 0 0 0 0 0 0 0 0 1 22 5 0 0 3 2 0 0 3 0 0 0 0 0 0 0 1 2 0 0
11 57 5 5 9 59 100 3 6 5 5 5 6 0 0 0 0 0 0 0 0 0 0 0 0 0 0 0 4 19 28 0 0 0 0 0 0 0 0 0 0 0 0 0 0 3 53 0 10
1 49 4 3 0 29 41 4 5 4 3 63 6 0 0 4 0 0 0 0 0 0 0 0 0 0 0 0 0 5 0 0 0 0 0 0 0 0 0 0 0 0 0 0 10 0 95 7 39
0 0 2 8 5 6 58 6 100 29 5 0 2 4 0 89 0 0 0 0 0 0 0 0 0 0 0 0 0 1 3 0 0 0 0 0 0 0 0 0 0 0 0 0 0 41 0 77 0
0 0 0 5 2 1 89 95 5 0 4 5 5 5 6 24 1 3 0 0 0 0 0 0 0 0 0 0 0 0 0 0 0 0 0 4 4 2 0 2 0 0 0 0 0 0 0 0 0
0 0 0 3 12 5 5 5 5 0 0 0 5 5 8 12 0 0 0 0 0 0 0 0 0 0 0 0 0 0 0 0 0 0 0 5 5 5 5 23 98 2 0 0 0 0 0 0 0
0 0 0 0 36 4 5 4 0 1 0 0 5 14 36 8 5 3 7 0 0 0 0 0 0 0 0 0 0 0 0 0 0 0 2 49 7 5 5 25 65 5 0 0 0 0 0 0 0
0 0 0 0 88 8 6 22 0 10 0 2 3 54 22 50 9 49 6 16 0 0 0 0 0 0 0 0 0 0 0 0 0 0 0 5 7 6 56 100 12 1 1 0 0 0 0 0 0
0 0 0 0 37 16 5 5 5 0 0 0 2 5 13 5 5 5 3 3 3 0 0 0 0 0 0 0 0 0 0 0 0 0 16 5 63 100 100 19 0 0 0 0 0 0 0 0 0
0 0 0 0 2 86 27 19 7 2 3 0 0 55 33 5 4 4 5 2 14 6 0 0 0 0 0 0 0 0 0 0 0 0 9 8 23 69 36 5 5 0 0 0 0 0 0 0 0
0 0 0 0 0 4 4 20 5 1 0 0 0 8 88 94 13 74 89 27 5 12 2 0 0 0 0 0 0 0 0 0 0 0 0 68 51 95 36 10 3 0 0 0 0 0 0 0 0
0 0 0 0 1 0 0 4 0 0 0 0 0 5 2 25 93 100 100 77 4 2 5 1 0 0 0 0 0 0 0 0 0 0 0 1 4 3 0 0 0 0 0 0 0 0 0 0 0
0 0 0 0 0 0 0 0 0 0 0 0 0 4 1 5 9 49 93 30 5 5 5 0 0 0 0 0 0 0 0 0 0 0 0 0 0 0 0 0 0 0 0 0 0 0 0 0 0
0 0 0 0 0 0 0 0 0 0 0 0 0 0 0 4 8 97 94 10 6 5 5 9 5 0 0 0 0 0 0 0 0 0 0 0 0 0 0 0 0 0 0 0 0 0 0 1 1
0 0 0 0 0 0 0 0 0 0 0 0 0 0 0 3 22 91 58 6 1 61 96 5 5 24 0 0 0 0 0 0 0 0 0 0 0 0 0 0 0 0 0 0 0 2 0 0 7
0 5 0 0 0 0 0 0 0 0 0 0 0 0 0 0 4 55 53 0 0 4 0 67 54 22 4 0 0 0 0 0 0 0 0 0 0 0 0 0 0 0 0 0 0 0 0 0 0
5 4 75 0 0 0 0 0 0 0 0 0 0 0 0 4 5 6 74 26 5 0 1 5 5 0 0 0 0 0 0 0 0 0 0 0 0 0 0 0 0 0 0 0 0 0 0 0 0

GFSSGP_prec_cloud_045.txt.gz
Cloud_Cover
100 95 25 97 76 97 78 25 16 23 76 100 97 100 74 95 100 100 100 2 40 16 0 0 0 3 6 1 6 10 1 5 0 15 9 5 5 1 7 0 0 0 3 0 2 0 4 8 10
100 89 77 100 100 99 83 27 57 100 100 97 75 100 48 100 95 100 100 1 30 0 3 4 0 0 2 1 0 1 5 1 4 1 9 3 4 0 3 2 6 5 0 8 2 6 5 15 93
79 71 94 100 100 99 86 27 100 96 83 100 100 87 98 96 100 100 100 63 0 0 8 3 0 4 14 0 0 10 5 2 2 4 5 23 5 30 6 6 14 1 0 6 14 5 91 100 100
100 53 100 100 100 100 100 100 100 84 100 100 99 100 100 100 100 100 100 100 0 0 0 0 0 1 0 8 4 1 46 8 0 0 0 0 0 0 0 0 2 5 2 1 5 5 22 62 73
87 50 99 45 100 100 94 100 75 100 97 100 100 100 100 99 74 95 79 90 0 0 7 1 0 3 6 14 0 9 5 2 3 7 2 0 3 0 0 0 2 6 2 5 3 5 92 96 100
74 93 88 100 100 87 55 99 100 100 100 100 100 100 100 100 79 81 55 11 0 0 0 16 0 0 0 0 1 15 6 4 1 0 0 1 1 0 2 5 5 5 0 3 5 86 58 85 34
84 86 17 9 100 65 60 74 70 100 100 97 100 91 99 100 98 74 97 33 0 0 2 31 0 0 1 6 0 6 7 4 0 0 0 0 2 0 38 76 22 5 1 5 5 5 5 4 0
53 5 30 73 50 67 74 100 100 100 100 100 53 63 100 100 100 100 100 56 11 0 29 28 3 18 35 3 3 0 1 2 2 1 0 1 2 5 5 5 2 0 0 0 0 0 0 0 2
66 80 46 85 46 61 85 89 93 98 90 74 92 100 99 100 100 100 87 31 30 23 36 2 22 11 27 19 7 2 3 3 5 0 0 2 5 5 5 5 1 7 11 5 2 0 0 0 0
30 19 10 5 11 33 53 81 75 88 100 100 99 100 56 100 100 100 65 12 0 20 26 6 0 0 20 33 15 20 2 1 1 1 0 0 0 0 5 5 0 2 5 1 2 0 0 0 0
16 5 5 5 18 58 93 58 75 73 100 74 9 27 91 55 100 53 18 0 0 5 22 22 0 14 1 24 12 18 1 0 0 0 0 0 0 0 0 4 5 0 0 0 0 0 0 0 0
18 34 9 73 15 55 99 75 100 95 66 15 2 2 6 31 98 10 2 0 2 87 45 30 0 8 1 5 0 0 0 0 0 0 0 0 0 0 0 0 0 0 0 0 0 0 0 0 0
6 92 47 100 5 58 98 94 98 84 90 85 96 100 100 100 72 100 16 0 0 4 18 9 0 1 0 14 0 0 0 0 0 0 0 0 0 0 0 0 0 0 0 0 0 0 0 0 0
6 67 68 94 16 8 95 90 100 100 74 71 70 96 100 100 100 79 1 0 0 0 0 0 0 0 0 0 0 0 0 0 0 0 0 0 1 0 0 4 0 0 0 0 0 0 0 25 0
4 22 5 48 5 17 84 62 100 100 98 48 57 98 100 28 8 3 0 0 0 0 0 0 0 0 2 0 0 0 0 0 0 0 0 0 0 0 0 3 0 0 0 0 0 0 0 0 0
1 5 5 53 27 5 11 67 4 86 92 61 18 78 0 0 1 0 0 0 0 0 0 0 0 0 0 0 0 0 0 0 0 0 0 0 0 0 0 0 0 0 0 0 0 0 2 100 10
0 5 58 26 82 47 69 10 2 3 36 100 92 23 0 0 0 0 0 0 0 0 0 0 0 0 0 0 0 0 0 0 0 0 0 0 0 0 0 0 0 0 0 3 0 0 1 70 0
0 1 5 15 7 6 53 26 5 4 96 8 0 0 0 0 0 0 0 0 0 0 0 0 0 0 0 3 0 0 0 0 0 0 0 0 0 2 0 0 0 0 0 0 0 0 0 0 0
0 0 5 52 5 5 88 18 77 5 5 5 0 5 3 0 0 0 0 0 0 0 0 0 0 0 0 3 0 0 0 0 0 0 0 0 0 0 0 0 0 0 0 0 0 0 0 0 0
0 0 0 97 37 9 15 5 41 5 5 5 5 5 1 6 1 0 0 0 0 0 0 0 0 0 0 0 0 0 0 0 0 0 0 0 0 0 3 0 1 0 0 1 0 0 0 0 0
0 0 0 12 17 81 5 4 5 30 24 5 3 3 4 12 50 0 0 0 0 0 0 0 0 0 0 0 0 0 0 0 0 0 0 4 0 0 0 0 0 0 24 1 0 0 0 0 0
0 0 0 0 8 35 48 1 5 13 50 2 0 0 0 5 4 1 0 0 1 0 0 0 0 0 0 0 0 0 0 0 0 0 1 4 1 0 0 0 4 0 0 4 0 0 0 0 0
0 0 0 0 0 5 6 11 0 5 2 4 0 0 2 0 0 2 1 0 0 1 0 0 0 0 0 0 0 0 0 0 0 0 0 5 0 0 0 0 0 0 0 0 0 0 0 0 0
0 0 0 0 0 3 1 5 0 0 2 5 3 0 3 5 4 5 4 1 0 0 0 1 0 0 0 0 0 0 0 0 0 0 0 0 1 1 2 0 0 0 0 0 0 0 0 0 0
0 0 0 0 0 0 0 2 0 0 0 0 0 1 4 5 4 4 2 2 0 5 4 2 0 1 0 0 0 0 0 0 0 0 0 4 0 3 3 2 0 0 0 0 0 0 0 0 0
0 0 0 0 0 0 0 0 0 0 0 0 0 23 97 5 5 5 4 3 7 1 2 0 0 3 0 0 0 0 0 0 0 0 0 0 0 1 0 0 0 0 0 0 0 0 0 0 0
0 0 0 0 0 0 0 0 0 0 0 0 0 42 27 57 5 3 3 5 5 0 0 0 0 5 5 9 0 0 0 0 0 0 0 0 0 5 0 0 0 0 0 0 0 0 0 0 0
0 0 0 0 0 0 0 0 0 0 0 0 0 5 68 100 15 5 4 5 12 1 0 0 0 0 2 9 32 0 0 0 0 0 0 0 0 0 0 0 0 0 0 0 0 0 0 0 0
0 0 0 0 0 0 0 0 0 0 0 0 0 2 15 8 22 5 5 4 4 0 0 0 0 0 5 0 5 1 0 0 0 0 0 0 0 0 0 0 0 0 0 0 0 0 0 0 0
0 0 0 8 2 0 0 0 0 0 0 0 0 6 13 68 17 5 5 5 3 0 0 0 0 0 5 2 3 1 2 0 0 0 0 0 0 0 0 0 0 0 0 5 5 3 0 0 0

GFSSGP_prec_cloud_048.txt.gz
Cloud_Cover
44 6 29 68 86 52 28 88 42 58 46 64 100 100 87 92 100 100 100 100 90 97 26 5 0 0 2 0 5 5 5 1 5 3 3 3 3 18 0 0 0 0 2 1 6 3 10 14 5
78 29 76 71 99 100 89 84 99 84 93 85 68 100 32 100 97 92 100 100 93 15 1 0 0 1 13 6 3 5 3 3 2 9 3 0 3 15 0 0 0 0 7 0 4 13 14 12 77
39 65 94 100 99 100 98 74 83 89 84 100 96 67 58 100 73 47 82 96 34 15 0 0 0 6 5 5 2 7 0 4 8 4 0 2 2 6 13 1 3 0 2 5 5 5 6 81 100
91 39 100 99 54 94 100 71 95 100 100 100 100 100 100 80 37 50 62 100 76 18 0 0 0 0 46 5 9 4 6 0 3 0 0 0 6 0 1 3 4 2 0 5 5 56 27 47 100
78 69 99 99 96 100 100 68 74 100 96 89 100 98 98 94 97 91 98 100 100 0 0 0 1 5 14 11 0 14 0 0 6 0 2 3 3 0 0 19 4 4 5 8 5 5 53 99 90
95 84 75 94 98 100 100 99 80 100 99 100 87 98 100 96 100 72 92 100 67 2 0 0 5 0 3 0 12 4 3 1 0 0 0 1 0 0 4 4 4 5 5 5 5 5 5 5 5
90 64 63 50 10 84 91 66 94 100 100 100 96 100 82 97 100 98 100 88 4 0 2 0 5 2 14 0 0 5 0 0 4 0 0 0 0 0 5 5 5 1 0 3 5 5 4 0 15
31 42 17 7 82 65 100 58 98 100 100 100 100 93 90 85 100 100 97 29 2 13 17 1 2 7 36 0 7 0 0 4 0 0 0 0 2 5 5 1 0 4 0 0 0 5 5 0 0
24 33 41 59 43 43 44 44 82 97 100 100 49 9 58 70 100 100 82 62 20 12 30 0 11 27 59 37 1 0 0 2 0 0 0 6 12 5 22 6 0 0 0 0 0 0 1 5 3
8 5 18 42 74 75 6 77 100 11 54 86 87 93 95 98 96 97 97 27 25 20 29 0 27 27 17 30 19 28 4 3 14 8 22 27 7 2 2 0 0 0 0 0 2 0 0 93 48
4 5 6 7 25 11 19 90 78 74 83 84 5 83 100 42 79 97 98 98 4 0 0 0 14 27 15 33 20 20 32 22 15 29 15 7 26 0 60 10 30 22 2 78 26 39 97 43 96
0 4 8 50 8 44 85 93 47 99 97 100 5 6 19 8 100 100 43 3 0 0 0 0 0 18 80 45 26 15 0 0 0 0 0 0 34 0 9 98 7 35 91 9 63 8 0 0 2
0 32 41 17 99 58 43 90 100 100 72 93 9 5 5 98 32 93 2 1 0 0 0 0 0 10 45 48 27 10 4 9 4 0 0 2 51 24 48 10 79 65 26 5 27 3 0 0 0
0 6 85 18 100 100 100 100 100 84 99 66 16 6 13 1 71 11 0 0 0 0 0 0 0 1 20 43 18 47 33 34 0 1 0 0 66 53 15 0 29 75 40 46 53 0 29 36 16
0 3 6 8 70 84 88 21 99 91 70 56 80 76 28 61 12 0 0 0 0 0 0 0 0 0 1 12 4 1 7 1 21 25 0 0 40 88 0 10 3 54 0 0 0 1 2 88 62
0 0 5 7 88 20 5 100 20 94 100 100 66 56 69 21 2 0 0 0 0 0 0 0 0 0 0 0 0 0 6 28 54 60 5 0 0 38 10 2 6 5 0 1 78 80 66 4 35
0 0 0 5 5 23 5 100 5 11 100 100 100 100 22 67 17 1 0 3 0 0 0 0 0 0 0 0 0 0 0 12 32 27 38 0 0 0 26 78 65 0 8 52 99 70 66 54 41
0 0 0 5 5 7 44 77 5 2 0 6 72 69 57 2 0 0 0 0 0 0 0 0 0 0 0 0 0 0 0 0 0 4 26 0 0 0 0 52 0 42 0 0 77 12 3 96 80
0 0 0 5 84 100 91 100 8 3 0 0 0 0 3 0 0 0 0 0 0 0 0 0 0 0 0 0 0 0 0 0 0 0 0 0 0 0 0 18 4 0 25 59 0 0 0 9 2
0 0 0 5 99 11 100 42 56 5 5 0 0 0 0 0 0 0 0 0 0 0 0 0 0 0 0 0 0 0 0 0 0 1 0 0 0 0 4 4 3 30 15 0 0 0 0 0 0
0 0 0 18 5 5 42 100 100 10 5 2 1 0 0 0 0 0 0 0 0 0 0 0 0 0 0 0 0 0 0 0 0 0 0 0 0 0 0 2 6 5 7 6 0 2 1 14 0
0 0 0 0 5 6 3 33 7 34 5 5 1 0 0 0 0 0 0 0 0 0 0 0 0 0 0 0 0 0 0 0 0 0 3 0 0 3 0 89 1 21 49 0 4 0 0 4 0
0 0 0 0 4 51 55 31 92 26 5 5 2 0 0 1 4 0 0 0 0 0 0 0 0 0 0 0 0 0 0 0 0 0 3 0 0 0 0 57 5 0 0 4 11 0 0 0 10
0 0 0 0 0 25 4 55 5 63 20 5 5 4 0 0 4 0 0 0 0 0 0 0 0 0 0 0 0 0 0 0 0 0 0 0 0 0 0 0 0 0 0 0 2 0 0 0 0
0 0 0 0 0 0 0 4 5 63 57 5 5 5 2 5 4 0 5 0 0 0 0 1 0 0 0 0 0 0 0 0 0 0 0 0 0 0 0 0 0 0 0 1 6 0 8 0 0
0 0 0 0 0 0 0 0 0 0 1 5 59 5 5 5 5 2 1 0 0 0 0 0 2 2 0 0 0 0 0 0 0 0 0 0 0 0 0 0 0 0 0 0 0 0 4 7 0
0 0 0 2 5 0 0 0 0 0 0 0 5 5 1 0 5 5 2 0 0 0 0 0 0 2 4 0 0 0 0 0 0 0 0 0 0 0 0 0 0 0 0 0 2 0 9 8 4
0 0 21 1 20 0 0 0 0 0 0 0 4 18 4 0 60 5 5 0 0 0 0 0 0 0 2 0 0 0 0 0 0 0 0 0 0 0 0 0 0 0 0 0 0 0 3 15 18
0 0 28 52 1 0 2 0 0 0 0 0 0 0 0 0 5 18 7 5 3 0 0 0 0 0 0 0 0 0 0 0 0 0 0 0 0 0 0 0 0 0 0 0 0 0 0 6 5
0 0 0 7 6 0 17 45 3 0 0 0 0 0 0 3 46 60 5 49 4 0 0 0 0 0 0 0 0 0 0 0 0 0 0 0 0 0 0 0 0 0 0 0 0 0 0 0 0

GFSSGP_prec_cloud_051.txt.gz
Cloud_Cover
5 4 72 99 95 98 92 100 100 93 100 97 60 100 100 95 100 68 100 100 100 100 21 10 0 0 29 64 5 4 2 1 8 5 5 1 34 1 4 3 1 7 1 3 1 7 21 3 9
25 72 63 96 100 100 84 99 89 98 95 98 100 100 75 95 82 68 99 100 100 82 14 7 0 3 66 10 12 5 1 5 5 5 2 4 3 10 9 0 0 4 3 5 4 6 47 86 39
74 71 100 100 45 100 100 99 100 84 97 100 83 100 92 100 76 100 17 100 100 6 1 0 1 4 80 5 12 8 3 4 5 4 2 0 3 4 4 0 0 3 5 5 5 78 83 71 100
8 32 67 100 96 64 98 88 100 98 100 100 100 100 100 100 100 93 89 100 95 14 9 0 1 0 52 2 33 4 8 0 0 7 1 3 3 0 3 6 3 5 5 5 96 15 54 100 90
66 92 96 90 93 100 80 100 98 100 100 100 100 100 54 100 100 97 91 100 100 82 49 0 0 1 1 1 5 5 12 2 1 1 2 1 4 0 4 0 4 5 5 5 39 5 38 99 100
100 63 67 99 100 100 100 87 38 100 100 100 100 99 100 99 100 100 89 100 100 82 0 0 0 7 5 0 0 2 0 1 4 6 4 4 0 4 0 0 0 4 5 5 4 5 4 0 11
60 44 76 100 100 61 97 100 88 100 100 100 100 100 100 96 100 100 100 99 100 20 2 0 0 3 0 9 7 4 2 1 14 2 0 0 0 0 0 0 0 2 5 5 5 0 4 0 0
100 100 100 100 100 100 97 100 100 95 100 100 100 100 97 54 100 100 100 100 100 91 0 0 3 21 3 4 4 2 2 3 0 0 1 0 0 0 0 0 0 0 5 2 0 0 0 0 0
39 93 66 100 100 93 7 14 24 66 100 100 100 100 11 95 100 90 97 100 100 89 18 2 2 17 100 24 5 0 0 0 0 0 0 11 12 60 11 0 0 5 1 5 0 0 0 0 0
8 61 100 100 96 100 41 6 44 72 74 91 100 99 35 100 100 100 98 63 96 40 13 18 6 5 98 24 1 25 0 0 25 11 32 100 100 8 0 0 0 2 0 0 0 0 100 99 69
2 57 96 99 99 100 69 5 99 98 71 8 34 53 85 99 98 100 96 73 79 22 20 24 86 20 40 0 10 84 28 90 48 13 96 6 11 17 89 0 6 17 81 50 0 91 74 100 58
14 42 5 100 26 94 95 59 90 98 100 11 14 12 67 73 46 100 59 68 81 29 4 47 14 40 98 19 14 47 97 28 12 11 48 12 100 99 93 13 10 96 66 25 100 28 12 95 100
0 75 44 27 78 89 84 74 98 25 98 59 6 19 54 98 94 54 65 46 13 9 0 24 0 100 31 100 99 73 40 28 43 0 15 100 95 75 88 20 87 95 62 47 71 7 90 0 26
0 0 90 53 7 91 5 9 18 68 62 5 5 9 15 72 49 32 22 8 2 0 0 0 0 4 98 100 40 37 14 99 10 23 100 70 100 87 12 26 96 52 100 100 58 89 89 81 69
0 0 11 57 88 100 74 100 82 100 87 8 17 85 44 96 70 37 11 0 0 0 0 0 0 20 57 100 15 99 100 21 100 95 97 100 27 0 58 88 0 99 15 1 0 1 100 7 69
0 0 11 49 44 55 90 100 92 20 5 11 94 40 51 81 94 34 13 3 0 0 0 0 0 4 21 90 82 75 99 55 100 91 94 100 80 0 2 58 50 88 51 100 67 100 50 53 56
0 0 0 5 5 31 98 100 100 39 48 29 82 99 75 70 100 28 13 0 0 0 0 0 0 0 0 1 17 90 37 100 98 100 41 11 91 51 60 88 23 64 4 83 11 20 47 34 10
0 0 0 3 6 41 90 100 100 40 39 30 97 39 42 69 88 36 7 0 0 0 0 0 0 1 0 8 8 48 45 100 100 100 100 0 10 16 62 18 0 12 6 93 46 78 100 13 100
0 0 0 4 23 15 10 100 100 100 72 0 2 33 97 5 44 24 11 0 0 0 0 0 0 0 0 0 0 19 49 100 98 100 58 0 10 1 46 36 5 31 64 54 0 0 0 36 6
0 0 0 0 56 43 55 99 100 66 1 0 0 0 0 1 15 27 6 0 0 0 0 0 0 0 0 0 0 3 19 40 93 70 1 21 34 1 0 70 68 85 62 0 0 63 80 29 89
0 0 0 1 5 6 45 28 86 100 3 2 0 0 0 0 0 6 13 1 0 0 0 0 0 0 0 0 0 2 0 38 8 99 6 15 37 21 36 84 66 4 54 45 0 0 25 69 20
0 0 0 0 9 5 6 59 5 94 97 0 0 0 0 0 0 0 3 2 0 0 0 0 0 0 0 0 0 0 0 0 0 23 47 36 0 27 87 7 56 100 21 97 37 36 34 91 11
0 0 0 0 0 1 41 55 99 12 59 86 2 0 0 0 0 0 0 0 0 0 0 0 0 0 0 0 0 0 0 0 0 12 63 30 1 0 92 68 2 0 4 3 24 27 0 5 93
0 0 0 0 0 0 0 37 5 100 63 97 25 19 0 0 0 0 0 0 3 4 0 0 0 0 0 0 0 0 0 0 0 0 12 0 7 0 1 0 3 2 6 4 0 0 0 5 10
0 0 0 0 0 0 0 0 2 79 39 100 57 5 1 0 0 0 0 0 0 0 0 0 0 0 0 0 0 0 0 0 0 0 0 0 1 13 0 0 0 1 0 8 19 0 7 0 0
0 0 0 0 0 0 0 0 0 5 71 77 100 14 13 0 0 0 0 0 0 0 0 0 0 0 0 0 0 0 0 0 0 0 0 0 0 0 8 0 0 2 26 1 11 0 0 0 0
5 26 0 0 4 0 0 0 0 0 3 83 98 83 99 21 0 0 5 0 0 0 0 0 0 0 0 0 0 0 0 0 0 0 0 0 0 1 0 0 0 0 0 5 9 0 0 77 0
0 0 16 2 10 2 12 1 0 0 0 0 12 7 20 100 10 0 5 0 0 0 0 0 0 0 0 0 0 0 0 0 0 0 0 0 0 0 73 0 0 0 0 0 0 4 0 0 0
0 0 2 94 26 2 6 5 5 4 0 0 0 1 2 35 29 0 3 2 4 1 0 0 0 0 0 0 0 0 0 0 0 0 0 0 0 0 0 0 0 0 0 0 0 0 40 0 0
0 0 0 4 5 5 2 5 53 88 20 0 0 5 4 6 97 5 2 5 5 5 1 0 0 0 0 0 0 0 0 0 0 0 0 0 0 0 0 0 0 0 0 0 0 0 0 9 0

GFSSGP_prec_cloud_054.txt.gz
Cloud_Cover
5 5 32 98 97 94 100 100 96 53 98 99 100 100 100 100 100 65 47 100 99 100 100 100 1 0 27 5 5 4 4 5 4 5 17 5 0 0 7 2 2 0 2 5 7 2 6 5 4
10 53 94 87 86 100 100 56 46 100 98 98 78 100 91 100 98 49 5 100 41 97 100 15 0 0 52 5 8 1 4 50 4 5 0 2 8 8 0 0 4 13 4 11 6 5 98 5 5
32 49 83 98 61 100 84 82 72 93 95 100 100 97 100 100 12 95 78 5 83 100 57 0 0 8 5 9 22 2 12 9 5 9 8 0 6 1 3 3 4 5 5 98 9 5 37 55 100
98 47 43 98 74 83 48 100 95 100 100 100 100 100 100 96 100 87 37 25 71 92 0 0 0 5 7 5 4 1 1 3 4 2 5 1 1 1 2 2 4 0 56 83 5 96 100 100 79
88 74 78 49 84 100 83 90 69 93 100 100 100 100 100 100 100 100 12 76 100 63 0 0 0 0 0 0 1 5 3 0 6 19 10 1 1 2 0 3 0 6 4 4 5 16 48 100 100
94 85 70 100 81 100 69 84 90 49 100 100 100 99 99 100 100 78 98 94 96 2 0 4 1 3 0 3 2 3 5 2 7 2 0 0 0 0 2 0 2 4 0 2 3 0 0 3 4
35 96 35 100 88 88 96 100 100 87 100 100 100 100 100 100 64 63 77 100 3 3 0 4 4 0 1 7 4 6 1 3 2 0 0 0 0 0 0 0 0 5 5 1 0 0 0 0 0
3 70 12 94 91 94 86 94 61 100 100 100 100 100 100 100 91 75 57 75 100 0 0 0 0 1 3 9 1 4 0 0 0 0 0 0 0 0 0 0 0 5 2 4 0 0 0 0 0
1 11 60 100 80 100 90 33 32 10 93 100 100 100 99 100 26 93 98 82 100 0 0 0 2 0 0 0 1 0 0 0 0 0 0 8 2 0 0 0 0 68 100 100 100 25 1 1 3
0 100 93 67 98 74 100 18 24 76 100 69 100 100 100 100 73 54 64 100 89 0 0 0 0 0 0 0 0 0 0 0 0 0 39 21 20 0 0 0 0 68 100 100 100 73 100 99 0
0 20 100 100 100 85 22 14 5 82 100 100 100 100 49 3 68 19 100 16 6 0 44 17 0 0 48 0 0 0 0 0 12 2 57 32 10 14 24 29 14 98 98 100 63 90 98 100 45
4 40 99 62 28 71 86 96 100 100 100 100 100 100 97 38 59 53 77 7 42 82 14 100 0 25 98 0 0 2 64 40 0 47 54 0 6 8 29 95 92 78 8 80 93 3 2 97 59
6 18 34 37 99 50 5 43 100 100 50 69 100 98 100 64 1 0 7 63 20 36 0 0 14 99 87 0 64 70 88 30 0 0 31 38 98 80 16 65 99 86 95 53 68 45 3 32 70
36 7 42 46 78 100 20 74 100 97 39 54 53 41 57 100 0 8 37 58 50 41 13 71 0 4 17 100 88 100 4 88 10 13 49 92 18 46 8 2 83 76 56 74 97 49 48 100 14
0 5 1 4 95 9 89 51 78 58 97 57 34 52 92 97 56 25 53 0 0 38 0 1 2 2 8 24 50 4 0 15 5 20 0 2 37 0 38 20 60 99 0 0 0 13 87 24 24
0 0 0 2 5 24 7 69 100 81 100 100 100 36 100 9 7 23 32 1 0 0 0 0 0 0 0 66 0 1 79 94 31 6 21 7 0 0 79 6 59 0 54 80 100 56 1 99 31
0 0 0 3 32 28 59 73 100 100 100 100 100 85 93 99 100 32 100 56 8 4 0 0 77 0 14 0 2 88 51 23 99 2 30 11 6 13 84 42 17 96 86 70 8 0 1 20 94
0 0 0 0 3 62 9 59 100 100 100 80 57 50 89 78 71 8 6 3 48 0 0 0 100 1 0 0 0 1 1 45 64 64 26 5 87 91 39 31 0 0 78 83 4 47 65 77 100
0 0 0 0 2 68 5 22 71 63 100 100 100 100 58 46 63 47 4 0 20 0 0 0 54 1 0 0 0 12 22 21 0 94 100 0 90 100 99 0 0 58 1 54 0 53 67 99 75
0 0 0 0 12 54 98 16 97 96 100 100 100 30 18 37 1 43 5 0 7 0 0 0 5 2 0 0 0 10 74 0 5 100 54 0 42 1 0 37 67 6 76 16 0 1 7 81 5
0 0 0 0 5 60 69 83 47 75 95 100 38 2 24 0 1 0 0 0 0 0 0 0 0 0 0 0 0 0 100 52 92 36 0 0 32 8 57 4 25 1 39 0 0 2 98 5 74
0 0 0 0 1 5 8 28 21 74 100 100 100 100 0 1 0 0 0 0 0 0 0 0 0 0 0 0 0 0 0 80 0 3 70 0 0 88 5 0 9 0 60 69 0 0 65 26 0
0 0 0 0 0 5 61 3 4 98 64 100 100 90 2 0 0 0 0 0 0 0 0 0 0 0 0 0 0 0 0 0 80 0 88 16 0 10 60 3 4 0 1 1 2 0 2 0 91
0 0 0 0 0 0 0 0 1 85 98 100 100 100 95 0 0 0 0 0 0 0 0 0 0 0 0 0 0 0 0 0 21 12 100 24 0 4 99 0 0 0 17 5 0 0 0 0 43
0 0 0 0 0 0 0 0 0 11 99 96 100 100 100 14 0 0 0 0 0 0 0 0 0 0 0 0 0 0 0 0 0 1 96 64 0 0 0 0 5 0 0 1 4 0 0 0 0
0 0 0 0 0 0 0 0 0 0 10 46 100 100 54 58 0 0 0 0 0 0 0 0 0 0 0 0 0 0 0 0 0 0 0 36 0 38 0 0 0 0 0 0 0 0 0 0 0
0 25 0 0 0 0 0 0 0 0 3 84 100 35 99 88 95 0 0 0 0 0 0 0 0 0 0 0 0 0 0 0 0 0 0 0 0 28 30 0 0 0 0 0 0 0 0 0 0
0 0 56 1 0 0 1 0 0 0 0 3 27 5 96 100 100 85 8 1 0 0 0 0 0 0 0 0 0 0 0 0 0 0 0 0 0 8 79 21 0 0 0 0 0 0 0 0 0
0 0 5 15 44 0 1 0 0 53 1 0 0 32 94 100 100 100 100 68 5 4 0 0 0 0 0 0 0 0 0 0 0 0 0 0 0 0 38 7 0 0 0 0 0 0 3 0 0
0 0 0 5 5 6 2 1 0 95 77 0 1 100 72 22 100 100 100 100 92 5 0 0 0 0 0 0 0 0 0 0 0 0 0 0 0 0 0 0 0 0 0 0 0 0 0 0 0

GFSSGP_prec_cloud_057.txt.gz
Cloud_Cover
5 1 5 40 52 90 100 100 100 100 65 100 94 80 100 100 100 88 100 69 44 76 0 0 0 5 3 4 3 1 0 5 4 5 4 2 0 0 2 3 0 0 18 5 0 3 2 5 0
2 52 72 94 68 97 100 100 100 100 91 76 100 100 99 94 52 100 100 71 24 18 0 0 3 0 0 7 0 5 5 2 0 4 0 0 2 0 0 0 8 8 14 5 5 5 96 4 0
4 96 94 82 49 78 100 100 100 100 78 69 100 100 100 100 98 59 56 0 80 0 0 0 0 0 2 2 0 0 0 0 1 2 1 4 2 0 0 0 0 5 24 5 5 4 5 86 81
5 14 54 97 98 98 99 100 100 100 98 100 100 35 100 100 88 100 4 3 0 1 0 0 0 0 4 5 7 0 0 0 5 2 0 0 0 1 0 0 0 98 3 5 54 5 5 71 48
5 64 62 56 41 100 100 100 100 100 54 91 100 100 100 100 100 100 5 0 5 1 0 0 0 1 1 3 4 1 0 5 0 0 0 1 4 0 3 0 0 0 3 6 10 67 5 7 5
49 89 54 100 100 99 100 100 70 86 100 100 100 100 100 100 100 100 75 3 1 0 0 0 0 2 0 0 0 0 0 0 0 0 0 0 0 0 0 0 1 0 0 0 0 57 13 5 1
27 88 58 100 100 52 100 100 100 99 99 99 100 100 100 100 100 100 48 0 0 0 0 0 0 0 0 2 0 0 0 2 0 0 0 0 0 0 2 0 0 0 0 0 0 0 0 4 4
41 55 61 100 88 98 89 40 52 73 100 100 99 100 97 100 96 100 27 0 0 0 0 0 0 0 0 0 0 0 0 0 0 0 0 0 0 12 91 0 0 3 17 3 1 0 0 0 2
30 0 89 93 93 100 100 100 100 42 77 98 100 100 100 100 100 18 86 14 64 15 0 0 0 0 0 0 0 0 5 0 2 1 0 0 0 97 12 5 10 7 51 100 85 7 0 0 2
100 30 67 100 82 100 100 100 100 6 100 100 100 100 100 100 93 14 96 3 45 0 0 0 0 0 0 0 0 0 0 3 1 0 20 0 0 0 27 100 100 92 35 100 70 94 1 3 11
84 13 86 96 82 100 100 100 100 80 100 100 100 100 100 100 43 100 93 40 0 0 0 0 0 0 0 0 0 0 0 0 0 0 5 0 0 0 46 80 67 83 1 39 31 16 0 0 0
0 3 10 100 100 100 100 100 100 90 96 100 100 100 100 49 23 100 40 97 88 0 0 0 5 4 0 0 0 0 0 0 0 2 0 0 97 68 41 100 49 34 0 5 2 3 0 2 3
0 2 92 100 43 100 84 88 65 100 100 100 100 65 52 97 19 20 22 2 1 0 0 0 5 8 0 0 1 41 0 0 19 50 5 0 11 97 99 43 88 88 0 1 1 0 3 0 1
0 0 19 98 100 26 62 91 93 80 100 100 96 76 77 8 0 2 98 3 98 56 0 87 1 93 0 0 0 4 14 1 12 75 29 1 17 91 0 4 44 14 14 13 0 67 100 2 50
0 0 14 29 85 36 18 16 7 95 100 98 100 100 100 100 0 7 86 63 36 0 0 0 0 0 0 6 37 0 0 99 33 0 2 4 6 1 78 12 42 14 8 0 4 0 0 0 89
0 0 0 0 2 5 5 19 8 80 100 100 100 100 100 97 16 18 98 100 24 0 0 36 0 0 0 1 21 0 3 9 2 0 0 0 0 11 40 0 1 0 46 69 71 30 99 18 63
0 0 0 0 0 5 8 46 68 85 100 98 100 100 99 100 88 24 88 64 16 0 0 0 0 1 0 0 0 0 0 3 0 10 0 0 77 30 0 0 24 0 75 0 0 46 4 56 26
0 0 0 0 3 5 55 50 57 89 12 97 100 100 100 95 10 49 98 89 0 0 0 0 0 0 0 0 1 1 0 17 4 0 2 12 3 6 4 0 0 10 61 0 0 37 16 96 94
0 0 0 0 17 5 4 54 16 77 42 100 100 100 93 13 1 7 100 72 68 0 0 0 0 0 0 0 0 0 0 0 0 0 67 42 1 1 0 0 0 1 71 0 96 3 14 54 100
0 0 0 0 0 5 72 25 100 26 24 84 100 100 100 99 83 100 80 99 22 0 0 0 0 0 0 0 0 0 0 0 0 0 0 1 4 4 0 1 0 0 0 0 0 0 54 88 1
0 0 0 0 0 2 6 57 63 24 35 61 100 100 100 100 100 99 89 6 0 0 0 0 0 0 0 0 0 0 0 0 0 0 0 0 0 0 8 2 77 0 0 0 0 0 0 0 2
0 0 0 0 0 0 4 96 97 5 55 40 100 100 100 100 100 54 69 0 0 0 0 0 0 0 0 0 0 0 0 0 0 0 0 0 0 3 5 3 1 0 59 0 0 16 0 0 8
0 0 0 0 0 0 0 16 76 55 88 100 100 100 100 100 100 38 0 0 0 0 0 0 0 0 0 0 0 0 0 1 0 0 33 0 1 5 6 4 0 0 5 0 0 16 19 0 0
0 0 0 0 0 0 0 0 4 88 15 80 100 100 100 100 100 86 0 0 0 0 0 0 0 0 0 0 0 0 0 0 16 0 7 47 3 7 44 0 0 0 3 1 3 0 0 0 0
0 0 0 0 0 0 0 0 0 0 1 18 100 100 100 100 100 41 0 0 0 0 0 0 0 0 0 0 0 0 0 0 0 0 0 100 20 1 0 0 0 0 0 0 2 0 0 0 5
0 0 0 0 0 0 0 0 0 0 0 5 100 100 100 100 100 45 0 0 0 0 0 0 0 0 0 0 0 0 0 0 0 0 0 59 19 0 0 0 0 0 0 0 0 0 0 0 0
0 0 0 0 0 0 0 0 0 0 0 0 30 100 100 100 100 88 22 0 0 0 0 0 0 0 0 0 0 0 0 0 0 0 0 0 9 0 0 0 0 0 0 0 0 0 0 0 0
0 0 0 0 0 0 0 0 0 1 0 0 0 98 100 100 98 86 10 2 5 1 0 0 0 0 0 0 0 0 0 0 0 0 0 0 0 0 0 0 0 0 0 0 0 0 0 0 0
0 0 1 0 0 0 0 0 0 4 88 100 82 100 79 77 96 100 100 100 2 58 11 0 0 0 0 0 0 0 0 0 0 0 0 0 0 0 0 0 0 0 0 0 0 0 0 0 0
0 0 2 5 0 0 0 0 0 92 100 27 60 100 100 97 100 100 100 100 100 17 5 4 0 0 0 0 0 0 0 0 0 0 0 0 0 0 0 0 0 0 0 0 0 0 0 0 0

GFSSGP_prec_cloud_060.txt.gz
Cloud_Cover
4 53 13 100 100 100 100 100 100 100 100 100 100 100 100 93 100 100 100 100 3 1 0 0 4 0 0 0 0 0 0 0 1 0 1 5 0 1 0 2 8 4 1 9 5 4 0 5 4
3 8 82 90 100 81 100 100 100 100 100 100 44 100 35 91 100 100 100 100 2 0 0 0 0 0 0 4 1 0 0 5 0 0 1 0 1 5 1 8 4 5 52 6 0 5 59 5 2
2 11 35 99 83 77 98 100 100 100 100 100 100 98 90 99 100 100 100 51 0 0 0 0 0 0 0 2 0 0 3 0 0 4 1 0 3 4 0 1 5 4 5 5 2 5 5 3 22
5 36 75 95 67 99 100 100 100 100 100 100 100 100 99 88 100 100 100 1 0 0 0 0 0 0 0 0 0 4 0 1 2 0 0 0 7 8 0 0 5 1 5 5 4 5 5 20 5
5 83 94 71 94 100 100 100 100 100 100 100 100 79 97 100 100 100 100 0 0 0 0 0 0 0 1 7 0 0 0 5 4 0 0 2 0 0 9 2 1 11 4 28 8 1 1 4 33
8 78 78 66 100 100 100 100 100 100 100 100 100 96 16 98 100 100 97 3 0 0 0 0 0 0 0 3 4 0 0 2 0 6 1 0 3 0 7 0 7 7 0 3 1 2 22 5 0
9 70 57 100 100 100 100 100 100 100 100 75 100 96 72 100 100 100 41 0 0 0 0 1 0 0 0 2 0 0 0 0 4 3 4 0 0 0 0 2 7 3 0 0 0 1 0 4 5
0 29 91 90 34 99 100 100 100 100 100 100 100 75 67 100 100 98 2 0 0 13 0 0 0 0 0 8 0 0 1 0 0 4 5 5 1 46 5 6 83 92 0 0 0 5 94 5 7
98 88 51 70 6 86 99 100 100 100 100 100 100 98 48 100 100 45 0 0 14 1 0 0 0 0 0 6 0 2 4 0 0 20 74 91 53 80 99 24 5 4 62 1 0 0 2 0 3
4 10 12 50 75 100 98 100 100 100 100 100 100 98 100 100 100 60 0 0 0 0 0 4 0 0 0 0 0 0 0 0 0 0 5 22 96 13 5 3 7 83 5 67 4 2 33 0 0
0 12 26 100 100 100 100 100 100 100 100 100 100 100 100 100 100 93 0 0 60 16 0 0 31 0 0 0 0 3 0 0 0 0 0 45 52 98 23 1 0 4 10 5 0 1 0 0 0
0 0 2 62 68 100 100 100 100 100 100 100 61 42 75 100 100 100 2 0 0 0 0 0 5 0 0 0 0 6 0 2 0 0 0 6 43 24 33 0 0 0 0 0 0 0 0 0 0
0 34 5 5 27 100 99 100 100 100 100 100 100 100 100 100 100 99 0 1 0 0 0 0 4 2 0 0 0 0 0 1 0 1 0 0 34 11 35 74 62 2 0 0 0 0 0 4 2
0 9 12 8 7 45 100 100 100 100 100 100 96 100 100 100 100 91 87 32 17 0 0 0 4 52 0 0 4 0 0 3 2 2 5 1 36 0 0 16 17 0 0 0 44 51 0 0 29
0 3 5 67 5 5 12 97 100 100 84 62 100 100 100 100 100 100 98 5 0 0 0 0 3 0 0 0 2 0 0 0 0 0 4 0 4 16 0 4 9 0 0 0 0 72 1 0 1
0 0 0 54 5 5 55 68 67 50 100 90 99 100 100 100 100 100 100 12 0 0 0 0 0 0 0 0 0 0 0 0 0 0 0 0 0 1 0 0 0 0 0 0 0 0 0 0 0
0 0 0 0 5 0 3 71 91 77 100 100 100 96 92 98 100 100 86 42 84 0 0 0 0 0 3 3 8 0 0 0 0 0 0 4 5 5 0 0 0 1 0 0 0 0 0 0 0
0 0 0 1 44 40 5 4 92 47 68 86 100 42 78 95 99 96 86 100 100 15 0 0 0 5 0 0 0 0 9 0 0 1 0 2 2 3 0 0 0 0 0 0 0 0 69 60 39
0 0 0 0 5 54 11 12 27 25 100 40 87 7 100 100 100 100 100 70 100 96 0 0 0 0 0 0 4 8 5 0 0 2 5 0 0 47 0 0 0 0 0 0 0 29 0 20 0
0 0 0 0 0 0 0 25 38 7 62 99 42 15 100 100 100 100 100 100 100 51 0 0 0 0 0 0 0 0 0 0 0 1 5 5 1 2 0 0 0 0 0 0 0 0 11 90 9
0 0 0 0 0 0 0 47 67 84 5 18 6 67 100 100 100 100 100 99 97 18 0 0 0 0 0 0 0 0 0 0 0 0 0 0 0 0 0 3 0 0 0 0 0 6 100 1 0
0 0 0 0 0 0 0 2 65 48 56 17 9 96 100 100 100 100 100 100 84 97 0 0 0 0 0 0 0 0 0 0 0 0 0 0 0 0 0 4 0 0 0 0 0 0 0 0 0
0 0 0 0 0 0 0 18 80 8 54 76 66 100 100 100 100 100 85 100 81 0 0 0 0 0 0 0 0 0 0 0 0 0 0 0 1 0 5 2 0 0 27 0 0 0 0 0 0
0 0 0 0 0 0 0 0 32 7 2 19 7 100 100 100 100 100 100 100 24 16 0 0 0 0 0 0 0 0 0 0 0 0 0 0 0 5 58 2 0 0 1 0 0 0 0 0 0
0 0 0 0 0 0 0 0 0 1 2 1 19 29 100 96 73 36 4 80 0 0 0 0 0 0 0 0 0 0 0 0 0 0 0 0 0 18 42 0 0 0 0 0 0 0 0 0 0
0 0 0 0 0 0 0 0 0 1 9 4 5 32 100 94 82 97 18 2 4 0 0 0 0 0 0 0 0 0 0 0 0 0 0 0 8 0 2 0 0 0 0 0 0 0 0 0 0
0 0 0 0 0 0 0 0 0 5 5 1 0 24 89 99 100 100 100 6 0 0 0 0 0 0 0 0 0 0 0 0 0 0 0 0 0 0 0 0 0 0 0 0 0 0 0 0 0
0 0 0 0 0 0 0 0 0 0 0 0 0 0 2 77 100 100 100 100 3 0 0 0 0 0 0 0 0 0 0 0 0 0 0 0 0 11 0 0 0 0 0 0 0 0 0 0 0
0 0 0 0 0 0 0 0 0 0 0 0 0 0 0 81 99 98 93 71 29 2 0 0 0 0 0 0 0 0 0 0 0 0 0 0 0 0 0 0 0 0 0 0 0 0 0 0 0
0 0 0 0 0 0 0 0 0 0 1 0 0 0 0 100 100 100 100 100 15 1 46 68 0 0 0 0 0 0 0 0 0 0 0 0 0 0 0 0 0 0 0 0 0 0 0 0 0

GFSSGP_prec_cloud_063.txt.gz
Cloud_Cover
35 54 8 100 100 100 100 100 100 100 100 100 100 100 98 94 100 98 100 99 0 0 0 0 1 0 0 1 0 0 0 19 0 0 8 2 1 1 2 8 8 0 17 1 5 12 22 0 5
5 81 100 100 99 100 100 100 100 100 100 100 95 100 100 94 100 100 100 3 0 0 0 3 2 0 1 0 1 0 0 0 1 9 0 2 2 6 13 5 6 5 5 13 5 5 5 3 4
5 10 94 90 100 97 100 100 100 100 100 100 100 93 100 100 100 100 100 0 0 0 0 0 0 0 6 1 0 0 12 0 5 3 0 2 3 2 8 4 4 5 5 5 6 5 0 2 5
8 56 56 91 97 100 100 100 100 100 100 100 100 100 100 85 100 100 86 0 0 0 0 0 0 0 7 10 0 0 7 0 7 2 3 0 2 1 0 1 12 4 5 0 2 4 5 14 58
49 65 100 96 100 100 100 100 100 100 100 100 100 100 98 97 100 100 28 0 0 0 0 0 0 0 0 0 5 0 4 0 1 0 3 3 6 0 0 1 0 2 5 0 0 5 100 100 93
91 56 96 100 91 100 100 100 100 100 100 100 100 99 90 100 100 100 6 0 0 0 0 0 0 0 19 10 0 4 2 0 0 0 0 36 48 18 0 9 0 0 3 4 3 4 2 2 5
88 78 92 98 100 100 100 100 100 98 100 100 100 100 100 100 100 100 4 0 0 0 0 0 0 1 0 0 0 0 0 0 1 0 4 19 95 27 46 9 0 4 11 3 5 5 0 0 0
6 98 86 94 100 100 100 100 100 100 100 100 100 100 100 100 96 100 2 5 23 28 3 2 0 0 0 0 0 1 0 3 5 4 6 5 5 1 1 5 3 0 8 59 0 0 3 65 0
6 100 17 98 100 100 100 100 100 98 100 100 100 100 99 94 85 80 88 65 96 87 27 10 10 0 0 0 4 0 4 9 100 100 56 5 6 4 4 51 18 66 0 0 0 0 0 0 1
18 68 40 60 69 98 93 100 100 100 100 100 100 100 100 22 89 75 100 100 98 84 60 23 16 8 0 0 0 0 0 2 8 57 28 6 34 0 2 8 5 1 1 3 0 0 0 0 0
10 62 5 99 90 82 75 86 100 100 100 100 70 88 100 100 100 99 40 15 10 36 53 22 18 3 0 0 7 17 9 0 2 18 63 5 2 0 0 0 0 2 1 3 0 0 0 0 0
0 100 1 16 52 59 100 100 100 100 100 100 100 6 91 100 100 100 8 0 0 19 16 6 0 2 0 8 19 9 11 6 1 4 13 5 0 0 0 0 0 0 0 0 0 0 0 0 0
33 98 2 0 2 100 100 100 100 99 100 100 100 66 96 20 100 100 53 20 0 0 0 0 0 0 0 11 16 10 0 4 0 0 0 0 0 4 1 4 0 0 0 0 0 0 0 0 0
96 73 1 0 0 27 100 100 100 99 100 100 100 84 32 87 100 100 100 100 2 0 0 0 0 2 1 8 1 3 0 0 4 4 16 0 1 12 0 53 28 0 0 0 0 0 0 0 0
51 6 0 0 0 0 94 100 100 100 100 100 100 100 100 100 100 100 100 100 14 0 0 0 0 0 0 4 0 0 0 0 0 0 0 0 47 1 4 6 8 0 0 86 9 0 0 7 0
0 0 0 0 0 0 2 31 89 100 87 99 99 100 100 60 100 99 99 100 95 26 0 0 0 0 0 5 0 0 0 0 0 2 0 0 10 10 0 0 0 0 0 0 0 0 0 0 0
0 0 3 0 0 0 2 8 99 100 79 98 99 100 100 27 89 60 72 100 95 100 100 32 1 0 0 0 0 0 0 0 0 5 4 0 5 10 0 0 0 0 0 0 0 0 0 0 0
0 0 4 0 0 1 4 5 7 95 100 100 54 5 79 54 41 100 45 100 100 99 100 100 0 0 0 5 0 0 0 0 0 0 4 1 4 0 0 0 0 0 0 0 0 0 0 0 0
0 0 0 4 4 0 0 2 5 23 84 100 92 65 60 5 10 100 99 100 100 100 100 28 0 0 0 0 0 0 0 0 0 0 1 0 1 1 0 0 0 36 0 0 0 0 2 0 0
0 0 0 4 86 5 0 0 0 5 75 68 64 6 5 5 16 100 100 100 100 94 100 24 0 0 0 0 0 0 0 0 0 23 6 1 5 2 0 0 0 0 0 0 0 0 7 0 0
0 0 0 25 91 18 0 7 81 7 0 2 8 17 47 6 57 100 74 100 92 100 89 3 0 0 0 0 0 0 0 0 0 45 0 1 1 4 5 0 0 3 0 0 0 0 4 15 0
0 0 4 14 12 0 0 0 97 15 12 100 97 5 58 89 100 100 17 100 98 100 100 1 0 0 0 0 0 0 0 0 0 1 0 0 3 1 8 0 3 0 0 0 0 3 82 0 0
0 0 1 5 0 0 0 0 0 48 64 100 19 5 5 94 99 94 5 3 24 100 92 0 0 0 0 0 0 0 0 0 0 0 0 0 1 4 62 3 3 0 0 0 0 0 0 0 0
0 0 0 0 0 0 0 0 0 79 4 89 3 92 78 39 69 6 10 20 26 77 19 0 3 0 0 0 0 0 0 0 0 0 0 0 0 6 8 1 1 0 0 0 0 0 0 0 0
0 0 0 0 0 0 0 0 0 3 0 1 2 9 23 100 100 100 37 74 1 11 0 0 0 0 0 0 0 0 0 0 0 0 0 0 0 2 5 0 0 0 0 0 0 0 0 0 0
0 0 0 0 0 0 0 0 0 0 0 0 9 6 7 100 98 94 5 4 5 4 0 0 0 0 0 0 0 0 0 0 0 0 0 0 0 1 5 0 0 0 0 0 0 0 0 0 0
0 0 0 0 0 0 0 0 0 0 0 0 1 0 21 97 100 93 8 6 5 8 0 0 0 0 0 0 0 0 0 0 0 0 0 0 0 0 0 0 0 0 0 0 0 0 0 0 0
0 0 0 0 0 0 0 0 0 0 0 0 0 0 4 51 58 93 47 20 5 8 1 0 0 0 0 0 0 0 0 0 0 0 0 0 0 4 0 0 0 0 0 0 0 0 0 0 0
0 0 0 0 0 0 0 0 0 0 0 0 0 0 0 0 74 100 96 4 23 5 0 0 0 0 0 0 0 0 0 0 0 0 0 0 0 8 48 0 0 0 0 0 0 0 0 0 0
0 0 0 0 0 0 0 0 0 0 0 0 0 0 0 0 1 100 100 100 100 59 4 1 0 0 0 0 0 0 0 0 0 0 0 0 0 0 0 0 0 0 0 0 0 0 0 0 0

GFSSGP_prec_cloud_066.txt.gz
Cloud_Cover
8 7 100 100 100 100 100 100 100 98 100 100 70 74 92 100 81 100 100 0 0 0 0 0 0 1 1 0 3 0 24 0 0 0 0 0 0 1 11 6 5 19 65 7 3 2 0 5 5
5 10 100 100 80 89 94 100 100 100 100 92 48 99 99 100 69 100 100 0 0 0 0 0 0 4 11 4 1 0 0 1 0 0 0 0 2 5 10 5 5 6 7 50 0 0 2 4 5
4 97 49 100 92 100 98 100 100 100 100 100 100 96 100 100 100 100 55 0 0 2 0 0 0 0 0 8 1 1 1 0 8 0 10 2 8 7 5 9 7 5 5 3 0 5 4 9 40
38 98 62 94 100 100 100 100 100 100 100 100 100 100 100 95 100 100 7 0 4 6 0 0 0 0 0 1 3 12 9 13 11 0 6 0 5 8 5 5 5 0 2 0 4 97 100 100 100
100 96 68 100 100 99 100 100 100 100 100 100 100 100 95 93 94 99 4 0 14 8 0 0 0 3 9 0 0 14 0 6 4 5 14 10 0 8 8 1 5 5 0 5 50 5 9 89 36
99 88 100 83 83 87 100 100 100 100 100 100 100 100 100 58 14 68 69 0 0 0 0 0 0 8 0 2 4 3 0 8 7 4 4 6 5 5 4 0 0 0 1 17 0 3 5 5 5
100 77 53 100 46 57 100 100 100 86 86 100 84 100 100 93 14 55 58 0 3 1 0 0 0 2 8 0 0 0 6 4 5 4 10 0 5 4 2 5 4 5 0 0 2 4 5 5 0
83 6 100 100 100 90 97 100 100 100 99 100 97 100 100 70 90 95 2 6 21 20 11 6 13 0 0 2 0 0 2 14 18 4 0 0 0 5 0 0 0 0 0 0 0 0 0 0 0
21 82 39 97 100 80 100 100 100 94 100 100 100 100 100 41 100 100 70 52 33 49 33 13 2 0 0 3 0 6 4 0 0 5 0 5 4 5 5 0 0 0 0 0 0 2 2 0 0
28 63 4 93 100 99 100 100 100 96 98 88 100 100 98 78 100 100 100 95 100 99 81 28 16 12 0 0 0 0 0 0 4 0 0 0 0 0 0 0 1 3 2 0 0 0 1 0 0
31 7 5 44 29 100 74 89 100 99 95 100 100 100 100 97 51 100 100 60 100 100 100 43 24 14 0 2 13 18 6 1 5 5 0 0 0 0 0 4 4 6 3 0 0 0 0 0 0
41 0 3 5 5 69 97 5 91 94 53 87 26 88 98 96 100 100 100 61 67 100 96 39 19 19 0 15 16 20 6 6 1 0 0 0 0 0 0 0 0 3 0 0 0 0 0 0 0
0 0 0 2 5 4 5 28 100 100 97 41 43 10 58 51 100 78 100 11 23 89 43 36 21 20 10 16 29 24 8 3 0 0 0 0 0 0 5 1 0 0 0 0 0 5 0 0 0
1 0 0 0 5 5 5 30 100 100 95 87 49 7 8 74 100 88 93 39 5 11 27 13 16 8 12 17 13 18 1 0 2 0 0 0 38 11 0 0 0 0 0 0 0 0 2 0 0
0 0 0 0 0 0 0 35 100 100 100 100 100 53 98 100 100 100 94 82 5 7 93 99 10 0 8 6 4 0 0 0 0 0 0 0 0 1 0 2 0 0 0 0 0 0 1 8 0
0 0 0 0 0 0 0 13 22 100 100 100 100 79 100 89 100 100 84 43 10 29 31 5 2 0 0 0 1 0 0 0 0 5 0 5 1 0 0 1 0 0 0 0 0 0 0 0 0
0 0 0 2 0 0 2 46 38 100 100 100 96 98 20 5 99 95 93 70 38 70 73 62 37 0 0 0 0 0 0 0 1 0 2 4 2 0 0 18 0 0 0 0 0 1 3 11 2
0 0 1 1 0 0 2 5 64 90 100 96 70 100 18 1 17 30 76 74 36 10 14 98 73 0 0 0 0 0 0 0 0 0 4 5 1 0 0 0 0 0 0 2 0 0 0 3 1
0 0 0 0 0 0 0 4 5 86 93 100 90 63 5 4 10 41 97 41 55 56 5 98 49 0 0 0 0 0 0 0 0 0 2 5 3 0 0 0 0 36 0 0 0 0 0 0 0
0 0 0 9 2 0 0 0 5 93 100 100 85 99 56 65 0 33 4 54 71 77 8 51 14 0 0 1 0 0 0 0 0 0 4 2 3 0 0 0 0 0 0 0 0 0 0 0 0
0 0 0 19 5 0 0 0 31 75 7 6 11 100 4 15 0 0 2 99 49 89 5 5 18 0 0 0 0 0 0 0 0 5 0 5 0 0 0 0 0 0 0 0 0 0 15 0 0
0 0 0 0 5 4 0 0 0 86 82 50 4 5 4 5 0 4 5 70 56 26 5 5 93 0 0 0 0 0 0 0 0 5 0 1 0 1 0 0 0 0 0 0 0 0 1 0 0
0 0 0 0 5 4 0 0 0 13 32 3 2 3 11 5 5 12 80 100 97 4 3 2 13 0 1 0 0 0 0 0 0 0 0 0 0 0 1 0 4 0 0 0 0 0 3 0 0
0 0 0 0 4 0 0 0 0 6 0 6 74 51 41 9 0 0 50 100 68 5 0 0 0 0 11 0 0 0 0 0 0 0 0 0 0 0 0 0 3 0 0 0 0 0 0 0 0
0 0 0 0 0 0 0 0 0 0 0 5 1 2 40 99 23 7 99 98 36 39 1 0 0 0 11 0 0 0 0 0 0 0 0 0 0 2 0 0 3 0 0 0 0 0 0 0 0
0 0 0 0 0 0 0 0 0 0 0 0 0 2 46 69 45 5 84 56 30 99 32 1 0 0 0 0 0 0 0 0 0 0 0 0 0 0 2 0 0 0 0 0 0 0 0 0 0
0 0 0 0 0 0 0 0 0 0 0 0 0 0 0 65 84 14 85 78 87 7 0 0 0 0 0 0 0 0 0 0 0 0 0 0 0 0 0 1 0 0 0 0 0 0 0 0 0
0 0 0 0 0 0 0 0 0 0 0 0 4 0 0 71 13 98 100 77 5 4 0 0 0 0 0 0 0 0 0 0 0 0 0 0 0 0 0 0 0 3 0 0 0 0 0 0 0
0 0 0 0 0 0 0 0 0 0 0 0 100 28 0 67 97 46 52 38 20 98 96 19 5 1 0 0 0 0 0 0 0 0 0 0 0 0 0 0 0 0 0 2 0 0 0 0 0
0 0 0 0 0 0 0 0 0 0 0 0 100 100 67 20 96 92 6 100 84 99 99 96 7 50 25 45 3 0 0 0 0 0 0 0 0 0 0 0 0 0 0 0 0 0 0 0 0

GFSSGP_prec_cloud_072.txt.gz
Cloud_Cover
100 100 98 96 97 87 100 100 100 100 100 100 100 100 100 100 92 33 0 0 0 0 0 0 5 5 0 1 1 4 1 0 2 16 5 5 6 12 6 8 2 10 50 11 5 4 99 3 19
32 100 52 90 69 100 100 100 100 100 100 100 100 100 100 100 49 0 0 0 0 0 2 2 0 0 0 5 8 1 4 0 11 5 5 5 11 9 5 5 5 4 60 0 1 3 12 76 100
13 100 80 94 96 76 100 100 100 100 100 100 100 96 100 100 92 0 0 0 1 23 50 3 0 0 0 2 3 5 8 0 0 0 1 5 5 5 5 5 3 4 5 5 5 98 100 100 100
25 94 90 90 100 52 98 100 100 100 100 100 100 91 100 98 92 10 0 0 2 0 30 0 8 1 0 0 0 1 16 2 0 0 0 5 6 1 3 5 0 4 5 6 70 95 100 100 94
56 100 99 89 98 92 100 100 100 100 100 98 98 100 95 100 92 2 0 2 0 19 0 0 0 13 1 11 0 9 2 16 11 6 5 6 0 0 0 0 4 3 12 7 5 82 99 99 28
69 88 83 100 85 94 98 100 100 100 100 100 68 99 100 100 49 28 1 24 32 8 21 5 5 7 7 0 1 3 0 0 0 5 0 1 3 0 0 0 0 0 5 10 53 100 20 11 3
95 80 100 100 84 82 98 100 100 99 78 88 66 97 86 58 77 30 18 38 45 38 38 36 8 6 0 4 7 8 3 0 6 1 2 4 0 0 1 0 0 1 100 99 33 8 70 4 0
12 100 98 98 58 99 100 100 74 100 99 86 68 98 83 94 92 69 38 19 27 38 45 6 0 1 21 21 6 5 0 0 3 4 0 0 0 0 0 0 0 0 3 16 2 1 0 0 0
32 73 100 100 53 100 82 100 43 47 48 50 44 100 10 72 43 100 71 13 20 66 17 0 15 42 6 22 5 0 3 4 0 0 0 32 33 29 12 0 0 0 0 0 4 0 0 1 0
99 73 86 98 100 100 100 100 100 88 19 20 27 42 4 9 54 77 100 5 16 36 4 0 57 18 37 86 20 4 11 17 10 14 65 70 32 26 0 0 0 0 0 0 0 0 1 94 40
69 95 88 75 66 100 98 100 100 100 27 30 9 6 0 1 16 44 62 52 5 9 0 26 33 38 58 8 2 3 20 26 41 37 46 53 37 4 0 7 22 2 15 79 24 82 60 63 41
13 3 31 26 78 100 100 25 81 100 100 97 59 19 1 1 4 9 6 5 100 5 0 17 21 41 97 6 0 8 16 44 54 25 12 18 6 0 24 14 0 17 12 0 47 19 2 0 14
46 0 0 4 5 47 96 100 97 98 95 100 14 9 3 5 4 4 6 7 100 12 47 5 9 75 100 0 0 26 9 40 24 9 28 44 27 14 15 1 26 5 0 0 8 0 28 14 27
49 18 0 0 2 78 100 88 90 97 100 41 63 5 3 70 6 3 4 14 100 16 95 1 7 24 80 4 4 9 33 1 44 56 1 1 14 0 0 0 0 0 16 9 16 8 52 72 34
0 7 0 0 2 33 100 21 53 18 100 64 94 40 5 14 31 5 2 62 100 7 94 5 3 6 6 0 3 7 1 43 45 58 0 5 59 1 0 6 3 11 0 0 0 6 9 42 48
0 0 2 0 0 2 34 27 9 100 100 95 100 21 15 5 11 24 3 4 100 9 11 16 0 0 0 0 2 33 69 95 100 55 0 0 6 1 0 0 0 0 0 1 20 95 96 63 86
0 3 5 0 0 0 14 31 50 45 94 100 100 83 43 5 63 3 0 1 8 10 7 3 1 0 0 0 0 17 22 59 100 83 36 2 4 4 0 15 0 10 0 14 41 75 92 40 65
0 4 40 3 0 0 0 32 5 20 28 65 100 99 100 18 7 6 5 18 13 24 5 1 1 3 0 0 1 32 21 30 82 98 100 4 0 18 0 0 0 7 0 14 93 18 24 78 33
0 2 9 0 1 2 8 0 52 19 23 77 100 99 100 97 74 74 3 14 2 10 5 4 0 5 0 0 0 9 10 35 57 76 3 0 0 1 0 36 0 0 1 1 0 0 1 33 0
0 0 4 0 0 3 4 1 24 71 44 35 100 100 97 100 66 50 1 35 5 16 6 5 2 16 0 0 0 0 23 42 98 36 3 2 0 0 0 2 3 0 0 0 0 0 85 19 0
0 0 4 3 1 0 0 2 5 97 27 77 86 86 97 100 97 53 26 21 0 98 38 3 5 6 0 0 0 9 0 0 20 20 4 14 2 0 0 0 6 0 27 9 0 0 9 61 0
0 0 0 0 0 0 0 96 0 50 86 98 98 72 99 92 100 86 61 25 6 18 60 0 2 0 0 0 0 0 2 30 37 48 76 3 19 24 0 0 0 0 9 6 0 0 8 11 0
29 0 0 0 0 3 0 15 10 12 90 100 100 98 88 99 100 99 87 100 23 3 5 2 0 0 0 0 0 0 2 7 1 96 38 10 5 88 0 0 0 0 8 0 0 0 0 0 1
16 0 0 0 0 0 0 1 8 3 7 100 89 70 65 98 74 66 100 99 11 0 5 4 0 0 0 2 0 0 0 6 25 10 10 2 8 59 0 1 1 1 5 0 0 0 0 0 0
0 0 0 0 0 0 1 0 4 0 6 87 91 30 35 67 97 57 71 90 33 0 3 11 0 0 0 0 0 0 0 0 0 4 5 100 99 8 0 12 92 0 0 0 0 0 0 0 0
0 2 0 0 0 0 0 0 0 0 0 1 73 6 5 36 33 50 51 62 86 4 5 42 2 0 0 0 0 0 0 0 0 1 33 41 100 51 4 1 4 0 0 0 0 0 0 0 0
0 3 19 2 2 0 0 0 0 0 0 0 8 3 63 100 59 66 73 48 61 12 5 14 5 4 0 6 0 0 0 0 0 11 1 0 0 82 0 0 0 0 5 1 0 20 0 0 0
0 0 1 0 1 0 1 1 0 0 0 0 77 95 94 100 89 100 98 90 76 37 44 74 38 73 2 38 13 4 0 0 0 0 1 0 3 2 22 0 8 5 5 5 0 0 0 0 0
0 0 0 2 1 0 4 23 0 0 23 37 90 100 100 76 93 87 100 91 100 100 72 100 100 85 94 5 14 10 0 0 0 0 0 0 0 0 0 0 4 1 4 0 0 6 5 0 0
0 0 0 0 4 0 6 9 0 0 62 100 100 100 100 100 100 98 100 99 100 100 100 100 100 100 100 5 0 5 41 26 0 0 0 0 0 0 0 0 0 0 0 0 1 5 5 5 0

GFSSGP_prec_cloud_075.txt.gz
Cloud_Cover
100 57 29 45 90 93 100 100 100 100 100 100 100 100 100 100 47 39 2 78 97 32 0 0 0 0 14 0 0 0 9 22 5 2 12 5 5 9 2 1 4 8 6 4 1 2 22 10 52
100 84 80 95 45 100 100 100 100 100 100 100 100 100 100 94 1 5 42 35 24 1 0 4 0 0 0 0 7 0 1 4 10 5 5 3 4 9 5 5 4 30 1 5 12 41 100 100 100
100 100 93 67 25 100 100 100 100 100 100 100 100 100 100 32 40 17 13 6 80 12 2 0 0 0 0 0 8 0 1 0 0 5 4 5 5 5 5 5 5 5 5 75 100 100 100 100 100
100 100 59 61 99 99 100 100 100 100 98 96 100 100 46 59 28 24 0 80 89 40 17 0 0 0 10 11 0 1 0 0 0 2 8 3 3 4 5 2 2 2 2 100 68 100 100 98 57
100 100 75 100 100 100 81 100 100 100 100 100 99 100 47 82 33 20 22 92 100 94 7 0 0 0 1 0 1 4 0 1 10 3 0 6 3 2 1 0 0 2 5 11 99 100 100 100 74
100 100 100 100 100 98 100 100 100 100 99 100 64 100 83 10 84 21 62 89 100 67 62 3 1 0 3 8 0 3 0 3 9 0 7 0 2 2 0 0 2 17 95 100 100 93 31 2 0
96 72 100 69 100 97 56 100 100 89 74 100 36 100 25 17 100 27 75 100 100 96 13 43 11 0 0 0 0 3 0 0 1 0 0 0 10 0 0 0 5 10 6 15 6 4 1 0 2
75 78 100 93 100 93 90 95 98 100 100 78 90 92 5 20 100 16 59 100 86 100 76 32 16 3 15 10 12 1 0 0 3 3 0 0 0 0 0 0 4 4 3 5 0 1 0 0 0
52 91 94 99 89 99 100 100 94 74 99 100 100 46 7 73 41 31 56 75 49 17 73 11 46 27 63 50 1 0 0 0 0 0 0 79 15 59 23 0 0 5 0 0 0 0 0 0 0
63 100 95 100 15 100 98 100 99 80 100 100 82 98 8 3 5 41 98 42 34 90 47 85 98 63 76 91 23 0 88 11 72 88 78 100 100 2 0 0 0 0 0 0 0 0 2 94 7
99 100 100 96 89 100 100 100 100 99 100 100 100 79 5 5 23 42 97 20 41 27 83 98 62 98 97 11 55 87 40 10 9 97 100 16 18 0 1 0 1 0 1 37 95 26 100 36 96
94 90 98 88 74 97 100 100 85 100 92 96 100 56 6 5 33 45 41 92 37 32 28 100 62 100 50 19 100 100 100 71 53 99 68 9 78 100 100 100 31 100 88 23 51 95 94 4 12
97 100 26 5 5 44 99 95 97 100 100 96 85 48 10 5 57 94 72 100 17 2 8 49 98 94 95 14 90 60 40 84 28 100 100 100 94 78 100 100 100 88 97 38 82 100 30 60 84
81 82 65 17 28 41 100 100 99 95 100 100 50 88 13 19 65 84 92 91 5 5 5 12 18 100 6 45 72 42 100 30 89 80 87 100 64 97 6 51 89 100 99 100 97 97 51 65 31
25 84 2 4 0 84 88 100 100 98 93 70 99 84 43 95 100 90 98 53 5 8 0 1 37 45 19 0 0 98 45 89 100 100 91 11 39 3 38 18 100 100 21 1 0 15 37 17 43
0 1 79 26 0 5 61 82 100 97 16 100 94 57 82 100 100 84 100 81 0 25 5 0 10 39 13 0 0 100 100 81 100 98 69 70 1 0 23 68 67 57 8 100 92 89 25 86 64
0 5 43 76 1 18 34 91 98 21 21 99 100 100 100 100 100 100 100 31 4 5 5 3 5 20 1 0 17 100 71 100 99 96 100 19 32 1 64 71 37 86 85 32 99 9 64 78 74
0 3 60 100 3 5 30 94 94 32 22 99 96 100 100 100 100 97 100 100 75 7 5 7 3 12 0 0 8 99 16 100 64 100 48 2 26 0 0 79 9 54 29 71 11 68 96 3 100
4 2 100 100 16 39 95 80 10 60 25 100 99 100 100 100 100 100 100 99 100 8 0 5 10 3 2 0 10 95 29 100 100 77 8 0 98 0 0 28 0 0 99 64 0 0 28 17 0
0 5 55 59 52 62 75 16 1 18 98 24 84 100 93 100 100 100 100 100 100 38 7 0 39 5 0 7 78 39 100 98 21 100 11 95 95 11 0 84 4 64 44 0 18 96 56 66 82
0 5 74 70 0 2 52 69 4 8 11 99 60 84 100 100 99 100 100 99 44 79 5 0 0 5 0 17 17 0 43 95 65 66 17 28 18 8 75 8 100 5 46 5 0 4 72 91 0
4 1 67 59 7 5 1 72 48 8 16 29 36 100 100 100 100 100 100 100 100 50 2 0 0 0 0 0 13 92 0 29 0 14 100 0 55 90 78 20 16 0 95 86 0 0 77 70 31
5 0 7 99 4 7 62 4 76 89 63 23 37 95 100 100 73 100 100 100 100 39 0 0 0 0 0 0 86 32 15 100 62 51 77 8 2 54 99 61 42 4 0 1 99 14 0 36 12
24 74 5 5 5 3 32 0 26 100 54 41 5 22 94 98 84 100 98 100 100 84 1 0 0 0 0 1 0 10 21 23 99 95 37 7 10 23 86 91 98 12 91 2 0 0 0 5 15
31 53 5 5 5 2 5 3 85 72 0 5 22 92 89 100 99 79 100 36 18 100 9 0 1 0 0 2 3 0 0 0 32 54 14 14 18 15 5 100 39 1 0 2 0 0 31 0 3
5 6 1 3 2 4 90 69 0 1 4 0 5 95 88 100 98 23 32 99 20 100 43 0 0 3 0 0 0 6 0 0 1 6 80 69 78 100 2 7 8 1 42 0 2 0 0 0 1
21 5 4 100 66 52 98 12 5 7 0 0 1 58 50 97 100 76 46 100 71 100 73 1 0 0 0 0 1 2 5 0 12 77 6 78 100 66 13 4 53 21 74 28 4 28 1 100 0
65 61 12 88 98 100 100 1 18 7 11 0 0 8 24 28 46 100 98 100 79 66 100 24 0 2 5 3 0 1 3 8 0 0 0 30 98 10 99 2 28 88 53 28 2 43 5 0 0
1 4 5 99 45 100 100 89 0 0 0 0 32 0 5 87 59 57 75 97 90 100 100 100 46 5 5 4 1 1 4 2 9 0 0 0 0 0 1 28 98 95 40 10 8 9 56 5 1
0 4 4 5 3 42 100 100 44 37 0 0 100 66 80 100 94 100 69 80 100 100 100 100 80 38 62 18 24 8 41 11 26 4 0 0 0 0 0 0 4 38 71 68 8 24 17 5 3

GFSSGP_prec_cloud_078.txt.gz
Cloud_Cover
41 6 98 95 92 100 100 100 100 100 100 100 100 100 77 92 49 36 10 30 18 12 2 2 0 0 0 1 4 9 7 5 5 7 5 5 14 0 3 8 0 4 3 45 5 4 5 66 4
15 42 78 88 92 100 100 100 100 100 100 100 100 100 6 8 2 54 49 1 6 0 2 1 0 0 0 10 9 6 12 5 5 3 4 1 9 5 3 2 1 7 0 6 80 100 100 98 86
99 85 95 100 81 100 100 100 100 100 100 100 98 100 8 32 51 35 5 92 0 0 0 0 0 0 0 5 0 5 0 1 0 2 2 4 3 6 5 5 3 3 6 80 96 99 97 98 100
100 100 57 98 100 100 100 100 100 100 100 100 98 88 52 69 38 0 37 0 50 0 0 0 0 2 0 8 16 2 2 0 0 0 0 0 5 5 0 2 0 10 5 5 50 80 100 100 100
100 99 100 100 100 100 96 98 100 100 100 100 100 17 93 90 14 12 99 58 94 1 0 0 0 0 0 1 4 1 1 2 10 1 2 16 2 0 12 1 3 5 20 92 100 99 88 54 70
100 100 100 100 90 100 100 100 100 100 100 100 100 8 85 100 1 30 14 71 0 1 1 0 0 0 4 0 8 7 2 9 0 0 0 0 0 0 2 4 4 16 93 100 26 4 0 0 2
77 96 99 100 94 100 96 100 100 100 100 89 90 10 45 100 46 100 10 54 99 0 2 10 4 0 1 1 0 0 0 1 0 0 0 0 0 5 2 2 4 5 5 5 5 1 1 5 5
100 92 100 100 100 82 89 99 100 100 100 86 98 31 6 59 100 100 48 100 16 6 0 0 0 2 0 1 1 0 0 2 2 3 0 0 0 0 0 0 0 5 4 0 0 0 0 0 5
54 74 100 100 100 95 100 99 89 83 80 60 97 64 0 5 99 88 57 2 100 36 57 0 0 32 0 0 0 0 0 0 0 2 32 21 6 0 0 0 2 0 1 0 0 0 0 1 42
100 100 100 62 100 100 100 100 100 91 99 100 100 43 15 5 27 100 38 1 18 77 87 0 18 17 15 0 3 77 0 0 19 81 100 0 2 0 0 0 0 0 0 0 0 0 63 5 7
100 98 99 60 97 100 100 98 100 100 100 48 58 11 4 4 54 91 100 2 20 80 8 70 25 21 84 0 2 10 0 45 93 15 4 0 0 0 0 0 15 6 97 92 0 0 96 11 38
94 21 59 95 41 45 74 96 100 100 100 100 98 6 5 17 62 48 94 94 42 37 3 50 0 46 3 37 88 65 45 3 91 95 14 80 70 100 100 0 74 70 100 100 12 6 43 91 89
91 96 95 35 49 28 61 8 100 91 100 100 99 39 2 57 43 51 8 100 2 82 5 0 12 53 3 100 29 94 65 5 2 8 6 36 97 9 58 44 15 78 39 11 96 87 54 1 100
37 32 92 43 100 68 97 99 53 95 98 95 100 62 19 91 62 91 53 97 3 0 100 1 0 60 29 83 100 60 25 87 74 22 24 98 97 8 22 19 100 35 67 58 39 47 6 85 15
2 82 59 19 32 6 44 100 6 69 100 96 100 100 24 100 36 45 98 64 5 2 51 0 0 59 29 0 16 100 96 6 98 2 47 100 9 83 12 70 44 60 11 4 70 40 1 10 14
59 25 91 36 4 5 3 81 96 76 81 83 96 35 57 100 90 55 45 56 5 0 100 6 10 0 0 0 2 0 21 52 36 23 23 1 1 7 2 97 52 43 47 6 94 19 65 2 19
0 5 10 96 71 4 7 5 100 100 100 68 80 87 6 41 100 31 96 69 5 2 49 2 97 0 18 0 0 58 74 16 32 94 84 74 0 5 99 89 43 1 100 18 79 84 0 12 45
0 0 91 10 81 78 10 12 100 100 18 100 92 93 62 36 92 85 97 85 9 0 0 0 100 0 37 0 47 56 70 89 78 73 98 72 2 0 0 81 0 71 0 39 72 6 0 100 70
4 1 72 36 27 68 11 27 100 100 97 5 89 100 27 98 82 100 91 66 77 0 0 0 99 0 0 0 0 90 21 7 72 8 5 0 47 0 0 1 0 90 59 100 42 2 65 77 100
0 73 79 76 100 100 11 52 98 98 100 72 100 100 95 100 96 46 80 98 96 1 0 0 10 0 0 0 8 37 33 17 97 67 70 66 12 0 0 14 0 72 56 0 0 94 95 31 20
0 0 54 69 100 100 98 66 100 100 100 91 58 74 91 97 86 37 100 1 53 96 0 0 0 0 0 0 7 100 47 98 100 88 0 8 5 0 26 0 0 98 0 0 18 23 97 0 0
0 0 65 44 100 36 26 83 60 32 6 43 59 4 79 86 100 87 67 7 77 57 23 0 0 0 0 0 14 3 63 93 8 2 100 5 1 18 6 2 2 0 0 9 0 0 8 0 3
0 3 64 8 98 5 0 22 13 11 99 16 2 29 83 66 96 89 100 5 7 25 17 0 0 0 0 0 0 0 0 54 53 55 99 90 50 39 100 29 0 5 97 97 0 24 97 0 98
5 5 40 100 100 23 35 73 35 5 95 88 62 6 85 38 85 95 96 63 69 9 0 0 0 0 0 0 0 0 0 74 95 4 79 77 2 36 91 84 34 5 55 76 91 0 0 0 72
4 5 4 35 90 31 31 100 94 1 54 100 100 57 44 100 100 73 99 33 48 33 91 0 0 0 0 0 0 0 0 8 98 100 100 27 93 52 4 53 0 0 0 13 0 0 0 0 0
5 5 33 5 5 5 8 15 3 32 99 100 100 80 71 99 100 88 100 54 92 55 100 1 0 0 0 0 0 0 0 0 8 100 98 83 98 76 90 8 0 0 4 0 0 0 0 0 0
27 9 63 100 3 16 47 34 14 78 66 100 100 100 16 74 100 55 100 95 96 100 10 15 0 0 0 0 0 0 0 0 0 9 24 0 90 58 59 34 100 25 53 1 0 3 4 5 34
82 18 23 89 88 21 100 0 3 8 0 36 60 2 49 100 85 100 100 100 84 100 100 49 0 0 0 0 0 0 0 0 0 0 0 9 74 98 100 100 100 100 100 63 0 2 87 11 38
24 90 7 61 95 62 100 94 8 84 5 0 0 0 65 82 100 100 100 100 100 100 100 97 54 4 0 0 0 0 0 0 0 0 0 0 0 1 99 100 100 100 97 0 0 83 83 3 1
95 93 56 0 3 48 100 100 91 98 3 0 2 8 99 99 93 100 100 100 100 100 100 100 100 66 4 2 1 5 0 0 0 0 0 0 0 0 19 100 100 100 46 24 4 14 20 100 3

GFSSGP_prec_cloud_081.txt.gz
Cloud_Cover
69 65 80 100 100 100 100 100 100 100 100 100 100 100 100 79 2 13 1 0 0 0 0 2 0 0 0 2 0 11 0 0 0 0 1 4 0 2 1 3 1 5 0 0 0 0 0 4 0
81 94 42 64 100 100 100 100 100 100 100 100 100 97 24 34 1 42 22 0 0 0 0 0 0 0 0 0 2 5 1 0 0 3 3 0 0 0 0 0 0 5 5 7 61 83 5 6 5
5 47 78 71 91 100 100 100 100 100 100 100 100 74 57 24 1 6 0 0 0 0 0 1 0 0 0 0 0 0 0 0 1 0 1 0 1 1 0 0 0 4 4 44 74 84 81 32 13
5 97 100 100 100 100 100 100 100 100 92 100 100 7 52 1 0 0 0 0 0 0 0 0 0 0 0 5 0 0 0 1 0 0 0 0 2 0 1 0 4 2 5 6 6 7 6 76 69
100 100 100 98 100 100 100 100 100 70 100 100 80 24 60 7 0 0 0 0 0 0 0 0 0 0 2 0 0 2 0 3 0 0 7 0 0 0 0 1 5 2 4 5 5 87 72 35 92
100 100 100 100 100 100 100 100 100 100 100 100 16 1 46 85 26 7 0 0 0 0 0 0 0 0 0 0 0 5 1 0 0 4 2 0 0 0 1 1 5 5 1 1 0 2 0 0 0
100 100 100 100 100 76 100 100 100 94 100 100 50 4 70 99 1 3 0 0 0 0 0 0 0 0 0 4 0 0 0 0 4 0 0 0 0 0 0 0 5 5 5 1 0 1 4 4 4
97 100 100 100 87 65 69 89 97 100 100 67 21 5 25 100 80 39 36 0 0 0 0 0 0 0 0 0 0 0 44 100 100 78 0 0 0 0 0 0 4 3 0 0 0 0 0 28 8
100 100 100 100 100 99 84 56 63 100 40 100 88 5 6 96 25 10 36 0 0 0 0 0 0 0 0 0 0 0 4 62 97 22 0 0 0 0 0 0 0 2 12 3 26 0 5 4 94
100 57 100 100 100 100 82 100 94 100 24 98 24 5 29 100 57 34 11 2 2 28 2 0 0 0 0 0 0 0 0 0 2 0 0 0 0 0 0 0 13 100 22 100 86 96 7 5 46
100 100 100 100 100 100 100 72 100 100 68 30 89 5 27 94 1 98 12 0 1 4 0 6 0 0 0 11 0 57 0 0 1 0 0 0 90 97 0 33 46 100 80 91 33 10 0 5 8
100 100 100 100 100 66 98 38 100 100 75 26 37 5 2 99 100 8 81 0 0 0 0 2 0 3 0 17 16 3 0 33 0 81 0 6 8 32 0 58 34 90 11 3 0 0 41 3 66
10 100 100 100 96 48 57 61 25 92 98 96 32 5 5 100 83 2 4 98 9 0 0 0 0 0 18 55 91 46 15 8 85 26 73 95 14 78 1 0 5 0 12 2 0 0 40 5 0
54 100 100 100 100 6 7 31 40 90 18 12 99 11 5 5 99 40 5 70 2 0 0 0 0 0 35 0 5 0 0 0 68 100 12 19 19 1 0 36 6 6 59 0 0 0 7 12 0
100 99 100 100 80 22 13 23 7 98 96 100 99 5 82 97 86 100 67 98 10 3 0 54 0 0 32 0 19 40 0 45 73 42 0 6 0 0 0 0 0 0 0 3 2 0 0 22 1
100 67 92 23 29 5 4 74 100 31 43 100 100 17 99 100 48 45 52 62 5 1 2 0 0 0 0 0 0 0 18 55 100 100 2 0 21 0 0 61 50 0 2 4 96 6 0 0 0
43 28 20 94 100 18 0 4 100 100 39 93 100 98 83 98 97 49 39 59 0 0 12 0 0 0 0 0 0 0 0 73 100 91 2 0 0 0 0 56 0 19 0 1 0 0 16 0 0
0 0 16 97 100 97 4 52 95 100 100 100 100 100 35 63 1 6 19 5 4 0 0 20 54 0 0 0 0 0 65 7 5 5 39 0 0 0 3 4 20 79 2 0 0 4 100 0 1
0 4 54 100 100 100 23 87 34 100 100 100 100 100 45 19 45 69 4 0 0 0 0 0 100 0 0 0 0 0 4 10 78 100 11 55 0 0 44 0 0 0 0 0 0 0 4 34 0
0 5 94 100 100 11 89 85 29 100 100 96 100 98 42 64 36 79 100 17 16 2 0 0 16 0 0 0 3 0 2 100 86 62 17 8 0 0 0 0 56 100 26 0 0 0 0 9 0
0 0 92 47 60 27 98 88 5 75 100 100 76 89 34 94 100 34 15 18 1 5 0 0 0 0 0 0 0 30 0 2 5 6 96 5 1 0 29 0 0 79 1 0 0 11 0 0 0
0 0 80 33 50 100 100 90 3 10 100 100 100 41 26 98 83 93 5 39 0 1 0 0 0 0 0 0 4 100 50 9 31 59 100 5 0 0 0 0 0 8 0 0 0 95 10 0 0
0 4 99 89 67 100 41 54 5 16 99 100 100 85 24 48 84 94 62 7 94 1 6 6 0 0 0 0 1 0 4 100 100 63 97 5 0 0 35 0 0 0 3 34 0 0 0 0 0
0 7 98 28 100 74 5 31 5 0 5 76 100 100 90 11 59 62 65 75 49 8 88 56 0 0 0 0 0 0 4 65 98 86 99 46 45 59 99 73 0 0 45 69 0 33 0 0 0
0 15 53 82 100 11 79 89 98 12 4 31 100 100 86 100 89 44 65 74 24 7 16 4 0 0 0 0 0 0 0 4 35 100 95 77 86 95 15 51 7 56 44 1 0 0 0 0 0
0 5 46 98 18 88 98 91 7 7 94 60 37 100 100 100 100 95 42 93 93 72 99 1 0 0 0 0 0 0 0 0 0 38 99 5 81 27 17 100 97 99 100 76 1 0 0 0 0
0 0 11 100 5 88 23 0 0 1 2 0 22 100 100 95 7 57 66 100 100 100 97 100 13 81 8 0 0 0 0 0 0 0 5 4 18 39 89 100 100 100 100 91 57 0 0 0 0
0 0 2 5 34 100 14 4 11 64 82 26 30 100 100 100 100 100 100 45 64 97 99 77 93 9 78 0 0 0 0 0 0 0 0 0 0 0 59 100 100 100 100 52 94 9 2 0 2
3 9 0 2 5 64 98 10 20 91 21 1 0 100 100 100 100 100 100 100 100 100 100 100 100 100 100 100 7 2 0 0 0 0 0 0 0 22 38 63 100 100 100 97 86 100 1 5 1
86 18 21 0 5 100 100 26 92 100 87 10 0 99 100 100 100 100 100 100 100 100 100 100 100 100 100 100 100 77 93 5 3 0 0 0 0 0 0 11 100 100 100 100 100 81 2 26 5

GFSSGP_prec_cloud_084.txt.gz
Cloud_Cover
76 100 100 97 100 100 100 100 100 99 100 99 100 100 2 0 1 3 0 0 0 0 0 0 0 0 0 0 4 0 0 0 5 4 0 5 4 1 2 4 0 7 6 5 0 29 3 3 5
10 74 100 100 100 100 100 100 100 100 100 100 100 33 9 34 0 12 14 0 0 0 0 0 0 0 0 3 3 6 0 0 2 5 0 0 1 0 5 4 12 13 5 21 100 54 9 18 47
5 5 78 100 100 100 100 100 100 98 86 100 57 90 5 54 13 2 0 0 0 0 0 0 2 0 0 2 0 1 0 0 0 0 0 0 5 2 0 2 1 8 5 79 89 51 27 47 82
4 31 88 100 100 100 100 100 100 100 100 100 6 10 1 0 0 0 0 0 0 0 0 0 2 0 0 0 2 3 0 1 4 2 1 0 5 0 2 0 34 5 5 6 5 6 5 6 58
74 87 90 100 100 100 100 100 98 100 100 98 5 97 11 0 0 0 0 0 0 0 0 0 0 1 2 1 0 2 0 1 1 13 1 5 4 1 2 0 0 1 5 39 36 69 35 73 100
100 100 100 100 97 100 100 100 97 87 100 100 5 96 4 0 0 0 0 0 0 0 0 0 0 0 0 0 5 6 25 16 1 3 13 0 1 7 3 0 0 0 0 0 0 0 0 5 12
100 100 100 100 81 100 100 100 100 98 100 79 24 5 6 0 0 0 0 0 0 0 0 0 0 0 1 5 54 98 6 2 0 0 0 0 0 0 0 14 10 2 4 1 0 2 0 0 0
100 100 99 100 85 100 100 95 70 100 8 31 11 18 32 0 0 0 0 0 0 0 0 0 0 0 0 0 5 0 5 2 0 0 2 4 0 0 4 1 51 79 0 0 0 5 5 37 0
100 100 100 100 81 92 73 100 92 100 95 84 47 88 0 0 0 0 0 0 0 0 0 0 0 0 0 0 0 0 0 1 0 0 5 31 0 1 2 12 13 4 0 2 4 4 58 12 4
28 100 100 100 100 66 62 100 100 80 96 68 92 66 3 0 0 0 0 0 0 0 0 0 0 0 0 0 0 0 0 0 4 0 5 5 0 5 44 46 6 5 2 4 0 82 100 96 91
25 86 100 100 100 91 37 65 88 60 96 27 100 48 5 5 1 16 3 5 4 0 0 0 0 0 0 0 0 0 89 45 30 2 0 3 0 4 44 92 97 6 5 2 0 6 98 37 6
11 95 100 100 100 100 72 100 100 100 74 93 80 58 14 70 5 24 2 0 0 0 0 0 1 0 0 0 0 4 74 99 3 3 0 41 0 1 5 1 4 6 0 0 0 0 73 100 100
11 100 99 88 100 100 100 89 100 98 93 67 30 29 5 14 37 49 3 2 0 0 0 0 1 0 0 0 0 0 28 4 0 0 73 0 0 0 0 1 5 0 0 0 0 0 3 88 77
68 100 87 100 97 100 87 41 87 93 100 94 97 16 6 98 98 77 39 5 0 0 0 0 0 0 0 0 0 66 97 5 3 0 0 0 0 0 0 0 2 0 2 0 0 0 0 1 4
96 92 89 100 100 100 100 90 75 99 50 91 100 74 98 100 31 71 1 3 2 0 0 0 0 0 0 1 2 15 100 12 25 0 3 0 0 0 0 0 15 36 8 0 0 0 0 0 0
21 87 98 100 92 99 100 100 100 26 82 64 100 67 74 9 99 93 41 1 1 0 0 0 0 0 0 0 1 4 29 90 3 0 0 0 2 0 0 0 0 4 5 22 0 0 0 0 0
43 76 93 99 95 100 100 96 100 100 82 80 100 83 100 97 56 55 53 6 0 0 0 4 0 0 0 0 0 1 33 36 4 10 7 2 0 0 3 0 0 0 0 0 0 0 0 0 0
0 15 61 100 100 100 100 100 100 100 100 100 100 67 100 100 100 2 10 8 0 0 0 0 0 0 0 0 0 5 5 100 92 5 30 4 0 0 0 0 1 28 0 0 2 2 0 0 0
0 0 96 100 100 100 100 100 98 100 100 88 100 100 100 100 100 40 5 3 0 0 0 0 0 0 0 0 0 9 61 71 63 94 37 0 0 20 0 0 0 0 0 0 0 5 0 0 0
0 4 98 96 78 100 97 98 91 100 100 100 100 95 100 100 100 77 0 2 0 0 0 0 0 0 0 0 0 1 76 97 5 99 6 0 0 4 0 0 5 0 1 0 0 0 0 0 0
0 4 38 34 75 43 94 46 91 8 79 100 91 100 100 100 100 97 16 10 40 4 11 0 0 0 0 0 0 3 6 4 5 96 67 1 0 2 5 2 100 52 3 0 0 0 0 0 18
0 4 5 11 81 66 91 94 66 5 24 100 99 100 95 77 87 100 100 11 18 0 0 0 4 2 0 0 0 0 5 7 72 80 86 43 6 1 5 6 15 14 3 0 1 0 0 0 5
0 5 95 5 5 26 79 13 98 71 97 100 98 100 88 45 82 97 100 30 30 20 0 5 5 4 0 0 0 12 53 90 89 5 100 13 16 5 5 15 8 40 99 0 0 39 0 0 0
0 71 88 26 5 9 27 88 82 92 41 78 100 93 82 100 100 100 100 100 54 28 46 3 7 5 0 0 0 0 0 87 55 86 95 82 17 4 78 22 16 47 61 43 5 2 3 0 0
0 53 28 4 30 56 92 47 73 30 39 87 88 100 94 100 100 100 100 100 86 5 30 0 70 3 0 0 0 0 0 0 5 71 77 21 5 5 6 5 87 75 50 76 21 41 35 5 0
0 12 8 5 96 11 100 37 97 7 5 9 100 98 100 100 88 100 34 95 100 49 1 3 6 5 5 4 0 0 0 0 32 5 39 98 30 4 12 64 98 100 79 67 96 100 100 95 8
0 0 12 98 72 82 42 68 8 19 10 49 73 61 100 89 95 100 99 91 83 67 81 90 93 91 99 1 5 6 0 0 0 1 5 62 60 7 0 93 100 98 100 50 35 98 100 97 100
0 0 54 64 5 1 7 3 8 43 8 19 42 99 100 100 100 96 98 94 93 98 83 85 96 57 80 42 99 53 5 3 5 0 3 5 2 82 24 50 100 100 100 100 100 63 39 9 87
0 0 3 71 6 4 2 30 43 0 0 98 63 87 100 100 100 100 100 100 100 100 100 100 100 100 100 100 100 93 35 100 100 10 2 0 2 62 100 55 97 100 96 100 100 96 43 0 5
0 6 79 100 94 5 75 86 92 5 6 5 85 42 100 100 100 100 100 100 100 100 100 100 100 100 96 100 100 100 99 100 100 100 100 100 100 100 100 21 5 20 86 100 100 100 53 3 4

GFSSGP_prec_cloud_087.txt.gz
Cloud_Cover
100 87 100 95 100 100 100 100 100 79 23 100 2 0 0 0 0 1 0 0 4 4 0 0 0 1 1 1 6 14 5 22 96 99 76 94 100 100 100 100 87 91 39 25 41 5 5 8 5
100 91 100 84 100 100 100 100 100 15 100 60 9 2 6 0 0 6 18 0 0 0 0 0 0 9 21 0 0 0 3 10 2 3 4 2 6 9 3 5 3 5 5 64 89 62 5 78 5
100 100 91 99 100 100 100 100 100 78 100 83 9 3 58 46 31 1 0 0 0 0 0 0 4 1 2 0 0 0 0 5 10 1 0 6 0 0 3 1 5 14 73 98 81 100 100 91 95
4 97 99 100 100 100 100 100 100 88 100 100 16 5 19 3 0 0 0 0 0 0 0 0 5 2 5 16 75 0 0 0 14 1 0 5 0 1 4 5 5 5 5 5 5 7 6 79 100
81 100 100 100 100 99 100 100 100 78 100 94 22 29 35 0 0 0 0 0 4 18 0 0 4 20 65 5 5 0 6 9 0 5 0 11 4 1 0 2 4 3 10 8 0 5 18 88 100
100 100 100 100 100 96 100 100 90 91 100 7 7 0 14 0 0 0 0 0 1 10 0 0 0 3 1 5 2 3 4 6 2 9 0 1 0 4 0 1 6 7 0 0 0 3 5 5 98
100 100 100 100 100 100 100 95 100 100 68 6 5 10 89 0 0 0 0 0 1 16 0 0 0 1 6 10 0 4 2 0 3 5 0 0 1 1 5 28 78 2 0 1 0 3 3 11 22
98 88 100 100 100 100 100 98 100 100 100 6 13 16 91 1 0 0 0 0 22 25 1 0 1 3 0 0 4 18 5 0 0 5 0 14 5 12 21 4 38 0 0 0 5 5 100 89 91
100 100 96 95 82 91 100 100 100 86 47 100 5 5 1 0 0 0 0 2 19 21 4 0 0 1 0 0 5 5 4 2 3 4 0 0 2 32 74 28 0 0 0 2 42 4 4 30 100
100 100 100 100 96 92 100 100 100 97 9 98 6 10 4 3 0 0 0 11 14 15 4 1 0 0 0 0 5 6 0 0 1 3 0 0 3 59 62 74 2 0 0 4 5 80 13 78 28
70 100 100 100 100 99 96 100 100 42 46 21 99 91 76 62 4 0 2 2 0 0 0 0 0 0 0 0 3 1 0 0 1 0 0 0 2 15 60 5 5 0 0 14 98 52 98 16 47
5 100 100 100 100 100 96 100 100 100 100 7 29 51 8 53 26 5 0 5 0 0 0 0 0 0 0 5 20 0 3 0 0 0 0 0 0 0 2 6 15 5 7 22 79 75 92 41 100
5 78 83 100 99 100 100 100 100 100 100 22 5 5 38 15 24 26 5 3 0 0 0 5 0 0 0 23 39 1 0 0 0 0 0 0 0 1 0 0 3 0 0 1 57 86 85 97 80
6 45 97 100 100 100 100 100 100 100 100 100 36 5 41 30 10 5 5 4 0 0 5 0 0 0 0 6 21 5 0 0 0 67 0 0 0 0 0 5 0 0 0 0 0 3 5 40 34
9 67 87 98 100 100 100 100 100 100 100 100 100 5 22 94 63 5 0 8 0 0 0 0 0 0 1 0 0 5 0 5 52 3 0 0 0 0 0 4 5 1 0 0 0 0 0 0 5
1 27 100 100 100 100 100 100 100 100 100 100 55 75 12 100 80 4 0 5 0 0 0 0 0 0 0 0 2 29 8 6 48 5 0 2 0 0 0 1 0 2 0 0 0 0 0 0 0
0 6 26 100 100 100 100 100 100 100 100 100 66 92 100 48 63 87 4 5 0 0 0 0 0 0 0 0 5 9 86 23 10 0 0 26 0 0 0 0 0 0 4 1 0 0 0 0 0
2 12 89 100 96 100 100 100 100 100 100 100 100 100 66 100 11 3 36 0 0 0 0 0 0 0 0 0 4 5 5 82 26 0 0 15 5 0 0 0 0 0 0 0 0 1 0 0 0
4 5 5 33 100 100 100 100 100 100 100 100 100 100 100 100 92 69 32 0 0 0 0 0 0 0 0 0 4 94 68 9 21 32 0 0 5 5 5 1 0 0 0 0 0 0 0 0 0
3 5 9 5 99 100 100 100 100 100 91 97 100 100 100 100 48 88 95 56 0 0 0 0 0 0 0 0 0 1 61 5 5 5 4 0 3 5 54 5 4 0 2 0 0 0 0 0 0
0 5 20 19 68 100 100 100 100 100 100 100 100 100 100 51 100 94 97 78 59 0 4 0 0 0 0 0 1 5 5 9 9 18 2 5 0 4 10 24 10 4 5 1 4 8 0 0 0
0 10 89 47 57 78 100 100 100 100 100 100 99 100 100 63 100 100 100 44 7 42 9 0 0 0 0 0 0 0 18 98 61 94 81 5 5 5 84 98 100 62 28 5 50 7 0 1 37
0 5 100 6 5 5 44 100 68 100 100 100 94 100 55 100 99 97 90 100 42 92 58 0 0 0 0 0 0 0 0 36 62 74 100 100 10 14 73 41 40 74 70 26 21 66 98 4 3
0 2 96 60 5 2 15 19 97 88 98 90 75 100 100 100 100 99 100 100 100 100 98 46 0 4 0 0 0 0 4 4 5 70 84 82 47 11 48 62 95 49 50 83 100 74 100 55 19
0 4 86 79 7 0 0 4 5 6 5 34 86 100 80 86 100 80 80 100 100 97 70 33 93 2 5 0 4 0 2 1 0 15 99 95 36 6 5 26 99 98 87 54 99 81 38 92 86
0 2 5 37 5 0 0 1 5 90 7 84 100 97 100 94 59 99 87 97 100 100 100 18 8 27 5 5 14 1 6 3 5 3 5 5 30 37 0 55 66 95 35 23 100 100 62 27 48
0 0 4 40 5 0 0 8 4 52 76 80 97 92 100 99 90 100 100 100 100 93 98 32 80 85 97 92 4 1 14 5 2 5 3 5 8 7 5 5 83 38 36 61 100 100 99 6 22
0 0 2 10 10 4 1 3 5 31 100 100 100 97 100 100 100 100 60 100 91 91 98 92 100 99 64 4 9 5 24 7 37 6 4 5 66 100 27 5 90 91 5 41 100 100 100 6 8
0 0 5 5 5 5 6 0 2 5 45 41 100 97 100 100 100 100 100 100 100 100 100 100 100 100 99 67 100 78 43 5 93 100 78 11 99 93 100 76 100 83 5 4 96 99 100 7 6
0 0 3 5 5 5 4 0 70 6 0 1 100 90 100 100 100 100 100 100 100 100 100 100 100 100 100 100 82 100 100 99 100 100 100 100 100 100 100 100 100 100 85 64 100 100 69 78 100

GFSSGP_prec_cloud_090.txt.gz
Cloud_Cover
100 100 100 98 100 100 100 100 100 100 100 83 0 0 0 0 0 1 1 1 2 1 2 0 3 5 5 0 8 5 0 19 98 100 100 100 100 100 100 100 100 100 100 94 33 84 89 5 1
100 100 100 100 100 100 99 100 100 88 100 57 0 0 1 0 0 63 37 0 0 0 3 1 4 8 8 8 2 11 23 6 8 6 51 82 91 100 90 80 64 15 45 56 28 97 78 74 5
97 100 100 100 100 100 97 97 100 83 94 7 0 0 24 59 33 30 2 0 0 2 0 1 11 9 7 0 0 16 8 14 0 4 5 4 11 1 4 8 60 58 100 26 32 56 33 39 11
100 100 100 100 100 100 99 100 57 26 40 4 4 4 13 44 0 1 0 0 10 3 0 1 12 3 2 0 0 2 7 5 0 2 5 7 2 5 5 24 25 5 9 22 91 98 100 98 100
100 100 100 100 100 100 100 100 79 98 19 5 1 68 76 19 0 0 0 5 14 5 29 3 0 1 0 0 1 3 6 5 7 0 2 8 2 7 4 4 1 1 0 1 3 5 69 100 100
99 100 100 100 100 100 100 72 90 97 95 48 0 4 63 36 0 6 0 8 2 8 6 0 0 0 0 1 1 1 3 3 0 0 4 7 2 0 1 4 5 0 0 0 4 5 80 100 100
100 84 100 100 100 100 60 100 97 100 23 5 0 19 98 64 5 0 14 28 9 0 0 0 0 0 8 1 0 7 2 2 0 2 2 5 5 80 100 8 0 0 5 5 5 31 64 100 99
100 94 100 100 100 96 100 99 31 73 61 5 5 39 99 51 0 1 40 40 27 13 3 1 4 0 2 5 2 0 0 1 2 9 2 7 100 51 1 0 1 0 6 36 7 22 41 100 100
99 89 100 100 90 95 79 100 76 15 88 27 8 4 0 10 0 16 63 86 71 50 24 21 27 0 1 5 4 1 0 0 1 5 0 2 9 94 5 2 4 0 0 67 42 78 100 100 100
20 31 100 100 100 100 94 75 100 79 20 14 16 5 4 0 0 18 49 100 100 78 54 12 6 0 0 6 4 12 0 0 0 0 0 5 4 0 5 2 0 4 5 18 48 38 100 90 100
8 12 100 100 95 100 100 71 100 100 25 8 40 8 4 5 0 0 1 24 24 22 29 17 7 0 2 2 1 0 0 0 0 0 0 5 1 3 4 7 3 8 98 99 34 5 100 96 98
5 74 100 100 100 100 100 96 100 99 100 5 7 5 0 5 0 0 0 0 1 1 0 0 0 0 5 8 0 0 0 0 0 0 0 0 0 0 0 0 0 4 65 98 16 5 38 89 92
93 82 100 100 100 100 100 100 100 100 98 100 5 5 3 0 0 0 5 0 0 0 0 0 0 0 0 0 0 4 0 0 0 0 0 0 0 0 0 0 0 4 34 83 17 5 9 12 91
56 18 68 100 100 93 99 100 100 100 100 100 85 24 1 5 3 4 1 0 0 0 0 0 0 0 0 1 5 3 5 0 0 0 0 0 0 0 0 0 0 0 0 5 5 5 54 68 43
37 43 96 100 100 100 100 98 100 77 93 38 8 38 4 0 3 1 5 0 0 1 0 0 0 0 0 5 7 22 0 0 0 0 0 0 0 0 0 0 0 0 0 0 1 0 6 5 6
56 7 100 100 100 100 100 100 100 100 95 5 5 82 1 1 3 0 0 0 0 0 0 0 0 1 0 5 5 15 5 0 0 0 0 0 0 0 0 0 0 0 0 0 0 0 0 0 0
99 32 68 97 97 100 100 100 100 100 100 22 6 5 28 99 29 12 0 0 0 0 0 0 0 0 0 3 5 9 93 0 4 3 1 0 0 0 0 0 0 0 0 0 0 0 0 0 0
100 12 99 95 91 100 100 100 100 100 100 100 68 67 87 64 10 64 5 1 0 0 0 0 0 0 0 0 5 4 5 5 0 2 5 0 4 2 0 0 0 0 0 0 0 0 0 0 0
0 9 94 100 100 100 100 100 100 100 100 94 68 30 99 92 45 69 61 83 4 0 0 0 0 0 0 0 1 5 5 4 4 0 1 5 5 5 5 5 5 0 0 0 0 0 1 0 0
0 3 5 85 100 100 100 100 100 100 100 89 52 24 79 84 94 5 79 45 5 0 0 0 0 0 0 0 0 5 5 2 5 5 5 5 5 5 14 11 5 6 5 5 0 0 0 0 0
0 1 1 48 100 100 100 100 100 100 100 100 98 80 50 74 100 21 77 14 5 0 0 0 0 0 0 0 1 4 4 4 5 5 5 6 5 27 5 87 38 36 49 7 5 0 0 0 0
0 7 67 92 100 98 100 100 100 100 100 100 100 100 58 5 100 87 28 88 5 0 0 0 0 0 0 0 0 0 0 4 5 5 5 5 4 7 6 48 100 82 72 96 32 5 2 0 0
0 6 84 83 40 100 100 100 100 100 100 97 100 100 83 16 12 49 100 100 77 88 45 35 0 0 0 0 0 0 0 3 3 5 38 38 4 5 5 35 54 63 100 55 5 15 5 2 7
0 66 41 95 69 33 83 99 100 89 71 100 100 100 100 100 72 96 100 100 100 30 100 66 0 0 2 0 0 0 0 0 16 5 20 91 85 0 5 9 71 6 100 26 14 6 5 5 4
0 76 92 46 85 52 26 100 100 100 100 93 100 100 100 100 92 96 95 100 100 79 96 98 2 15 0 5 5 2 0 5 5 3 9 15 42 2 4 5 6 5 44 100 9 5 5 5 5
0 5 18 12 5 5 2 82 100 98 98 99 100 100 100 99 100 95 100 75 100 100 94 100 14 17 0 5 5 4 4 35 1 0 2 81 5 5 0 5 26 32 5 100 99 15 15 5 5
0 0 4 5 5 5 2 24 100 53 100 100 100 100 100 100 100 59 100 33 99 100 100 100 95 78 6 5 47 4 5 5 5 5 3 5 6 1 4 5 68 86 19 52 100 88 18 56 40
0 0 0 4 5 5 4 0 30 83 98 100 100 100 100 100 100 100 100 99 100 100 100 90 100 59 60 61 5 11 14 22 5 6 5 4 67 30 74 77 28 18 54 97 100 100 100 42 89
0 0 0 0 0 5 4 0 0 0 26 99 100 100 93 100 100 100 100 100 100 100 100 100 98 65 100 99 86 39 78 100 57 46 81 100 100 100 80 70 100 98 99 55 92 100 100 100 90
0 0 0 0 0 0 5 1 0 0 14 84 100 98 100 97 100 100 100 100 100 100 100 100 99 99 71 100 100 94 80 100 100 100 100 100 97 100 100 99 100 100 100 100 100 100 100 99 100

GFSSGP_prec_cloud_093.txt.gz
Cloud_Cover
100 100 93 81 100 100 99 100 5 88 0 0 0 0 0 0 0 0 0 0 0 0 2 1 0 0 0 17 1 0 0 21 100 72 100 100 100 100 100 100 100 100 100 100 100 94 20 55 9
100 100 88 100 93 91 91 74 3 33 0 0 0 0 0 19 0 1 2 4 0 0 10 2 0 6 3 6 8 9 1 10 44 100 100 100 100 100 100 100 100 100 100 74 63 52 100 100 68
100 100 100 100 100 100 66 66 10 15 2 0 0 0 3 72 8 11 1 3 5 14 0 0 8 14 4 2 4 3 6 0 16 5 2 18 51 82 81 57 61 90 100 100 100 74 93 68 100
100 99 100 100 100 100 100 18 48 2 4 78 0 8 32 53 0 6 12 2 4 0 0 3 6 7 2 0 8 5 2 8 5 15 4 5 4 6 50 98 84 68 99 100 100 100 100 80 99
100 100 100 100 89 97 100 60 100 5 4 0 0 86 76 28 17 12 27 3 0 0 26 19 5 1 0 0 1 2 2 0 3 5 35 5 5 6 9 5 4 2 1 3 20 61 96 100 100
100 100 100 100 98 90 90 65 5 0 5 0 0 0 57 75 12 83 27 1 0 4 2 14 0 1 7 0 0 9 0 2 2 4 7 4 10 16 77 94 31 5 0 5 5 86 100 100 100
100 100 99 100 100 99 46 51 5 4 4 3 0 0 37 100 26 76 50 8 0 0 24 25 7 13 0 0 0 5 14 4 9 9 12 99 100 100 100 24 5 5 5 5 32 6 29 100 100
100 67 99 100 100 100 79 41 5 4 4 5 0 0 52 98 39 64 38 5 0 2 17 30 22 32 11 4 2 0 0 6 3 2 25 100 66 0 0 0 0 10 21 83 97 5 38 100 100
90 99 100 93 100 50 45 99 13 1 3 15 1 3 0 39 41 26 34 0 0 12 39 22 2 1 3 11 2 2 0 13 11 4 5 4 6 3 3 0 5 96 28 6 73 89 98 100 100
3 53 99 97 73 98 17 84 84 6 1 15 5 1 19 24 13 1 0 0 2 19 48 37 0 12 7 4 0 6 6 6 2 0 5 0 7 19 0 5 92 34 4 18 99 99 100 100 100
9 37 14 100 79 55 45 29 5 90 5 3 5 3 1 0 0 0 0 0 0 1 7 11 0 28 1 2 0 0 0 0 0 0 1 0 2 0 0 4 17 50 5 13 86 96 100 99 100
46 7 5 88 99 84 100 77 5 85 13 68 5 4 0 0 0 0 0 0 0 0 0 0 0 3 4 2 0 0 0 0 0 0 0 0 0 0 0 5 5 5 5 14 71 9 100 91 100
5 22 5 10 100 100 100 100 91 48 24 98 5 5 1 0 0 2 0 0 0 0 0 0 0 0 0 0 0 0 0 0 0 0 0 0 0 0 0 5 5 5 5 5 30 29 56 16 88
6 28 6 19 100 75 70 99 99 42 96 64 39 19 4 0 0 4 0 0 0 0 0 0 0 0 5 0 0 0 0 0 0 0 0 0 0 0 0 0 4 1 5 5 5 5 14 34 6
83 7 40 42 100 100 100 100 100 100 5 6 79 6 4 0 0 0 2 0 0 0 0 0 0 0 2 5 0 0 0 0 0 0 0 0 0 0 0 0 0 0 0 4 6 26 6 5 4
99 46 47 17 100 100 100 92 99 100 98 98 5 5 5 0 0 2 0 0 0 0 0 0 0 0 0 0 4 0 0 0 0 0 0 0 0 0 0 0 0 0 0 0 0 0 0 0 0
100 99 66 100 100 100 100 100 84 100 95 84 49 5 5 5 5 4 0 0 0 0 0 0 0 0 0 3 0 0 0 0 0 0 0 0 0 0 0 0 0 0 0 0 0 0 0 0 0
100 99 75 100 79 100 100 100 100 100 97 89 96 83 5 5 17 3 5 34 5 0 0 0 0 0 0 0 0 0 0 0 5 3 0 0 5 5 4 1 0 0 0 0 0 0 0 0 0
100 96 14 95 100 100 100 100 100 100 100 100 100 56 71 93 12 5 5 18 26 0 0 0 0 0 0 0 0 5 1 2 4 3 0 0 1 5 5 5 5 0 0 0 0 0 0 0 0
89 100 71 75 96 100 100 100 100 100 100 100 97 48 72 45 17 5 6 81 68 15 0 0 0 0 0 0 0 2 5 5 5 5 5 5 5 5 5 7 5 5 2 0 0 0 0 0 0
10 25 89 61 100 100 100 100 100 100 100 100 88 100 92 8 5 20 14 9 67 69 0 0 0 0 0 0 1 4 2 5 5 5 8 5 5 5 5 8 4 5 5 4 0 0 0 0 0
96 5 43 76 100 100 97 100 100 100 100 100 87 58 16 50 5 42 43 6 20 50 0 0 0 0 0 0 0 0 0 1 5 1 0 0 5 6 5 81 44 4 5 5 5 0 0 0 0
100 12 5 6 100 100 100 100 100 100 100 100 100 83 5 6 56 10 40 23 44 5 12 0 0 0 0 0 0 0 0 0 0 5 5 0 0 4 4 9 100 47 5 5 5 5 5 0 0
30 78 78 71 100 100 100 100 100 100 100 100 100 79 62 54 62 47 93 38 100 7 4 6 1 0 0 0 4 0 1 0 0 4 5 2 0 0 5 5 14 100 74 5 5 5 5 5 0
96 100 73 74 82 100 100 100 100 100 100 100 100 100 100 24 75 95 99 80 63 42 72 100 4 0 0 0 1 3 3 11 31 5 5 5 1 0 3 5 5 56 100 18 5 6 5 5 3
48 100 100 23 38 100 100 100 100 100 100 100 100 100 100 93 26 99 100 97 99 100 99 100 62 11 6 0 1 4 1 7 2 5 5 5 65 4 0 5 7 14 55 100 12 5 44 7 1
0 0 42 89 6 2 97 100 100 100 100 100 100 100 98 89 100 100 100 100 100 100 100 74 100 65 99 13 5 2 0 5 7 0 1 5 31 42 4 10 57 14 14 83 100 11 5 41 3
0 0 4 92 80 5 4 100 100 100 100 100 100 100 100 100 100 100 100 100 100 100 100 100 100 72 100 92 48 37 5 3 5 4 0 2 5 41 81 100 48 21 6 71 43 90 24 17 16
0 0 0 10 5 5 5 0 34 100 100 100 100 100 100 100 100 100 100 100 100 100 100 100 100 96 53 100 100 83 20 34 29 18 5 100 54 98 55 100 98 100 100 100 99 84 84 24 6
0 0 0 0 2 4 1 1 0 1 52 99 100 99 100 100 100 100 100 100 100 100 100 100 100 100 98 95 100 100 100 57 14 88 100 94 67 8 100 96 98 96 75 100 100 100 30 96 7

GFSSGP_prec_cloud_096.txt.gz
Cloud_Cover
100 81 68 75 100 100 100 11 0 0 0 0 0 0 0 0 2 0 0 0 0 6 6 19 2 2 0 5 0 0 7 45 89 100 100 99 45 100 100 91 60 75 100 100 100 100 100 98 100
93 100 100 100 100 100 70 2 0 0 0 0 0 3 50 21 0 0 5 21 17 100 92 1 0 5 7 10 0 0 1 1 3 70 96 29 100 100 100 82 100 100 100 100 100 100 33 58 99
100 100 97 100 42 100 56 4 0 0 0 0 0 31 32 0 0 14 10 40 98 100 16 0 0 0 3 5 5 1 4 2 8 6 86 100 100 100 100 100 100 100 100 100 98 79 86 14 62
100 91 100 100 99 100 71 12 0 0 0 0 0 18 0 0 0 3 33 93 100 19 74 3 0 0 0 11 2 2 5 5 6 12 8 5 5 7 68 80 100 86 75 85 100 100 100 54 6
100 98 100 100 97 99 83 15 5 4 0 69 90 21 0 3 1 21 40 97 50 37 15 8 0 1 2 2 5 0 2 1 8 12 5 26 78 97 100 31 7 45 72 100 100 88 100 88 91
100 100 89 80 100 89 49 4 5 5 3 6 4 14 4 3 19 40 36 18 0 13 48 24 0 0 1 0 5 1 6 0 2 9 70 100 100 93 100 99 73 24 18 68 96 100 66 100 100
100 100 91 38 77 57 11 11 1 5 5 0 6 16 1 32 42 37 17 0 0 3 56 60 10 0 1 0 0 2 3 0 8 100 100 100 100 99 100 100 59 5 5 4 7 85 100 100 100
100 100 81 100 95 11 16 14 44 7 63 3 7 2 3 36 28 38 4 0 0 48 92 22 27 75 81 18 0 2 1 0 5 88 100 100 7 0 0 1 5 5 5 5 9 21 100 100 100
70 100 99 62 25 74 9 28 36 70 18 15 0 0 0 7 20 14 0 0 0 33 51 6 6 31 4 50 1 0 2 1 0 1 76 75 100 60 56 37 5 5 5 5 5 88 100 100 100
86 97 98 90 29 61 40 51 18 16 63 6 0 0 0 4 7 0 0 0 0 16 14 0 41 42 57 2 87 25 56 54 37 30 94 100 51 43 7 3 5 10 64 82 98 100 100 100 100
88 79 66 100 70 6 5 32 5 46 21 5 0 0 0 0 1 0 0 0 0 0 0 0 28 62 11 5 10 36 27 8 24 86 98 45 2 0 5 0 5 18 100 75 95 99 100 100 72
88 55 91 94 36 10 31 19 9 13 17 6 5 4 0 0 0 0 0 0 0 0 0 0 18 90 27 14 5 5 3 2 14 0 0 0 0 0 2 0 5 8 24 16 100 100 98 99 100
79 100 98 100 99 56 76 22 5 61 3 3 2 5 0 0 0 0 0 0 0 0 0 0 7 59 50 44 24 24 4 11 0 0 0 0 0 0 11 7 6 5 23 86 96 100 100 100 84
79 100 96 100 47 100 98 68 5 10 0 6 1 4 0 0 0 0 0 0 0 0 0 0 1 11 34 7 32 19 12 0 0 0 0 4 2 0 0 8 36 0 2 22 5 5 25 14 16
88 85 100 100 43 93 96 88 60 4 5 5 6 7 0 0 0 0 0 0 0 0 0 0 2 0 0 0 2 37 0 6 15 1 0 0 2 0 0 2 17 0 0 0 3 5 5 4 3
100 98 91 79 86 78 81 83 82 86 67 5 4 56 1 0 0 4 0 0 0 0 0 0 0 0 0 9 22 57 42 46 26 2 0 0 0 0 7 27 54 0 0 10 14 12 5 5 5
100 87 88 98 88 97 100 100 100 99 95 32 0 5 4 0 0 0 4 4 0 0 0 0 1 7 3 0 2 49 7 82 26 19 15 0 0 0 27 64 14 0 4 20 19 0 7 1 3
100 100 98 62 86 100 100 100 100 100 95 89 12 5 7 4 1 0 0 2 0 0 0 0 13 8 7 11 4 51 40 44 4 34 24 0 0 0 9 1 0 33 38 1 0 0 0 3 2
100 73 100 100 100 100 100 100 100 100 100 97 62 1 15 6 5 5 3 39 0 0 0 7 9 5 6 4 36 38 50 25 6 26 0 0 0 0 0 5 0 0 12 7 0 0 0 0 0
100 100 98 93 99 87 100 100 100 100 100 100 88 20 53 62 70 9 5 36 0 0 0 0 6 0 0 3 43 90 73 60 58 30 0 3 0 0 0 0 7 3 4 0 0 0 13 0 0
100 100 98 80 93 100 100 100 100 100 100 98 99 70 90 51 72 9 6 20 5 0 0 0 0 0 0 14 8 7 23 2 5 9 8 0 4 4 0 0 7 0 22 17 0 0 1 11 0
100 90 82 89 58 100 100 100 100 100 100 99 81 100 100 100 100 59 11 5 5 4 0 0 0 0 0 0 1 4 10 20 45 55 58 0 2 42 32 0 0 0 4 0 3 0 0 0 0
97 94 89 21 99 100 100 100 100 100 100 100 98 97 100 94 56 31 5 5 5 2 0 0 0 0 0 0 0 5 4 81 17 47 11 38 1 0 26 28 0 5 5 4 0 0 0 0 2
58 98 100 55 100 100 100 100 100 100 100 100 96 100 100 100 98 86 34 13 12 4 0 0 0 0 0 2 5 5 16 7 63 48 18 43 68 14 1 16 31 7 12 5 5 1 0 0 0
81 75 79 91 87 100 100 100 100 100 100 100 100 100 100 97 98 99 44 23 49 5 5 0 0 0 0 0 0 12 5 5 3 41 29 96 100 26 61 9 5 36 0 2 5 0 2 0 0
3 8 92 98 86 100 100 100 100 100 100 100 100 100 100 100 21 96 97 96 43 73 18 8 91 2 0 0 2 0 0 30 5 12 5 10 23 13 52 86 8 50 5 0 0 5 2 0 0
0 46 26 80 100 100 100 100 100 100 100 100 100 100 100 100 60 58 72 100 98 90 92 100 100 56 52 18 52 5 3 4 37 22 5 96 66 91 7 27 76 81 7 21 0 1 4 8 0
0 0 63 29 100 94 100 100 100 100 100 100 100 91 100 100 100 71 79 93 94 100 100 100 91 100 72 42 18 5 6 5 3 1 5 54 11 84 100 99 100 100 83 100 32 5 10 1 5
0 0 0 5 5 92 98 100 100 100 100 100 99 72 83 99 90 86 100 100 98 100 100 100 100 84 45 100 45 54 9 48 5 5 5 5 30 5 18 80 53 99 100 100 100 51 23 38 4
0 0 0 0 5 5 97 100 100 100 100 100 100 100 100 94 100 70 100 100 93 54 83 100 100 100 100 100 56 69 95 18 58 4 4 100 100 45 92 10 89 99 99 100 99 43 31 47 8

GFSSGP_prec_cloud_099.txt.gz
Cloud_Cover
100 64 100 100 100 90 94 4 0 0 0 0 1 14 33 14 86 8 11 90 22 46 2 3 0 5 47 68 27 76 100 82 100 100 100 100 100 100 100 100 100 100 100 100 77 84 100 100 100
100 100 70 76 100 100 62 1 0 0 0 0 2 66 6 0 0 3 34 26 100 79 19 3 0 5 0 5 2 4 1 5 69 100 94 100 100 93 85 78 100 98 68 84 99 100 100 100 100
100 100 82 100 100 99 6 1 0 0 0 0 44 94 5 0 10 43 37 13 63 33 30 0 5 0 1 5 0 0 0 1 1 3 5 22 17 84 100 100 100 100 100 100 100 100 100 100 57
100 100 100 100 100 100 13 0 0 0 0 15 87 0 5 4 100 64 100 97 6 84 8 0 0 0 12 6 4 1 1 3 3 6 5 5 30 97 68 91 100 100 100 100 100 100 100 100 100
100 100 100 100 100 92 56 5 0 0 30 100 8 0 6 35 94 99 5 54 100 53 9 0 0 10 2 0 0 4 4 5 6 3 12 17 18 5 77 53 81 93 96 100 100 100 100 100 100
100 100 94 99 100 99 34 5 2 48 90 100 26 0 34 76 97 90 70 92 100 81 82 1 0 1 0 0 5 0 0 0 6 97 100 99 100 30 39 42 100 72 99 94 100 100 100 100 100
100 100 100 100 97 100 80 6 13 8 33 100 42 4 21 100 100 88 69 91 79 22 48 15 0 0 0 13 0 4 4 90 100 100 100 100 100 100 100 82 63 77 11 5 61 99 100 100 100
100 100 99 100 57 99 63 67 5 15 60 73 68 12 14 90 87 70 29 39 100 31 88 97 96 95 8 0 1 2 2 4 52 100 100 100 92 4 54 2 5 5 5 6 32 73 100 100 100
100 100 97 100 82 64 19 99 98 42 73 95 79 3 1 1 46 25 1 18 35 22 70 100 100 25 12 5 0 0 3 5 3 90 100 99 66 5 62 5 3 64 16 90 58 100 97 100 100
100 100 100 94 93 65 33 80 100 62 100 72 22 6 1 0 21 1 0 21 43 73 100 100 100 100 42 0 56 24 41 48 48 83 33 100 50 0 5 5 5 7 70 17 71 87 100 100 100
59 100 100 100 98 18 17 100 24 98 75 29 3 0 0 6 28 0 1 6 27 30 0 100 98 17 3 36 65 48 99 42 99 24 88 24 12 1 10 35 97 76 77 97 100 100 100 100 100
100 98 100 100 54 39 100 59 100 40 80 14 7 0 0 2 10 0 17 17 0 0 0 73 65 99 14 4 95 100 27 31 98 94 39 1 40 100 95 98 62 100 100 99 100 100 100 100 100
100 100 100 100 98 100 94 36 82 100 16 4 8 1 0 20 13 2 0 0 5 0 0 90 36 85 29 25 45 83 18 88 7 64 42 95 100 78 93 87 94 44 85 85 100 88 100 100 81
92 100 100 100 100 88 95 85 62 60 38 0 5 37 24 44 33 0 0 0 0 0 0 49 68 91 100 26 8 21 92 0 65 73 40 98 86 100 38 35 100 89 100 100 100 100 94 92 40
5 78 100 100 21 70 99 70 100 5 0 5 16 33 46 69 30 0 0 18 14 0 0 26 64 46 98 71 42 46 15 100 100 20 43 4 11 21 21 38 94 61 0 6 9 24 6 13 5
16 100 96 100 54 19 100 95 99 13 0 27 37 69 38 38 4 2 0 62 0 0 0 17 98 20 63 98 90 100 100 97 40 85 36 17 0 0 42 48 100 2 64 89 87 77 82 20 19
95 97 100 100 12 74 96 95 94 84 68 74 74 98 76 54 12 3 8 59 13 1 3 13 85 100 100 3 100 29 75 80 96 97 100 33 37 17 100 71 63 97 88 59 82 58 92 7 16
87 91 99 94 100 41 98 100 57 80 49 100 92 92 100 29 27 4 9 51 50 1 36 18 35 100 100 19 66 98 96 34 99 84 92 0 68 1 90 20 8 24 100 52 35 1 22 32 10
79 88 100 100 84 91 100 100 100 100 100 86 100 100 100 100 78 95 96 52 31 21 14 100 99 11 6 2 81 90 90 100 100 100 6 9 41 16 0 87 0 5 82 53 0 31 34 30 0
100 100 100 100 99 100 100 100 100 100 100 100 100 100 100 100 99 96 100 86 21 12 21 13 100 3 10 17 100 88 100 97 100 100 6 87 52 9 4 61 55 98 16 24 0 0 26 10 6
94 100 100 100 100 100 94 100 100 100 100 100 100 100 92 100 98 59 100 68 43 4 2 1 32 2 5 100 86 100 100 98 83 92 48 38 49 24 88 2 99 0 40 16 0 0 7 97 0
95 78 100 100 100 69 100 100 100 100 100 100 100 100 99 88 98 88 75 100 83 7 19 0 0 15 0 13 63 55 93 21 5 100 100 97 76 53 81 12 4 0 55 64 8 0 0 24 60
98 100 100 100 100 6 100 100 100 100 100 100 100 100 100 98 72 100 60 72 100 45 98 22 0 1 40 0 71 9 69 100 100 100 95 100 5 76 88 31 21 0 3 2 97 2 0 13 17
92 100 100 100 100 38 57 100 100 100 100 100 100 100 42 100 71 38 83 88 100 90 100 94 0 0 0 0 0 13 18 48 100 94 92 88 96 14 20 58 10 10 39 2 2 13 1 0 6
19 100 100 100 100 100 95 100 100 100 100 100 100 100 100 100 50 93 94 37 29 81 91 100 0 1 0 1 1 3 13 8 69 100 64 100 96 100 62 23 5 3 2 45 53 4 15 5 16
0 96 100 100 94 97 100 100 100 100 100 100 100 100 100 100 100 76 5 11 4 98 19 100 6 1 3 3 12 17 5 25 19 96 96 24 49 5 48 33 96 33 50 41 13 0 0 6 5
2 3 99 100 98 31 96 100 100 100 100 100 100 100 100 100 99 92 89 25 83 41 100 98 8 7 8 22 5 12 17 27 79 24 6 100 38 100 100 100 99 100 92 75 32 22 52 99 10
1 6 53 100 100 89 100 100 100 100 100 100 100 100 97 100 98 100 72 13 37 100 100 22 100 100 100 52 33 5 6 5 5 9 5 9 70 100 80 89 80 100 96 80 14 24 25 1 4
0 0 6 99 100 100 100 100 100 100 100 100 100 100 97 100 100 100 100 100 36 92 79 64 100 100 100 83 96 84 64 55 52 4 5 5 16 34 68 93 48 99 94 79 100 65 40 65 4
0 0 0 5 94 100 100 100 100 100 100 100 100 100 100 100 100 100 100 100 96 100 15 100 100 100 100 100 70 100 8 10 100 97 60 5 29 94 42 98 99 100 99 89 100 100 54 92 27

GFSSGP_prec_cloud_102.txt.gz
Cloud_Cover
46 100 53 89 97 35 47 96 15 17 42 40 56 54 20 94 88 2 4 98 0 0 2 3 5 8 6 98 100 100 100 100 100 100 100 100 100 100 100 100 100 100 100 100 100 100 100 68 79
100 100 71 100 100 98 49 9 11 5 1 0 0 2 0 4 6 22 88 52 73 20 0 1 4 48 49 92 49 94 99 100 100 100 100 100 100 100 100 100 100 100 100 100 94 100 100 98 95
100 70 87 100 99 53 2 16 1 0 5 96 70 69 0 1 40 17 4 0 1 53 0 0 1 0 1 3 10 13 4 10 13 36 88 71 73 100 100 100 100 100 100 100 100 100 86 99 100
100 100 84 100 100 99 6 0 0 0 64 12 33 38 14 4 3 0 0 59 89 5 0 0 0 2 3 0 0 0 4 1 1 0 3 10 25 5 5 28 97 100 100 100 100 93 100 100 96
100 99 100 100 100 68 42 2 0 1 22 99 10 4 83 23 0 0 90 50 49 0 0 0 0 1 2 4 1 0 8 6 5 27 32 95 71 82 5 34 38 31 50 100 100 100 100 100 100
100 100 100 100 100 31 1 9 5 2 30 89 0 3 94 0 9 0 42 100 100 0 0 0 1 0 1 0 0 1 21 39 17 8 5 25 99 53 29 24 12 36 62 100 100 100 100 100 100
100 98 96 100 100 38 3 6 18 38 32 11 12 42 58 0 66 2 99 91 77 0 0 0 0 0 2 0 1 1 100 7 5 16 5 5 5 5 2 11 5 5 26 78 100 100 100 100 100
100 100 100 100 100 52 9 32 9 6 100 58 98 27 24 0 92 65 100 43 86 28 65 58 0 3 0 2 0 3 2 5 5 6 99 94 13 10 3 0 0 0 2 3 5 47 100 100 100
100 100 100 100 83 100 54 16 29 29 41 30 94 22 14 1 23 46 41 0 47 10 6 6 70 0 0 0 0 0 0 0 5 11 9 1 2 2 5 0 4 5 0 5 95 25 6 80 100
100 100 100 100 97 87 86 2 78 79 80 93 87 89 1 60 40 8 26 82 72 93 100 19 91 6 0 0 0 0 0 2 9 79 4 90 23 3 0 0 0 0 36 34 25 5 88 98 99
100 100 100 95 97 99 87 86 2 93 68 88 0 0 0 54 71 2 69 100 89 100 7 79 79 99 1 0 29 25 77 100 100 5 17 6 1 4 4 2 85 94 100 100 80 21 100 100 100
100 100 100 99 94 87 47 13 24 6 7 8 8 1 0 37 27 25 40 99 1 0 0 51 58 53 44 8 91 35 26 75 57 83 0 39 73 44 100 100 100 74 100 100 82 42 100 100 88
100 100 100 100 100 14 55 59 6 32 100 21 3 3 6 52 37 94 100 3 0 9 5 14 29 0 74 100 75 97 81 89 0 24 54 95 48 31 100 88 90 100 51 85 93 99 74 63 86
78 43 97 100 97 67 88 48 100 100 100 6 5 6 31 79 100 38 62 32 0 14 1 91 5 1 97 34 5 59 100 0 6 100 100 29 99 100 6 87 47 95 93 99 99 100 97 100 100
10 97 97 11 99 85 5 87 53 4 62 5 6 53 73 84 85 6 16 26 0 10 15 99 5 7 37 0 44 47 20 49 0 25 33 100 56 100 0 48 92 7 86 100 98 85 21 4 6
43 92 0 18 19 88 100 100 96 7 94 5 32 59 58 76 92 14 9 58 0 2 0 18 40 91 25 19 0 44 100 93 3 0 0 0 0 70 1 90 10 0 0 46 2 27 5 5 5
44 15 3 13 99 66 40 94 98 37 26 43 96 90 98 98 97 3 27 95 0 0 0 100 42 36 74 93 68 24 21 8 51 39 2 0 14 20 18 98 1 28 53 7 94 0 79 66 75
97 90 8 4 77 11 58 99 100 80 100 87 99 98 98 54 19 5 97 81 0 0 27 100 43 3 7 76 36 7 8 99 69 23 5 2 2 28 6 35 0 2 18 95 0 69 0 86 10
47 100 91 62 84 29 12 100 100 69 62 97 100 8 14 99 19 3 98 67 0 0 80 100 100 46 10 92 56 44 5 95 1 99 96 19 0 0 0 4 2 100 2 0 0 2 0 35 98
38 100 100 100 100 100 100 100 100 100 100 99 19 100 98 93 31 25 36 55 0 0 71 45 43 4 26 38 98 76 100 2 46 1 0 1 24 1 84 48 9 35 20 0 0 0 0 0 0
100 92 100 100 100 100 100 100 100 100 100 100 100 100 100 85 0 23 28 11 0 0 0 19 90 0 5 17 86 85 64 10 49 52 79 18 32 0 98 100 43 100 100 54 1 0 0 0 8
100 100 100 100 100 100 100 100 100 100 100 100 100 100 100 100 51 42 0 97 4 1 0 0 0 0 1 23 83 23 34 97 53 100 100 58 85 22 8 1 5 75 100 49 5 0 61 0 0
98 5 100 100 100 100 100 100 100 100 100 100 100 100 100 77 78 100 42 24 23 4 0 0 0 0 2 25 21 20 47 84 99 75 74 9 14 66 13 6 1 100 100 94 12 5 0 23 5
100 98 100 100 100 100 100 100 100 100 100 100 100 100 99 100 40 100 31 85 95 10 2 2 0 0 0 0 49 15 5 100 100 100 29 100 100 90 13 92 61 100 100 5 22 5 5 0 3
100 100 100 100 100 100 100 100 100 100 100 100 100 100 100 99 59 33 99 98 70 98 1 0 0 0 0 0 0 0 1 8 98 40 95 97 100 100 100 84 20 68 7 20 0 0 5 6 0
100 97 100 100 100 100 100 100 100 100 100 100 100 100 100 100 90 30 86 94 86 4 79 0 0 0 3 0 0 1 4 0 9 20 99 100 100 100 100 73 100 39 64 7 5 0 95 67 89
100 11 100 100 100 100 100 100 100 100 100 100 100 100 100 100 100 100 92 100 75 100 100 10 2 1 0 1 1 0 2 1 10 0 35 100 100 100 100 93 53 12 62 85 69 4 84 100 98
23 97 93 100 100 100 100 99 100 100 100 100 100 100 100 100 100 93 100 100 100 100 100 100 93 6 10 56 2 4 5 1 4 0 16 100 100 100 100 100 85 92 98 86 41 6 75 65 7
0 0 7 86 100 100 100 100 100 100 100 100 100 100 100 100 100 100 84 99 91 100 100 79 82 43 85 76 24 75 91 5 0 0 0 14 52 100 100 100 73 100 65 91 100 87 28 100 53
0 3 5 5 99 100 100 100 40 100 100 100 100 100 100 100 100 77 45 100 100 92 34 10 97 92 100 81 14 52 79 100 1 14 18 11 22 93 100 60 92 99 96 100 75 94 100 100 100

GFSSGP_prec_cloud_105.txt.gz
Cloud_Cover
69 12 70 99 78 100 85 93 92 13 48 93 100 7 47 56 3 32 60 0 0 0 0 0 3 0 2 5 5 16 99 99 40 97 98 100 100 97 100 100 100 100 100 100 100 100 100 100 100
78 55 100 100 86 100 80 53 13 4 4 0 1 0 0 0 0 0 0 2 0 0 0 0 0 5 0 7 8 4 5 89 100 99 100 100 100 100 100 100 100 100 100 100 100 100 100 100 97
95 44 100 100 89 99 24 5 5 0 0 2 0 0 0 0 0 9 1 2 0 0 0 0 0 0 2 10 4 5 14 100 100 100 100 100 100 100 100 100 100 100 100 100 100 100 100 100 100
97 91 95 100 67 84 17 1 0 0 0 5 2 39 51 1 0 0 2 0 0 0 0 0 0 0 0 11 5 3 5 5 6 19 90 100 100 100 100 100 100 100 100 100 100 100 58 84 100
65 67 94 100 94 96 3 38 0 17 3 0 0 83 2 0 0 0 1 0 0 0 0 0 0 0 0 0 0 3 1 2 6 8 5 8 54 60 13 16 57 45 68 97 100 100 96 100 100
99 100 100 100 98 88 12 7 11 18 6 0 0 6 5 3 0 15 45 9 0 0 0 0 0 0 0 0 5 2 4 4 8 12 4 22 46 22 47 86 8 12 38 91 100 97 100 100 100
80 100 100 100 100 9 57 65 18 0 95 1 0 0 0 0 0 82 100 20 0 0 0 0 0 0 0 0 6 3 3 5 5 4 4 4 2 3 5 5 5 5 9 100 100 100 100 100 100
100 100 100 100 100 99 39 85 5 6 0 0 0 0 0 0 19 22 1 7 9 5 0 0 0 0 0 0 1 0 2 2 1 2 5 5 4 3 5 5 5 4 4 16 96 99 100 100 100
100 100 100 100 100 100 52 100 26 62 71 0 5 7 0 0 87 92 0 0 0 0 0 0 0 0 0 0 0 0 0 28 96 7 1 5 4 2 3 4 17 5 5 5 13 80 100 67 100
97 100 100 100 100 98 100 100 13 17 97 99 67 0 0 0 4 5 99 40 1 0 6 0 0 0 0 0 1 2 7 99 98 9 2 0 1 2 54 36 100 70 100 12 55 58 100 100 100
100 100 100 100 100 100 77 7 29 99 45 100 41 0 0 0 0 0 77 22 25 53 0 0 0 0 0 0 1 4 0 4 10 3 1 89 47 97 70 100 97 81 74 100 100 100 82 65 86
97 100 100 100 100 100 90 6 93 17 63 4 0 0 99 30 0 57 100 20 0 4 0 6 26 0 0 0 0 0 0 0 0 0 5 61 100 100 100 100 100 100 100 100 100 100 100 100 99
100 100 100 100 100 100 99 9 0 97 6 24 0 34 10 27 2 5 95 72 0 0 0 5 26 68 14 0 44 0 89 10 22 3 49 77 100 100 100 100 100 100 57 80 98 100 100 59 100
100 83 100 100 100 100 100 81 20 98 87 12 0 0 83 95 100 32 80 1 0 0 0 0 0 84 98 13 24 22 90 100 61 37 8 1 10 42 100 100 100 100 99 91 97 100 91 96 39
100 100 100 100 100 100 100 42 40 13 28 56 3 2 100 94 28 37 2 0 0 0 9 0 0 99 88 30 43 100 0 31 0 3 60 0 0 1 0 2 1 93 40 100 100 29 4 3 3
27 6 94 100 100 100 100 100 50 34 100 66 17 9 100 16 100 0 0 0 0 0 0 0 0 21 11 97 6 6 51 47 0 0 0 63 8 4 98 8 6 3 5 60 29 3 66 33 4
80 4 13 96 100 100 100 100 100 91 8 5 42 4 100 11 60 3 0 0 0 0 4 32 10 3 0 0 0 86 25 3 0 0 0 2 2 5 66 94 95 18 0 1 4 99 33 24 80
34 45 67 98 100 100 100 100 100 99 100 97 6 28 88 6 95 56 0 0 1 0 5 38 93 55 5 4 1 26 47 49 0 2 2 19 9 56 100 100 19 98 0 0 52 39 53 62 97
5 87 100 98 100 100 100 100 100 92 80 38 5 5 100 45 38 58 0 0 0 0 0 7 26 7 90 17 1 4 76 100 52 11 45 68 100 90 90 100 98 90 33 0 47 25 100 54 67
34 71 100 90 100 100 100 100 100 100 97 100 100 89 96 56 5 0 0 0 1 0 0 96 9 82 57 93 9 40 94 96 32 52 0 1 56 26 100 82 83 100 0 0 81 3 3 75 0
100 89 89 100 100 100 100 100 100 100 100 99 81 80 28 100 84 34 0 28 0 0 0 0 64 5 22 98 59 27 93 99 23 5 4 75 100 91 100 100 100 20 2 0 4 15 95 5 3
100 100 96 100 100 100 100 100 100 100 100 100 99 100 100 33 99 48 0 0 1 1 0 0 0 4 24 22 100 93 99 100 98 91 64 49 96 82 100 99 70 74 19 5 7 31 100 100 85
99 100 100 100 91 100 100 100 100 100 100 100 100 85 100 99 52 55 3 0 5 4 0 0 1 0 5 73 92 100 100 100 100 89 100 100 100 84 12 16 7 5 44 6 3 4 7 100 100
9 100 100 100 94 100 100 100 100 100 100 100 100 90 100 100 100 40 81 0 1 3 3 0 0 0 0 34 4 90 100 100 94 99 100 100 100 100 100 97 14 19 73 100 66 5 1 17 100
5 90 100 100 100 100 100 100 100 100 100 100 100 100 100 100 100 52 83 32 25 21 0 0 0 0 0 0 0 1 23 100 96 49 81 100 100 100 100 97 94 43 60 54 97 99 50 4 34
0 60 100 100 100 100 100 100 100 100 100 100 99 46 86 100 100 100 90 41 100 12 1 1 0 0 2 0 0 0 0 15 39 100 100 100 100 100 100 100 71 100 35 34 94 38 28 93 18
1 4 100 100 100 100 100 100 100 100 100 100 99 96 96 100 100 100 85 100 8 32 16 33 96 11 0 4 4 0 0 3 2 94 100 100 100 100 99 100 100 100 96 37 24 8 5 37 55
8 12 14 100 100 100 100 100 100 100 100 100 100 100 100 100 100 96 100 100 78 100 97 74 100 100 72 1 25 28 98 5 0 5 56 100 100 100 100 100 100 100 100 93 32 67 19 100 10
5 0 5 100 100 100 100 100 100 100 100 100 100 100 100 100 100 95 80 77 100 100 100 100 100 100 100 94 11 86 98 82 67 2 5 5 47 100 99 100 100 100 100 100 100 100 97 100 94
0 1 2 6 100 100 100 100 100 100 98 95 100 100 100 100 100 100 99 100 79 95 100 100 100 100 100 100 100 100 79 96 100 100 4 4 11 16 6 50 14 100 100 100 100 100 100 100 100

GFSSGP_prec_cloud_108.txt.gz
Cloud_Cover
64 100 75 99 62 5 97 90 0 76 45 9 94 8 2 3 5 12 0 0 0 0 0 0 0 12 85 100 99 100 86 99 100 100 100 91 97 100 100 100 100 100 100 100 100 100 100 100 100
91 100 100 100 72 43 94 22 3 1 4 97 82 54 2 0 11 8 0 0 0 0 0 0 0 0 1 5 31 41 100 100 100 69 100 96 60 100 90 100 100 95 97 100 89 100 100 100 100
100 100 99 98 16 5 17 98 4 0 0 32 3 30 38 0 0 0 0 0 0 0 0 0 1 0 0 0 5 5 5 25 76 100 96 86 90 92 69 97 98 88 90 100 100 100 100 100 100
70 92 78 83 79 25 5 5 0 0 0 2 3 0 0 0 0 0 0 0 0 0 0 0 0 3 0 4 1 4 3 13 2 6 85 98 100 100 100 100 100 100 100 100 100 100 100 100 100
93 47 96 100 63 30 52 7 0 0 0 1 0 0 2 0 5 0 0 0 0 0 0 0 0 0 1 5 6 5 3 3 5 5 5 58 53 67 100 100 100 100 100 100 100 100 100 100 100
30 80 91 95 99 89 32 5 5 0 0 0 0 0 0 0 0 5 0 0 0 3 0 0 0 0 0 3 5 6 5 5 5 5 8 7 12 79 71 100 100 100 100 100 100 100 100 100 100
99 100 100 53 97 100 98 29 27 0 12 0 0 0 17 0 8 50 4 0 0 0 0 0 0 0 0 5 2 4 5 4 2 5 48 66 100 100 63 100 100 100 100 100 100 100 100 100 100
100 98 100 98 100 100 100 100 23 4 0 0 0 0 5 0 48 95 0 0 0 0 0 0 0 0 2 4 4 2 0 8 5 68 75 55 24 12 94 78 5 71 100 100 100 100 100 100 100
100 100 100 100 100 100 100 100 82 36 93 23 66 0 0 0 0 1 0 0 0 0 0 0 0 0 0 5 70 70 91 54 0 25 20 56 23 73 95 4 2 1 100 100 100 100 100 100 100
100 100 100 100 100 100 100 100 43 17 10 0 95 0 0 0 0 0 0 0 0 0 0 0 0 0 0 0 2 7 8 63 100 100 98 94 39 78 35 3 5 5 5 6 82 100 100 100 100
99 100 100 100 100 100 100 100 62 28 10 60 87 0 0 1 0 0 0 0 0 0 0 0 0 0 0 0 0 5 5 32 74 83 95 68 46 14 69 2 5 32 37 94 100 88 100 100 100
100 100 100 100 100 100 100 100 45 54 87 36 8 0 0 0 0 1 11 0 0 0 0 0 0 0 0 0 0 4 29 4 41 58 8 31 87 82 5 56 7 5 22 53 98 40 78 100 100
100 100 100 100 100 85 100 100 100 78 26 18 1 0 0 0 0 7 98 1 0 0 0 0 0 0 0 0 27 0 0 5 100 32 28 27 78 91 98 88 27 5 98 96 88 65 88 5 79
100 83 100 100 100 100 100 100 100 25 8 5 2 0 0 0 0 0 35 0 0 0 0 0 0 0 0 0 6 4 24 7 41 1 39 71 73 43 15 70 100 100 73 91 46 33 93 6 3
100 100 100 100 100 100 100 100 100 86 54 7 5 0 31 30 24 0 0 6 0 0 0 0 10 39 1 23 20 0 0 2 5 0 5 5 5 4 4 100 100 100 100 51 92 71 5 5 5
100 100 100 100 100 100 100 100 100 52 45 69 39 5 15 2 3 39 0 0 0 4 0 0 7 56 64 99 0 10 7 38 1 4 3 41 44 8 5 100 100 100 100 15 4 11 21 5 0
100 73 100 100 100 100 100 100 89 94 76 93 50 38 85 30 4 35 0 0 0 0 5 5 5 87 74 89 4 90 74 34 5 7 5 70 100 93 17 0 17 58 15 3 28 6 94 71 2
48 76 100 100 100 100 100 100 100 100 100 100 85 25 85 100 20 2 30 0 0 0 4 5 5 0 5 14 9 51 8 0 3 5 56 100 100 99 100 0 0 1 2 13 56 31 0 1 0
94 30 31 100 100 100 100 100 100 100 90 100 5 60 100 100 4 95 3 0 0 0 0 5 5 5 3 5 5 1 5 5 8 97 40 73 98 100 54 0 0 5 0 0 15 12 0 68 0
58 8 73 100 100 100 100 100 100 100 100 100 100 64 5 87 35 0 60 0 0 0 0 0 4 3 2 5 67 5 98 8 28 61 28 67 8 5 5 1 5 5 45 5 16 0 20 0 0
5 100 97 75 97 100 100 100 100 100 100 100 100 72 5 7 81 0 0 0 0 0 0 0 0 0 5 5 97 79 30 97 75 100 19 5 85 13 15 5 5 0 6 20 66 4 3 0 0
13 52 66 100 93 100 100 100 100 100 100 100 100 79 73 100 33 5 4 12 0 4 0 0 0 0 2 5 28 76 99 100 100 100 100 5 62 64 86 32 9 0 0 5 23 5 2 5 0
8 20 72 68 92 100 100 100 100 100 100 100 100 99 88 94 66 15 94 5 61 3 4 0 0 0 0 5 96 26 6 100 76 98 90 100 94 96 92 33 8 31 5 5 4 21 11 73 100
5 5 75 100 94 83 100 100 100 100 100 100 100 100 100 94 66 96 21 8 1 4 4 0 0 0 0 0 5 5 5 91 100 100 100 100 100 100 100 37 6 87 14 86 28 54 7 68 7
18 5 81 100 84 87 99 100 100 100 100 100 100 100 100 100 98 48 18 5 5 1 0 0 1 5 5 0 1 5 5 6 17 58 99 100 98 98 100 100 98 14 38 100 98 63 6 6 5
5 38 75 100 64 89 100 100 100 100 100 100 97 100 100 100 64 100 3 29 5 5 0 0 5 2 20 38 0 0 5 7 87 25 94 100 82 100 100 100 100 100 56 48 91 72 5 5 5
0 3 74 100 32 100 100 100 100 100 100 90 60 99 100 100 99 100 97 7 1 0 1 6 4 77 94 100 100 17 5 2 5 81 100 100 100 100 100 100 100 100 100 98 78 88 24 47 7
0 0 3 100 90 100 100 100 100 100 100 100 92 99 100 100 100 94 70 61 46 18 41 8 40 100 100 100 100 77 5 48 4 12 22 100 88 67 60 100 100 100 100 100 100 100 100 96 96
0 0 4 5 50 100 100 100 100 100 93 100 100 100 100 100 100 100 99 100 48 100 100 100 100 100 100 100 100 100 100 100 100 100 94 5 30 84 97 100 100 100 100 100 100 100 100 99 99
0 0 87 32 52 100 100 100 100 100 100 6 97 98 100 100 100 100 79 100 78 100 100 100 100 100 100 98 90 100 100 94 100 100 100 100 44 81 9 13 100 100 100 100 100 100 90 99 100

GFSSGP_prec_cloud_111.txt.gz
Cloud_Cover
97 65 90 97 14 22 3 0 0 6 2 10 2 4 9 0 40 4 0 0 5 4 3 52 100 100 98 100 100 98 100 97 98 100 100 100 100 100 100 100 100 100 100 100 100 100 100 100 91
67 64 79 57 24 5 31 5 0 0 3 12 2 24 37 45 2 18 0 0 0 2 5 3 13 8 5 92 99 99 100 100 88 100 100 100 100 100 100 100 100 100 100 100 100 100 100 100 100
100 57 62 36 12 5 5 2 4 0 0 11 44 37 30 34 2 3 0 0 0 0 3 5 0 0 0 0 31 88 97 94 100 100 100 100 100 100 100 100 100 100 100 100 100 100 100 100 97
80 22 75 84 5 5 5 5 0 0 0 3 5 2 0 2 0 4 0 0 0 0 0 3 0 0 0 1 45 76 100 100 100 100 100 100 100 100 100 100 100 100 100 100 100 100 100 100 100
28 82 57 100 99 64 12 37 5 0 0 3 5 0 0 3 15 0 0 0 1 1 0 0 1 1 0 4 76 95 48 57 62 99 98 89 98 100 100 100 100 100 100 100 100 100 100 100 100
97 69 31 100 44 100 99 77 5 2 0 0 0 0 4 0 5 1 0 0 0 1 0 0 0 2 0 0 5 5 5 6 5 5 8 6 39 13 5 72 100 100 100 100 100 100 100 100 100
100 97 95 100 100 100 100 100 5 2 1 0 0 0 7 2 2 2 0 0 0 3 5 0 0 2 5 5 7 5 5 5 5 5 31 100 100 100 100 100 100 100 100 100 100 100 100 100 100
100 91 84 100 100 100 100 100 24 5 0 0 0 0 40 2 5 2 0 2 2 0 0 0 1 5 78 56 10 6 4 5 7 9 8 20 88 98 78 5 100 100 100 100 100 100 100 100 100
99 40 100 100 100 77 100 100 99 39 55 0 0 0 0 0 0 0 0 12 2 5 0 0 7 0 48 74 100 74 86 100 11 16 98 71 5 5 5 35 76 74 100 100 100 100 100 100 100
100 100 100 100 100 100 100 100 100 16 5 0 0 0 0 0 0 0 2 36 8 23 2 0 0 0 0 47 100 41 98 95 13 5 6 8 17 34 5 14 5 33 100 100 100 98 100 100 100
100 99 100 100 100 98 100 100 35 76 5 5 15 0 0 0 0 0 0 0 0 0 2 0 0 0 2 11 80 18 74 22 7 42 93 36 3 1 0 0 0 13 73 100 100 85 91 100 100
100 100 99 100 100 100 100 100 100 84 88 5 35 0 0 0 0 0 0 0 0 0 0 0 0 0 3 14 90 12 71 42 5 5 4 5 2 5 3 1 35 100 98 41 24 68 68 7 38
100 100 98 100 100 99 100 100 100 98 100 14 68 1 0 0 6 100 29 0 0 5 30 2 0 2 4 0 1 4 0 1 7 29 16 5 5 5 5 38 20 5 20 41 62 40 21 32 5
100 100 74 100 100 100 100 100 100 100 50 78 5 5 0 0 0 1 3 0 0 3 40 10 0 0 8 96 4 5 0 0 20 39 6 5 89 98 90 100 65 41 79 91 28 4 4 5 3
100 100 99 100 100 100 100 100 100 100 100 82 54 6 3 0 0 0 0 0 0 0 5 70 0 2 0 0 0 0 0 1 24 64 2 5 87 65 11 99 100 100 40 4 0 3 5 1 5
94 100 100 100 100 100 100 100 100 100 94 99 97 18 2 0 0 0 0 0 0 0 4 5 28 0 0 0 0 0 0 5 6 92 72 0 4 55 100 87 100 63 6 4 0 0 0 0 0
8 100 100 93 100 100 100 100 100 100 28 100 100 100 57 5 0 0 0 0 0 0 2 5 3 5 5 4 0 34 92 5 15 100 84 10 1 30 90 100 92 1 0 0 0 0 0 0 0
8 100 100 100 100 100 100 100 100 100 100 94 100 60 14 12 4 39 31 39 0 0 2 0 2 15 9 48 5 22 3 0 18 90 95 7 0 5 20 6 0 0 0 0 0 0 0 0 0
86 100 100 100 100 100 100 100 100 100 100 85 100 30 6 5 12 0 97 0 0 0 1 1 0 5 5 22 96 100 6 11 5 5 87 5 0 0 5 5 7 0 0 0 0 0 0 0 0
54 100 93 100 100 100 100 100 100 100 100 100 100 100 100 5 3 0 0 84 0 0 0 2 0 47 5 5 59 100 100 44 69 68 69 38 1 1 5 59 5 5 0 0 0 5 7 23 5
8 20 95 100 100 100 100 100 100 100 100 100 84 97 98 10 4 0 1 3 0 0 0 0 0 12 71 5 61 47 100 100 100 99 77 100 52 42 3 3 4 37 8 27 0 5 9 75 78
10 56 100 84 100 100 100 100 100 100 100 100 100 100 100 16 6 0 5 3 0 0 0 0 0 2 45 5 5 92 42 95 100 100 100 83 59 55 23 16 3 48 81 59 89 67 88 54 100
10 88 94 88 100 100 100 100 100 100 100 100 100 100 80 94 5 8 12 1 4 0 0 0 0 5 5 7 5 13 54 38 100 84 100 100 84 17 56 99 6 5 5 52 65 54 94 98 10
11 6 58 15 96 100 100 100 100 100 100 96 100 98 96 91 76 100 59 1 4 0 0 0 0 0 4 5 30 5 93 72 16 98 71 100 99 100 82 10 69 63 11 6 5 5 14 5 5
2 2 4 2 59 100 100 100 100 100 100 85 100 98 100 69 94 85 32 5 3 0 0 0 0 0 5 0 4 5 5 28 14 46 100 100 99 94 100 93 78 5 5 5 5 1 5 5 7
5 0 4 5 100 48 100 100 100 100 100 100 87 100 100 96 100 76 52 34 37 0 0 0 0 2 5 5 2 3 5 7 53 13 7 31 48 95 100 100 96 93 5 51 19 5 0 2 5
24 2 31 5 77 67 100 100 100 100 100 100 100 100 100 100 100 100 100 99 100 5 0 0 6 2 97 100 46 7 2 5 6 23 13 94 25 16 91 92 100 100 100 100 100 66 12 27 2
3 100 44 5 98 64 100 100 100 100 100 100 100 100 100 100 100 65 60 42 34 82 4 1 84 5 46 86 100 100 65 28 25 59 5 98 50 17 48 68 100 100 100 100 100 100 100 77 45
0 0 0 0 18 99 96 100 100 100 100 100 100 100 41 63 76 100 100 78 100 99 100 65 100 6 99 72 100 100 100 84 100 100 95 14 18 89 100 17 97 98 98 100 100 100 100 100 100
0 2 3 4 11 67 32 100 100 100 100 100 100 100 70 37 73 94 100 84 100 100 100 100 100 58 100 100 100 100 100 100 100 100 100 100 37 91 60 37 5 49 21 15 99 99 100 100 100

GFSSGP_prec_cloud_114.txt.gz
Cloud_Cover
77 90 71 48 77 3 0 1 4 2 0 0 3 1 12 0 1 0 0 0 0 38 98 96 100 100 100 100 99 100 100 100 95 95 87 97 90 93 100 92 100 88 100 100 100 43 100 70 100
98 64 44 63 63 5 2 0 0 0 0 0 2 92 1 3 1 16 0 0 0 4 85 27 39 100 100 100 100 98 100 100 100 100 100 100 100 100 100 99 100 100 100 100 100 98 75 76 100
60 64 79 99 48 5 5 0 5 0 0 0 0 0 2 2 2 3 0 0 1 3 0 1 0 0 2 81 82 84 97 99 95 89 100 100 100 100 100 100 100 100 100 96 98 100 100 100 100
98 38 52 99 99 99 67 1 0 0 0 0 0 0 8 2 2 2 0 0 1 4 0 0 0 0 0 2 12 7 85 99 100 100 100 100 100 100 100 100 100 92 100 100 89 97 100 100 100
98 81 50 98 62 100 30 23 5 1 0 1 1 4 2 7 0 0 0 1 4 3 0 0 1 0 0 2 3 87 90 100 100 100 100 100 100 100 100 100 100 100 100 100 99 100 97 70 95
100 99 59 68 88 97 54 92 5 45 9 6 5 4 0 5 48 0 0 0 0 4 0 3 82 5 4 5 5 13 74 100 100 100 100 99 100 100 100 100 100 100 100 100 100 98 43 100 94
100 100 81 98 100 22 100 100 5 10 5 17 5 22 20 2 12 0 0 4 0 0 0 4 5 5 5 6 9 7 91 100 100 100 100 100 100 100 100 100 100 100 100 100 100 100 100 100 24
97 95 100 99 100 18 97 100 0 71 5 5 5 10 50 5 0 0 2 16 19 1 0 0 5 5 5 4 5 5 5 5 5 5 65 89 100 100 100 100 100 100 100 100 100 100 98 100 100
100 100 80 100 100 99 100 100 6 1 2 5 5 1 0 1 4 5 36 60 58 33 8 0 4 5 60 83 22 36 5 5 28 51 98 93 100 100 100 100 100 100 100 100 100 100 100 100 7
100 98 95 100 100 100 100 100 100 9 0 0 2 2 0 0 0 23 57 99 67 66 36 14 21 4 32 41 15 35 72 87 14 40 9 43 5 5 51 46 100 100 100 100 88 100 100 5 5
97 100 100 100 100 100 100 100 100 100 4 23 2 5 0 0 0 3 22 30 11 9 28 15 8 5 23 5 14 36 60 12 14 5 0 0 3 6 10 5 100 90 100 100 100 98 31 14 5
100 100 100 100 100 100 96 100 100 68 76 1 0 5 0 0 0 0 5 0 0 2 11 0 2 4 2 5 19 4 5 36 5 0 0 1 1 0 0 5 6 84 100 98 54 32 5 5 5
100 100 100 100 100 100 92 100 100 100 95 72 0 2 1 3 0 0 4 5 0 0 0 0 0 2 0 5 3 0 5 5 5 18 3 4 4 3 4 5 10 12 8 88 87 5 5 5 5
98 100 100 100 100 100 97 100 100 100 36 100 4 73 0 5 5 1 0 2 1 0 0 0 2 4 0 0 0 4 1 2 5 16 56 95 61 42 46 8 4 5 59 33 5 5 1 5 5
6 100 100 100 100 100 99 100 100 100 94 99 7 100 10 5 4 5 0 0 0 3 1 0 0 0 0 0 0 3 3 0 2 5 5 46 57 80 68 96 61 8 14 2 0 0 0 4 5
5 100 100 100 100 100 100 100 100 100 95 50 1 92 22 4 5 5 0 0 0 21 6 5 0 0 0 0 5 12 64 85 6 5 5 7 83 81 100 39 38 5 2 0 0 0 0 0 0
25 100 100 100 100 100 100 100 100 72 96 92 4 8 1 0 5 5 4 0 0 0 5 5 15 16 1 0 0 7 45 65 54 5 29 17 28 84 18 2 0 5 0 0 0 0 0 0 0
1 100 100 100 100 100 100 100 96 56 100 100 96 42 0 0 0 5 5 0 0 2 0 4 6 100 5 5 5 5 28 3 5 5 7 98 22 5 4 0 0 1 0 0 0 1 2 0 0
0 95 100 100 100 100 100 100 100 100 100 100 100 9 5 0 1 0 5 1 0 0 5 4 4 5 100 85 100 52 5 4 5 10 4 5 17 1 0 0 0 0 0 0 0 5 5 5 5
0 60 100 100 100 100 100 100 100 100 100 100 100 42 63 7 0 0 37 52 0 0 0 4 5 1 5 21 99 56 44 40 56 6 0 1 3 5 0 0 0 0 4 0 3 2 5 20 48
0 46 100 100 100 100 100 100 100 100 100 100 87 67 8 5 0 0 0 2 1 0 0 5 25 5 5 5 20 67 50 86 9 10 4 2 5 5 5 0 0 2 5 5 52 72 86 96 75
0 0 100 100 100 100 100 100 100 100 100 100 98 100 75 5 7 2 5 5 0 1 0 0 0 2 3 1 5 39 48 45 87 88 95 43 0 5 5 5 5 6 9 23 9 5 27 69 29
0 4 58 100 100 100 100 100 100 100 100 100 88 16 79 49 5 2 0 5 0 0 0 0 0 2 1 0 2 4 12 92 11 84 100 100 20 5 5 5 4 1 5 5 5 5 5 5 5
1 5 4 100 100 100 100 100 100 100 100 100 95 44 91 83 61 5 72 47 0 0 4 0 0 0 3 8 5 14 5 78 100 87 100 100 100 13 3 0 0 0 2 5 3 5 5 5 5
4 5 3 1 100 100 100 100 47 100 100 100 100 96 100 99 17 1 52 7 2 0 0 3 0 0 0 0 4 5 5 5 6 92 13 39 92 100 64 17 5 0 0 4 3 2 0 2 4
43 3 0 0 59 100 100 100 100 100 100 100 100 90 81 100 89 5 9 6 2 3 0 0 0 0 0 0 0 4 5 5 5 5 12 5 9 82 100 100 100 98 9 1 4 5 5 4 5
5 0 1 2 5 100 100 100 100 100 100 100 100 96 100 100 96 88 97 68 85 2 0 0 0 0 12 8 0 4 3 5 14 5 5 16 65 24 89 100 100 100 100 88 97 28 5 5 0
87 11 16 5 3 100 100 100 100 100 100 100 100 98 100 99 98 63 88 76 59 3 1 0 0 0 10 72 100 75 27 4 64 96 18 22 55 99 40 23 94 100 100 77 18 5 5 5 5
100 5 82 32 20 26 100 100 100 100 100 100 100 100 100 100 99 88 98 53 99 48 12 5 3 5 4 3 100 100 100 100 55 100 100 81 6 5 85 29 45 18 25 50 54 99 76 81 78
98 89 4 74 6 5 81 100 100 100 100 100 100 100 100 100 100 88 100 94 100 84 67 78 98 99 100 100 100 100 100 100 100 100 55 100 100 99 5 27 12 28 58 79 86 84 76 89 100

GFSSGP_prec_cloud_117.txt.gz
Cloud_Cover
5 7 80 61 94 0 0 1 0 0 0 0 5 0 0 0 0 0 0 1 21 100 100 95 100 100 100 100 100 100 100 99 99 58 89 87 87 9 100 74 100 100 64 98 41 100 100 66 96
50 9 46 100 100 4 0 0 0 0 0 0 5 2 0 2 0 0 0 0 5 60 93 97 100 100 100 100 100 100 100 100 100 82 95 99 15 30 97 82 97 82 93 100 100 100 94 100 61
28 27 81 87 100 9 16 0 0 0 0 0 4 0 0 0 0 0 0 0 0 26 1 46 100 100 100 100 100 99 100 100 96 60 62 56 94 100 100 100 88 89 100 99 100 100 100 97 62
35 32 87 94 89 92 69 0 0 0 0 0 0 0 0 0 0 0 0 0 0 0 0 0 32 100 100 100 98 100 100 100 100 100 100 97 100 96 99 72 71 100 100 100 100 100 98 89 88
12 81 95 99 93 100 71 1 5 4 0 0 0 0 0 2 0 0 0 0 0 0 0 0 6 0 8 4 5 12 36 35 80 60 26 76 48 100 100 100 100 100 100 100 100 100 93 100 100
72 49 58 96 100 100 100 0 2 0 0 0 0 0 9 38 4 0 0 0 0 11 94 59 1 11 10 16 9 5 5 21 46 97 100 100 100 100 100 100 100 100 100 100 100 100 100 100 100
100 76 77 71 60 36 100 0 6 0 0 0 0 0 6 12 4 0 0 0 0 0 3 18 10 3 6 9 7 5 5 18 64 100 100 100 100 100 100 100 100 100 100 100 100 100 100 96 100
100 49 79 79 94 70 100 67 5 1 0 0 0 0 0 0 2 0 0 0 23 22 2 31 16 65 97 99 97 22 10 62 88 100 100 100 100 100 100 100 100 100 100 100 100 100 100 79 99
100 40 26 80 96 90 97 100 100 35 4 0 0 0 0 0 1 0 0 3 36 34 22 28 98 100 100 98 94 23 24 5 29 100 100 99 80 100 100 100 100 100 100 98 89 62 9 18 41
100 86 90 80 100 100 55 100 100 44 4 1 0 0 0 0 0 0 0 2 26 22 28 11 45 52 5 60 100 41 34 5 5 5 44 50 58 79 100 100 100 100 100 49 99 100 55 5 10
100 100 38 99 100 100 99 100 100 97 6 1 0 0 0 0 0 0 0 0 0 0 7 22 39 14 7 5 26 5 5 5 3 0 0 0 4 5 6 48 76 100 88 37 66 55 5 8 26
100 100 90 94 92 100 99 99 100 100 34 4 5 0 0 0 0 0 0 0 0 0 14 41 4 17 16 5 5 5 4 1 0 0 0 0 4 5 5 54 88 77 99 58 39 5 2 20 3
96 100 100 99 80 99 63 90 100 100 90 61 92 4 0 0 0 0 0 0 0 0 0 15 6 24 11 5 1 5 7 5 0 0 0 0 0 1 5 5 5 12 5 11 5 4 5 4 0
89 100 46 99 71 100 51 97 100 100 37 45 100 25 1 0 0 0 0 0 0 0 0 0 1 2 2 4 0 0 4 5 4 1 0 0 0 0 5 5 5 2 5 0 5 5 5 0 5
5 100 100 100 100 100 93 100 100 100 100 55 9 74 0 0 3 0 0 0 0 0 0 0 0 0 0 3 5 0 0 3 5 5 5 5 5 4 0 0 0 5 0 0 0 0 5 5 4
0 34 100 100 100 100 100 100 100 100 100 88 70 50 5 0 5 0 0 0 0 0 0 0 0 0 1 5 5 4 3 0 1 5 5 22 98 63 3 5 5 0 0 0 0 0 0 4 5
0 0 54 100 100 100 96 100 100 100 100 69 100 6 18 0 0 0 0 0 0 4 5 0 0 0 0 3 2 4 3 1 0 0 1 4 3 4 0 0 0 0 0 0 0 2 5 36 27
0 0 4 100 100 94 99 100 100 99 99 100 100 96 3 5 0 0 0 0 0 4 24 5 5 0 2 3 1 5 0 5 6 3 0 0 0 0 0 0 0 0 0 0 0 5 63 68 97
0 0 0 99 100 98 37 100 100 99 92 100 97 100 22 5 1 0 0 0 0 0 5 34 5 5 4 4 0 0 0 4 17 5 0 0 5 3 0 0 0 0 0 0 5 33 50 6 14
0 0 2 45 100 100 100 92 100 97 99 100 100 100 76 11 5 0 0 0 0 0 0 5 5 8 7 7 5 4 1 0 2 0 5 1 0 0 0 0 0 0 4 5 5 7 5 20 100
0 0 3 4 100 100 99 100 100 100 100 99 100 100 5 12 41 2 1 0 0 0 0 0 0 14 5 34 4 11 5 5 3 3 0 4 4 0 0 0 3 5 5 30 20 65 5 12 95
0 0 0 6 100 100 87 66 98 100 100 100 100 100 24 93 5 5 0 0 0 0 0 0 0 0 3 5 5 5 5 5 4 0 0 0 2 1 0 0 2 5 5 47 5 5 5 53 44
0 0 0 3 98 100 100 60 100 100 100 100 100 100 22 100 21 8 5 0 0 0 2 0 0 0 0 0 0 2 5 5 99 98 0 0 0 0 0 5 5 0 0 3 0 0 5 3 5
0 0 0 0 50 100 100 77 91 100 100 100 100 100 5 63 73 11 5 39 0 0 0 0 0 0 0 0 0 0 5 39 5 49 100 9 0 0 0 2 1 4 3 2 5 5 5 5 5
0 0 0 1 0 100 100 100 54 100 100 100 100 100 6 6 23 5 5 4 0 0 5 1 0 0 0 0 2 0 1 2 17 10 70 100 47 8 3 2 5 5 5 1 5 3 5 5 11
0 0 5 4 1 100 100 100 76 100 100 96 100 100 98 21 41 3 6 0 5 1 0 4 0 0 0 0 1 4 0 0 1 2 5 49 95 12 44 5 11 71 32 5 4 5 5 5 5
3 1 0 1 0 33 100 100 97 100 100 97 100 100 100 100 87 28 3 5 36 0 0 0 0 0 0 0 0 5 0 5 5 4 5 5 26 100 100 96 8 7 5 4 1 3 1 2 5
0 0 1 1 6 5 100 100 100 100 100 100 100 100 100 98 98 20 3 6 5 1 0 0 1 2 5 6 3 2 3 92 45 5 5 13 40 73 32 99 99 29 16 9 5 5 23 52 86
25 0 0 2 4 5 93 100 100 95 100 100 100 100 100 64 100 79 9 16 92 9 5 0 2 54 5 11 41 45 96 100 100 81 50 5 33 99 8 46 72 17 5 73 28 76 60 69 8
79 5 3 5 99 5 80 100 100 100 100 100 100 100 100 100 100 100 100 100 100 68 11 16 2 0 5 4 1 98 100 100 100 100 54 70 81 18 12 14 5 5 58 11 7 38 6 88 42

GFSSGP_prec_cloud_120.txt.gz
Cloud_Cover
68 73 59 92 31 33 3 1 0 0 0 2 0 33 0 0 5 1 2 17 100 100 100 100 91 100 100 100 100 100 100 100 100 100 100 100 100 100 100 94 100 100 100 100 100 94 100 100 100
5 69 67 56 100 72 3 4 0 1 0 0 4 19 24 0 0 0 0 55 86 91 99 81 89 99 100 100 100 100 100 74 79 100 98 100 58 84 88 87 100 100 100 100 100 100 100 100 94
8 71 94 80 100 53 5 2 0 0 0 49 2 24 0 0 0 0 0 5 21 13 38 99 100 100 100 100 100 100 100 98 78 100 82 25 99 100 91 91 100 100 100 100 100 100 100 81 95
24 6 77 100 98 5 3 0 0 0 0 0 1 0 0 0 0 0 0 0 8 3 32 6 76 84 6 100 100 100 100 100 100 100 92 78 32 100 94 96 100 100 100 100 100 100 100 100 100
50 28 75 99 98 15 2 0 0 0 1 0 0 0 0 10 1 0 0 13 46 19 1 1 48 5 5 40 100 91 100 100 100 100 100 100 100 99 100 100 100 100 100 100 100 100 100 100 100
97 43 74 100 62 100 71 16 0 0 0 0 0 0 23 0 0 0 0 8 32 10 14 1 4 90 11 35 100 82 99 100 100 100 100 100 100 100 100 100 100 100 100 100 100 100 100 100 100
100 98 99 97 66 21 100 100 53 54 0 1 1 19 5 0 0 0 0 0 6 62 38 35 7 5 11 50 47 58 18 44 100 100 100 100 100 100 100 100 100 100 100 100 100 100 100 100 100
100 87 71 96 92 22 100 100 5 22 0 0 0 1 0 3 0 0 0 0 31 55 66 63 42 22 22 5 68 65 71 13 100 84 5 27 100 100 100 100 100 100 100 100 100 100 100 100 100
100 100 100 79 99 100 100 100 6 0 0 0 0 0 5 4 0 0 0 0 9 78 60 86 92 100 84 65 23 31 17 5 5 8 97 100 100 100 100 100 100 100 100 100 98 100 99 83 52
100 76 60 94 100 100 100 100 100 22 4 0 0 0 5 0 0 0 0 0 6 13 11 59 40 73 61 38 62 85 42 25 30 52 100 100 100 100 100 100 100 100 100 92 99 89 97 70 8
100 99 44 77 100 100 100 100 100 100 59 8 0 0 0 0 0 11 13 0 0 0 4 39 28 42 28 13 51 7 5 8 5 6 31 83 100 100 100 100 100 100 100 86 75 77 5 5 4
84 100 69 40 98 100 100 100 100 82 56 99 5 0 0 0 0 0 0 0 0 0 10 38 13 53 79 25 27 15 18 2 2 90 98 87 20 98 100 100 100 82 70 6 86 2 5 2 5
33 75 100 8 51 100 100 90 100 100 52 29 51 0 0 2 0 0 0 0 0 0 3 10 11 72 56 12 17 6 1 13 0 1 0 3 5 25 100 97 61 5 5 99 0 4 0 0 2
7 65 89 27 39 100 69 82 100 100 100 4 85 0 0 0 0 0 0 0 0 0 0 0 10 89 22 2 5 5 5 7 22 16 6 0 3 8 6 5 7 5 3 2 5 0 0 0 5
0 26 91 68 73 100 82 94 100 100 100 4 98 5 0 0 2 0 0 0 0 0 0 0 18 30 24 0 0 1 1 5 28 12 0 0 0 0 0 2 1 0 0 0 1 0 5 5 5
5 4 100 49 65 100 100 92 100 100 100 24 51 5 0 6 38 0 0 0 0 0 0 0 5 7 35 38 8 8 3 20 73 47 1 0 0 0 0 0 0 0 0 0 1 5 9 17 53
1 42 68 49 58 100 95 99 100 100 100 78 99 4 5 0 20 5 6 0 0 0 0 0 3 3 7 4 13 29 8 7 25 4 10 0 0 0 0 0 0 0 1 3 27 5 6 56 7
5 5 2 100 90 100 99 94 98 100 100 92 42 13 3 0 0 0 5 2 0 0 0 0 0 0 2 4 19 38 16 1 2 2 15 0 0 0 0 0 0 2 31 15 31 6 0 10 2
0 1 3 0 68 85 100 84 93 100 99 61 100 18 6 5 0 14 23 21 0 0 0 0 3 8 0 0 18 3 3 49 10 0 0 0 0 0 0 0 0 0 9 11 5 24 5 12 2
0 0 3 0 12 100 88 10 100 92 100 100 98 18 15 69 33 15 33 27 24 0 0 0 2 5 13 1 16 56 16 46 36 0 0 0 0 0 0 0 0 0 5 5 5 5 51 0 0
0 0 4 1 0 35 100 8 98 83 78 100 100 16 71 30 55 0 3 36 2 1 0 0 5 5 4 24 5 6 55 0 0 3 0 0 0 0 0 0 0 2 6 5 5 4 4 65 5
0 0 0 0 0 25 100 76 6 86 68 100 100 70 81 93 7 11 0 1 0 0 0 0 0 4 5 5 67 5 2 37 30 1 0 2 0 0 0 0 2 5 6 5 4 5 36 4 3
0 0 0 0 3 10 70 100 80 52 98 47 100 100 7 100 1 8 0 0 0 0 0 0 0 5 2 10 4 2 9 23 0 35 6 0 0 0 5 5 5 5 5 1 5 3 6 5 5
0 0 0 0 2 1 44 100 8 51 99 44 100 100 72 54 4 0 0 16 0 0 1 0 0 0 0 95 2 3 9 5 23 0 12 10 9 1 2 5 5 5 11 6 8 5 41 43 6
0 0 6 4 7 4 3 100 96 54 85 100 100 100 96 5 6 1 0 47 0 0 0 0 0 0 4 3 91 1 34 66 5 1 0 0 30 30 19 3 5 13 28 22 10 22 10 17 27
0 4 14 100 70 96 3 90 100 30 5 99 100 97 100 53 47 2 1 0 1 0 0 0 0 0 0 0 5 48 100 39 5 96 5 2 0 4 5 0 1 1 5 5 5 0 5 5 2
32 0 3 83 90 44 74 5 100 98 94 100 100 99 100 70 11 8 6 3 0 0 0 0 0 0 0 0 0 0 4 5 23 67 96 32 10 4 0 0 1 1 0 0 5 5 5 5 5
6 87 19 5 48 93 100 14 100 100 98 100 100 89 100 78 52 6 5 3 0 1 0 0 0 0 0 0 0 7 44 0 2 5 5 3 12 5 4 1 0 13 18 7 7 5 5 8 91
33 1 2 92 100 100 100 100 99 100 100 100 100 100 98 100 100 56 96 24 3 40 4 0 0 0 0 0 2 0 20 38 5 5 5 5 4 5 16 10 13 12 2 7 20 3 2 18 6
2 100 100 98 53 57 54 96 77 100 100 100 100 100 100 100 100 100 100 94 0 4 47 0 0 0 0 0 0 5 100 100 99 42 5 5 5 5 15 17 14 5 10 26 35 6 20 23 24

GFSSGP_prec_cloud_123.txt.gz
Cloud_Cover
6 53 9 98 64 77 100 92 97 55 99 67 29 71 8 8 93 30 24 6 100 85 6 88 100 100 100 100 100 100 100 100 100 100 100 100 100 100 100 100 100 100 100 100 100 100 100 100 100
5 63 98 85 99 99 100 94 100 72 20 67 80 98 14 0 0 8 5 5 50 77 92 25 84 100 100 100 100 100 100 100 100 100 100 100 100 100 100 100 100 97 97 100 98 100 83 96 100
6 30 87 90 100 88 88 92 11 1 53 90 19 26 31 0 5 48 12 6 73 23 18 85 21 89 100 100 100 100 100 100 100 100 100 100 100 100 100 100 100 88 94 100 94 83 94 100 100
5 26 69 99 100 16 68 65 0 2 36 68 54 8 8 17 81 1 2 19 35 100 56 96 100 86 100 100 100 100 100 98 100 100 100 100 100 100 100 98 98 81 100 100 95 100 56 100 100
18 28 86 82 99 100 100 43 3 61 65 92 91 66 6 62 49 1 21 92 100 100 9 5 62 18 83 100 100 100 100 93 100 100 100 100 100 84 100 61 99 99 100 64 100 16 100 100 100
100 66 58 70 100 100 100 99 57 96 84 34 38 75 56 25 29 45 80 96 100 100 67 0 5 5 77 92 97 100 100 100 100 100 89 100 100 89 62 60 79 100 100 80 93 100 100 100 100
100 100 100 78 100 99 100 100 100 86 79 97 32 91 29 21 57 100 100 100 100 88 22 0 3 5 3 5 7 58 100 100 100 100 98 98 100 96 96 99 100 100 100 100 100 100 100 100 47
100 100 73 100 88 100 100 100 52 100 62 1 100 54 36 7 23 98 100 100 66 94 25 99 1 5 8 7 33 77 100 100 100 100 100 100 100 100 99 69 100 100 100 100 100 100 100 84 100
100 100 100 100 100 97 100 100 100 5 2 7 9 66 40 0 1 80 100 96 80 74 71 88 98 50 83 20 88 100 100 100 96 100 100 100 100 100 100 100 100 100 100 100 100 100 39 99 100
100 100 100 98 100 100 100 100 100 53 25 10 60 6 0 0 3 88 98 99 99 91 29 100 98 100 100 100 99 100 100 59 49 9 58 99 100 100 100 100 100 100 100 100 100 78 37 96 23
100 100 91 43 75 100 100 100 100 74 100 46 2 2 1 40 75 56 100 100 100 92 100 100 76 100 97 57 98 82 26 54 6 61 87 93 97 100 100 100 100 100 100 75 48 19 43 39 91
83 97 100 43 38 100 100 100 100 97 100 51 0 5 18 97 100 78 100 100 86 84 100 99 85 96 100 85 86 100 100 25 38 84 96 100 100 100 100 100 100 95 48 33 98 9 5 5 8
69 44 100 65 44 98 100 100 95 100 10 5 0 4 59 100 100 84 95 93 32 42 89 59 98 95 100 93 77 100 42 89 98 79 62 65 43 98 100 100 100 100 21 10 12 33 22 7 5
100 26 76 94 100 73 100 92 98 100 15 12 0 25 77 100 99 55 17 37 23 62 84 34 100 100 18 96 90 37 82 68 98 100 6 10 90 100 100 100 71 65 83 55 24 49 50 19 70
24 23 66 100 95 96 100 96 95 100 80 79 18 50 99 99 85 9 5 0 28 59 66 5 100 79 67 1 4 53 68 84 100 100 0 21 100 100 85 14 98 41 9 3 3 4 6 100 94
4 87 18 57 94 84 100 96 100 100 100 90 100 48 67 100 86 19 0 0 0 31 15 0 100 100 100 72 9 91 94 78 21 100 3 2 4 3 3 39 32 0 1 2 17 15 69 100 12
15 88 97 8 43 61 100 100 100 99 100 100 93 86 56 100 100 75 1 0 1 2 0 0 71 100 100 81 98 100 8 91 56 70 67 0 1 3 52 100 5 0 20 19 70 9 89 5 5
86 25 16 63 12 72 84 98 100 100 100 93 60 94 61 86 100 82 45 3 0 0 0 0 20 100 100 0 100 100 25 99 66 97 81 0 4 0 0 29 0 8 62 54 100 50 28 42 33
2 86 42 77 0 33 93 100 94 68 100 100 84 5 55 98 53 95 98 13 5 5 0 0 10 0 75 35 64 100 75 100 100 100 46 1 0 19 0 86 0 73 100 65 2 5 5 8 5
0 4 15 31 0 36 30 100 42 11 96 100 100 41 96 64 96 82 90 43 8 7 5 3 5 1 35 42 78 96 90 80 100 94 0 56 32 5 2 49 3 80 31 96 15 49 10 80 8
0 5 90 86 1 2 100 100 96 7 59 97 100 97 62 42 100 78 40 59 35 36 83 5 5 5 5 100 72 75 56 96 24 48 1 13 67 12 27 2 54 1 31 54 4 2 5 79 5
0 3 1 5 5 96 100 100 100 25 16 28 100 93 72 100 71 90 56 69 30 8 14 27 3 68 99 55 86 48 4 74 24 88 81 54 31 55 36 0 0 0 6 8 4 5 2 5 91
0 4 0 5 5 69 86 38 100 94 8 38 35 100 98 66 100 95 36 59 86 3 0 9 5 16 27 98 52 2 0 100 69 12 58 9 0 91 54 8 5 5 0 4 5 5 5 3 5
0 0 0 5 54 75 5 47 100 100 39 90 70 99 80 85 88 100 95 60 99 32 13 7 2 97 94 16 5 4 0 100 8 94 62 54 33 9 15 22 22 5 5 5 5 5 5 5 0
0 0 4 65 81 9 21 82 56 100 100 55 100 100 35 100 76 80 98 100 14 71 4 81 1 6 100 6 28 12 16 1 0 0 1 93 96 46 64 5 11 7 8 12 9 14 63 12 15
0 0 35 100 100 84 100 45 32 90 78 5 8 40 21 98 98 100 100 100 78 84 13 100 0 0 13 100 5 13 5 14 0 1 21 0 60 17 94 24 5 5 12 3 10 3 5 9 14
39 6 3 95 47 98 51 78 16 11 100 42 75 55 84 82 97 100 71 100 100 0 67 32 31 2 3 32 84 100 47 6 19 86 3 1 5 12 4 9 20 28 26 1 2 0 2 0 11
10 33 14 27 79 100 100 90 100 0 64 50 84 98 44 100 100 78 80 99 11 1 69 18 79 4 0 7 19 52 38 4 88 100 37 45 5 2 4 7 3 24 15 28 3 0 5 0 62
36 12 95 100 44 35 90 94 95 99 7 74 100 82 100 100 100 97 100 97 97 0 12 0 29 6 0 0 20 26 95 99 28 75 56 18 100 48 1 3 29 10 14 5 5 1 9 86 31
91 74 34 93 98 76 84 98 94 45 5 100 99 99 100 100 100 100 46 100 100 18 69 1 3 1 0 0 12 25 18 42 80 24 90 100 100 100 94 13 5 15 6 90 93 24 0 75 26

GFSSGP_prec_cloud_126.txt.gz
Cloud_Cover
5 5 14 100 100 67 12 54 14 100 49 37 60 5 56 49 69 29 34 96 30 13 24 100 100 100 100 100 100 100 100 100 100 100 100 100 100 100 100 100 100 100 100 97 100 98 100 100 100
4 18 17 100 100 99 75 49 27 52 39 65 95 99 0 1 3 60 13 5 45 6 54 100 98 96 100 100 100 100 100 100 100 100 100 100 100 100 100 100 100 100 100 58 72 100 100 92 96
5 13 60 100 100 100 98 31 0 29 84 81 66 27 3 34 32 1 2 5 44 75 50 26 76 100 100 100 100 100 100 100 100 100 100 100 100 100 100 100 100 86 91 100 89 90 35 69 32
35 73 99 100 100 99 100 33 0 88 20 100 40 29 16 62 0 4 0 14 73 87 23 22 32 12 100 100 100 100 100 100 100 100 100 100 100 100 100 100 100 94 100 99 61 86 99 5 62
100 100 100 100 98 63 100 7 5 87 32 99 50 71 85 92 0 0 4 67 55 100 98 7 100 5 73 100 100 100 100 100 100 100 100 81 96 97 93 84 97 100 100 90 30 36 24 100 100
100 100 100 100 99 40 100 81 100 12 98 48 75 54 99 9 20 92 100 20 37 100 74 3 99 23 94 100 100 100 100 100 100 96 100 100 100 95 100 100 83 94 96 52 87 100 96 100 100
100 100 100 100 100 75 100 100 90 8 68 48 3 59 43 32 0 82 97 98 100 90 0 0 12 38 78 100 90 100 100 100 100 100 94 100 97 100 100 100 90 95 100 100 100 100 100 100 100
97 100 96 100 100 100 100 72 100 100 94 16 58 73 59 46 0 100 99 95 100 99 21 4 2 5 47 43 100 100 100 100 95 100 38 81 99 100 100 100 100 100 98 89 100 100 100 100 99
100 100 97 100 100 100 75 74 99 85 0 98 99 66 3 5 14 68 58 76 57 95 100 95 68 94 27 60 37 32 10 29 86 100 73 71 90 84 100 100 100 100 100 100 100 100 100 88 8
100 100 100 100 78 100 100 100 100 55 11 6 71 2 0 1 38 1 14 83 19 100 100 54 93 69 92 84 81 98 97 26 50 100 100 100 100 100 100 100 100 100 100 100 100 100 92 5 5
85 100 100 100 92 42 100 100 100 100 68 92 0 0 0 0 88 0 46 74 81 100 21 51 82 98 56 85 68 100 100 99 59 100 78 95 100 99 100 100 100 100 100 99 99 94 37 5 26
15 74 67 97 65 59 98 89 100 100 100 100 3 2 12 2 61 59 47 100 24 82 24 85 26 100 100 8 84 100 90 93 50 90 90 96 98 98 100 100 100 100 100 98 80 6 5 4 93
61 57 61 100 68 95 73 99 100 100 100 100 0 13 5 82 30 11 6 98 58 9 40 74 53 63 21 100 57 75 19 91 100 82 60 96 100 100 100 90 100 76 100 71 16 4 3 32 41
78 99 15 99 7 100 71 100 81 92 95 8 5 10 31 17 77 90 42 70 0 38 95 9 91 90 16 94 98 11 93 71 5 5 23 85 100 99 100 87 48 94 19 94 1 2 39 30 79
51 28 0 70 18 68 80 54 96 100 99 43 18 61 66 5 99 32 83 2 0 87 90 0 7 76 0 0 0 39 100 98 7 36 99 22 77 100 100 100 5 61 37 0 0 5 85 83 36
29 77 100 94 94 5 16 99 100 100 100 39 58 78 74 10 11 7 29 27 0 53 0 0 0 48 44 0 0 17 100 14 98 9 22 85 100 100 100 14 4 0 0 0 0 8 5 22 5
24 7 97 100 47 68 5 99 100 100 100 71 17 100 44 48 42 1 18 12 69 97 0 62 54 33 0 0 0 15 30 80 27 52 90 100 100 40 2 88 99 0 11 42 5 63 55 6 5
84 96 10 46 25 50 77 97 100 100 100 100 100 88 52 0 68 7 0 25 8 11 5 76 98 85 97 0 0 4 2 71 2 54 17 1 0 0 1 86 71 49 100 100 97 44 83 81 88
31 30 100 34 51 4 100 89 61 79 99 78 100 100 100 13 14 46 33 4 0 5 5 76 100 52 49 9 5 1 0 22 100 86 2 0 0 4 20 100 100 100 100 100 80 95 100 95 100
58 14 22 3 1 0 42 78 25 79 23 95 100 100 94 99 74 82 97 16 3 4 3 5 99 0 53 6 57 1 32 49 93 28 0 0 2 0 68 100 100 100 100 100 77 100 100 100 64
5 5 76 99 30 0 0 55 99 100 26 78 83 99 100 100 26 100 0 64 0 2 5 5 96 9 10 22 100 39 1 57 73 28 0 7 62 0 10 79 100 100 82 100 100 100 100 97 87
0 2 8 99 33 4 4 35 84 100 38 12 65 96 100 88 95 1 0 12 28 0 1 1 85 74 6 1 1 14 18 100 64 40 0 0 86 38 2 8 1 24 100 100 100 100 87 100 100
0 5 5 3 3 4 35 1 4 99 99 5 98 53 100 99 84 5 75 4 1 0 0 0 100 100 100 5 1 0 0 32 82 97 59 6 5 0 74 55 0 5 64 100 100 100 100 100 100
0 0 0 0 5 2 10 35 5 72 100 97 82 58 32 94 100 45 54 43 0 36 0 0 78 100 18 5 0 0 0 16 71 1 6 23 0 0 22 59 0 0 5 2 3 68 52 88 76
0 0 0 3 5 99 70 96 100 11 100 100 73 78 82 94 100 93 97 100 71 12 86 0 4 100 5 5 5 0 0 0 2 0 38 4 16 69 94 14 0 0 0 2 2 0 0 5 31
0 0 3 82 100 95 99 56 100 83 2 69 100 67 57 36 40 100 29 95 100 66 3 12 0 6 61 4 13 15 0 0 0 0 0 4 17 28 57 70 11 0 1 0 1 0 0 0 1
0 4 2 5 51 98 100 91 0 4 0 0 82 73 5 46 4 30 100 97 27 100 6 4 0 0 3 4 8 56 57 0 0 40 0 0 0 62 16 19 0 2 0 1 5 5 5 5 17
0 38 34 3 4 11 22 81 5 58 74 62 78 21 72 60 94 14 99 70 90 57 12 5 0 0 1 0 7 43 13 63 27 10 0 0 0 0 0 3 0 0 0 0 0 3 6 37 8
49 0 0 14 0 14 39 65 5 5 0 4 4 92 89 98 48 42 71 80 100 23 51 10 1 0 0 0 4 0 2 42 86 92 27 4 0 4 3 1 0 1 0 0 0 0 1 0 0
1 100 96 60 38 99 8 12 30 100 24 74 0 98 99 78 88 100 84 100 63 100 78 0 5 0 0 0 38 34 0 4 34 55 23 100 98 10 0 4 4 1 5 22 7 3 0 2 0